<?xml version="1.0" encoding="UTF-8" standalone="no" ?>
<gpx xmlns="http://www.topografix.com/GPX/1/1" xmlns:xsi="http://www.w3.org/2001/XMLSchema-instance" xsi:schemaLocation="http://www.topografix.com/GPX/1/1 http://www.topografix.com/GPX/1/1/gpx.xsd" version="1.1" creator="VisuGPX - https://www.visugpx.com">
  <metadata>
    <name>83 - M - DRAGUIGNAN Le Malmont</name>
    <desc><![CDATA[grp_trc:Draguignan 11 mars 2026]]></desc>
  </metadata>
  <trk>
    <name><![CDATA[Draguignan 11 mars 2026]]></name>
    <cmt><![CDATA[Le Malmont Vigie]]></cmt>
    <desc><![CDATA[comment ...]]></desc>
    <trkseg>
      <trkpt lat="43.54246" lon="6.46569">
        <ele>201</ele>
        <time>2026-03-11T13:02:38Z</time>
      </trkpt>
      <trkpt lat="43.54253" lon="6.46561">
        <ele>205</ele>
        <time>2026-03-11T13:02:40Z</time>
      </trkpt>
      <trkpt lat="43.54258" lon="6.46559">
        <ele>208</ele>
        <time>2026-03-11T13:02:42Z</time>
      </trkpt>
      <trkpt lat="43.5426" lon="6.4656">
        <ele>209</ele>
        <time>2026-03-11T13:02:44Z</time>
      </trkpt>
      <trkpt lat="43.54262" lon="6.4656">
        <ele>208</ele>
        <time>2026-03-11T13:02:46Z</time>
      </trkpt>
      <trkpt lat="43.54267" lon="6.46559">
        <ele>207</ele>
        <time>2026-03-11T13:02:48Z</time>
      </trkpt>
      <trkpt lat="43.54271" lon="6.46557">
        <ele>206</ele>
        <time>2026-03-11T13:02:50Z</time>
      </trkpt>
      <trkpt lat="43.54272" lon="6.46561">
        <ele>206</ele>
        <time>2026-03-11T13:02:54Z</time>
      </trkpt>
      <trkpt lat="43.54273" lon="6.46563">
        <ele>207</ele>
        <time>2026-03-11T13:02:56Z</time>
      </trkpt>
      <trkpt lat="43.54276" lon="6.46563">
        <ele>207</ele>
        <time>2026-03-11T13:02:59Z</time>
      </trkpt>
      <trkpt lat="43.5429" lon="6.46589">
        <ele>212</ele>
        <time>2026-03-11T13:03:25Z</time>
      </trkpt>
      <trkpt lat="43.54292" lon="6.4659">
        <ele>212</ele>
        <time>2026-03-11T13:03:29Z</time>
      </trkpt>
      <trkpt lat="43.5429" lon="6.46594">
        <ele>212</ele>
        <time>2026-03-11T13:03:31Z</time>
      </trkpt>
      <trkpt lat="43.54288" lon="6.46597">
        <ele>212</ele>
        <time>2026-03-11T13:03:33Z</time>
      </trkpt>
      <trkpt lat="43.54287" lon="6.466">
        <ele>212</ele>
        <time>2026-03-11T13:03:35Z</time>
      </trkpt>
      <trkpt lat="43.54289" lon="6.46602">
        <ele>211</ele>
        <time>2026-03-11T13:03:37Z</time>
      </trkpt>
      <trkpt lat="43.54294" lon="6.46605">
        <ele>210</ele>
        <time>2026-03-11T13:03:41Z</time>
      </trkpt>
      <trkpt lat="43.54297" lon="6.46605">
        <ele>211</ele>
        <time>2026-03-11T13:03:43Z</time>
      </trkpt>
      <trkpt lat="43.54308" lon="6.466">
        <ele>213</ele>
        <time>2026-03-11T13:03:49Z</time>
      </trkpt>
      <trkpt lat="43.54308" lon="6.46604">
        <ele>214</ele>
        <time>2026-03-11T13:03:55Z</time>
      </trkpt>
      <trkpt lat="43.54306" lon="6.46606">
        <ele>214</ele>
        <time>2026-03-11T13:03:57Z</time>
      </trkpt>
      <trkpt lat="43.543" lon="6.46612">
        <ele>213</ele>
        <time>2026-03-11T13:04:15Z</time>
      </trkpt>
      <trkpt lat="43.54295" lon="6.46618">
        <ele>213</ele>
        <time>2026-03-11T13:04:29Z</time>
      </trkpt>
      <trkpt lat="43.54299" lon="6.46615">
        <ele>213</ele>
        <time>2026-03-11T13:05:19Z</time>
      </trkpt>
      <trkpt lat="43.54297" lon="6.46616">
        <ele>214</ele>
        <time>2026-03-11T13:05:27Z</time>
      </trkpt>
      <trkpt lat="43.54296" lon="6.46611">
        <ele>214</ele>
        <time>2026-03-11T13:06:19Z</time>
      </trkpt>
      <trkpt lat="43.54298" lon="6.46614">
        <ele>214</ele>
        <time>2026-03-11T13:06:31Z</time>
      </trkpt>
      <trkpt lat="43.54303" lon="6.46617">
        <ele>216</ele>
        <time>2026-03-11T13:06:45Z</time>
      </trkpt>
      <trkpt lat="43.54307" lon="6.46623">
        <ele>217</ele>
        <time>2026-03-11T13:06:55Z</time>
      </trkpt>
      <trkpt lat="43.54308" lon="6.46627">
        <ele>218</ele>
        <time>2026-03-11T13:06:57Z</time>
      </trkpt>
      <trkpt lat="43.54307" lon="6.4663">
        <ele>218</ele>
        <time>2026-03-11T13:06:59Z</time>
      </trkpt>
      <trkpt lat="43.54307" lon="6.46632">
        <ele>218</ele>
        <time>2026-03-11T13:07:05Z</time>
      </trkpt>
      <trkpt lat="43.54309" lon="6.46635">
        <ele>219</ele>
        <time>2026-03-11T13:07:09Z</time>
      </trkpt>
      <trkpt lat="43.54311" lon="6.46637">
        <ele>219</ele>
        <time>2026-03-11T13:07:13Z</time>
      </trkpt>
      <trkpt lat="43.54313" lon="6.46641">
        <ele>219</ele>
        <time>2026-03-11T13:07:17Z</time>
      </trkpt>
      <trkpt lat="43.54315" lon="6.46643">
        <ele>220</ele>
        <time>2026-03-11T13:07:21Z</time>
      </trkpt>
      <trkpt lat="43.54322" lon="6.46649">
        <ele>221</ele>
        <time>2026-03-11T13:07:31Z</time>
      </trkpt>
      <trkpt lat="43.54324" lon="6.46651">
        <ele>221</ele>
        <time>2026-03-11T13:07:35Z</time>
      </trkpt>
      <trkpt lat="43.54326" lon="6.46653">
        <ele>222</ele>
        <time>2026-03-11T13:07:39Z</time>
      </trkpt>
      <trkpt lat="43.54328" lon="6.46656">
        <ele>222</ele>
        <time>2026-03-11T13:07:43Z</time>
      </trkpt>
      <trkpt lat="43.5433" lon="6.46662">
        <ele>222</ele>
        <time>2026-03-11T13:07:49Z</time>
      </trkpt>
      <trkpt lat="43.54331" lon="6.46665">
        <ele>222</ele>
        <time>2026-03-11T13:07:51Z</time>
      </trkpt>
      <trkpt lat="43.54336" lon="6.46673">
        <ele>223</ele>
        <time>2026-03-11T13:08:01Z</time>
      </trkpt>
      <trkpt lat="43.54338" lon="6.46675">
        <ele>223</ele>
        <time>2026-03-11T13:08:03Z</time>
      </trkpt>
      <trkpt lat="43.5434" lon="6.46678">
        <ele>223</ele>
        <time>2026-03-11T13:08:07Z</time>
      </trkpt>
      <trkpt lat="43.54342" lon="6.46681">
        <ele>223</ele>
        <time>2026-03-11T13:08:11Z</time>
      </trkpt>
      <trkpt lat="43.54344" lon="6.46683">
        <ele>223</ele>
        <time>2026-03-11T13:08:15Z</time>
      </trkpt>
      <trkpt lat="43.54348" lon="6.46686">
        <ele>223</ele>
        <time>2026-03-11T13:08:19Z</time>
      </trkpt>
      <trkpt lat="43.5435" lon="6.46687">
        <ele>223</ele>
        <time>2026-03-11T13:08:21Z</time>
      </trkpt>
      <trkpt lat="43.54352" lon="6.46689">
        <ele>223</ele>
        <time>2026-03-11T13:08:25Z</time>
      </trkpt>
      <trkpt lat="43.54354" lon="6.46693">
        <ele>223</ele>
        <time>2026-03-11T13:08:27Z</time>
      </trkpt>
      <trkpt lat="43.54357" lon="6.467">
        <ele>223</ele>
        <time>2026-03-11T13:08:31Z</time>
      </trkpt>
      <trkpt lat="43.5436" lon="6.46707">
        <ele>224</ele>
        <time>2026-03-11T13:08:37Z</time>
      </trkpt>
      <trkpt lat="43.54361" lon="6.4672">
        <ele>226</ele>
        <time>2026-03-11T13:08:49Z</time>
      </trkpt>
      <trkpt lat="43.54366" lon="6.46731">
        <ele>228</ele>
        <time>2026-03-11T13:08:59Z</time>
      </trkpt>
      <trkpt lat="43.54367" lon="6.46735">
        <ele>228</ele>
        <time>2026-03-11T13:09:01Z</time>
      </trkpt>
      <trkpt lat="43.54369" lon="6.46737">
        <ele>229</ele>
        <time>2026-03-11T13:09:05Z</time>
      </trkpt>
      <trkpt lat="43.54376" lon="6.46737">
        <ele>230</ele>
        <time>2026-03-11T13:09:15Z</time>
      </trkpt>
      <trkpt lat="43.54379" lon="6.46739">
        <ele>231</ele>
        <time>2026-03-11T13:09:21Z</time>
      </trkpt>
      <trkpt lat="43.54382" lon="6.46743">
        <ele>231</ele>
        <time>2026-03-11T13:09:25Z</time>
      </trkpt>
      <trkpt lat="43.54383" lon="6.46747">
        <ele>231</ele>
        <time>2026-03-11T13:09:29Z</time>
      </trkpt>
      <trkpt lat="43.54385" lon="6.46749">
        <ele>231</ele>
        <time>2026-03-11T13:09:31Z</time>
      </trkpt>
      <trkpt lat="43.54389" lon="6.46751">
        <ele>231</ele>
        <time>2026-03-11T13:09:35Z</time>
      </trkpt>
      <trkpt lat="43.5439" lon="6.46754">
        <ele>232</ele>
        <time>2026-03-11T13:09:37Z</time>
      </trkpt>
      <trkpt lat="43.54392" lon="6.46755">
        <ele>232</ele>
        <time>2026-03-11T13:09:39Z</time>
      </trkpt>
      <trkpt lat="43.54393" lon="6.46759">
        <ele>232</ele>
        <time>2026-03-11T13:09:43Z</time>
      </trkpt>
      <trkpt lat="43.54395" lon="6.46761">
        <ele>232</ele>
        <time>2026-03-11T13:09:45Z</time>
      </trkpt>
      <trkpt lat="43.54397" lon="6.46763">
        <ele>232</ele>
        <time>2026-03-11T13:09:47Z</time>
      </trkpt>
      <trkpt lat="43.544" lon="6.4677">
        <ele>233</ele>
        <time>2026-03-11T13:09:53Z</time>
      </trkpt>
      <trkpt lat="43.54402" lon="6.46774">
        <ele>233</ele>
        <time>2026-03-11T13:09:57Z</time>
      </trkpt>
      <trkpt lat="43.54404" lon="6.46776">
        <ele>233</ele>
        <time>2026-03-11T13:10:01Z</time>
      </trkpt>
      <trkpt lat="43.54406" lon="6.46778">
        <ele>233</ele>
        <time>2026-03-11T13:10:03Z</time>
      </trkpt>
      <trkpt lat="43.54409" lon="6.46781">
        <ele>233</ele>
        <time>2026-03-11T13:10:07Z</time>
      </trkpt>
      <trkpt lat="43.54411" lon="6.46782">
        <ele>232</ele>
        <time>2026-03-11T13:10:09Z</time>
      </trkpt>
      <trkpt lat="43.54414" lon="6.46785">
        <ele>232</ele>
        <time>2026-03-11T13:10:13Z</time>
      </trkpt>
      <trkpt lat="43.54418" lon="6.46789">
        <ele>233</ele>
        <time>2026-03-11T13:10:17Z</time>
      </trkpt>
      <trkpt lat="43.5442" lon="6.4679">
        <ele>233</ele>
        <time>2026-03-11T13:10:19Z</time>
      </trkpt>
      <trkpt lat="43.54422" lon="6.46794">
        <ele>233</ele>
        <time>2026-03-11T13:10:23Z</time>
      </trkpt>
      <trkpt lat="43.54419" lon="6.468">
        <ele>234</ele>
        <time>2026-03-11T13:10:29Z</time>
      </trkpt>
      <trkpt lat="43.54419" lon="6.46803">
        <ele>234</ele>
        <time>2026-03-11T13:10:33Z</time>
      </trkpt>
      <trkpt lat="43.54421" lon="6.46806">
        <ele>234</ele>
        <time>2026-03-11T13:10:37Z</time>
      </trkpt>
      <trkpt lat="43.5443" lon="6.46817">
        <ele>235</ele>
        <time>2026-03-11T13:10:53Z</time>
      </trkpt>
      <trkpt lat="43.54431" lon="6.46819">
        <ele>235</ele>
        <time>2026-03-11T13:10:57Z</time>
      </trkpt>
      <trkpt lat="43.5444" lon="6.46824">
        <ele>237</ele>
        <time>2026-03-11T13:11:07Z</time>
      </trkpt>
      <trkpt lat="43.54444" lon="6.46829">
        <ele>237</ele>
        <time>2026-03-11T13:11:15Z</time>
      </trkpt>
      <trkpt lat="43.54446" lon="6.46832">
        <ele>237</ele>
        <time>2026-03-11T13:11:17Z</time>
      </trkpt>
      <trkpt lat="43.54448" lon="6.46834">
        <ele>237</ele>
        <time>2026-03-11T13:11:19Z</time>
      </trkpt>
      <trkpt lat="43.54453" lon="6.46836">
        <ele>238</ele>
        <time>2026-03-11T13:11:27Z</time>
      </trkpt>
      <trkpt lat="43.54456" lon="6.46836">
        <ele>239</ele>
        <time>2026-03-11T13:11:31Z</time>
      </trkpt>
      <trkpt lat="43.54458" lon="6.46835">
        <ele>239</ele>
        <time>2026-03-11T13:11:33Z</time>
      </trkpt>
      <trkpt lat="43.5446" lon="6.46835">
        <ele>239</ele>
        <time>2026-03-11T13:11:35Z</time>
      </trkpt>
      <trkpt lat="43.54467" lon="6.4684">
        <ele>241</ele>
        <time>2026-03-11T13:11:47Z</time>
      </trkpt>
      <trkpt lat="43.54477" lon="6.46852">
        <ele>243</ele>
        <time>2026-03-11T13:12:05Z</time>
      </trkpt>
      <trkpt lat="43.54481" lon="6.46858">
        <ele>244</ele>
        <time>2026-03-11T13:12:13Z</time>
      </trkpt>
      <trkpt lat="43.54486" lon="6.46862">
        <ele>245</ele>
        <time>2026-03-11T13:12:21Z</time>
      </trkpt>
      <trkpt lat="43.54489" lon="6.46863">
        <ele>245</ele>
        <time>2026-03-11T13:12:23Z</time>
      </trkpt>
      <trkpt lat="43.54491" lon="6.46864">
        <ele>245</ele>
        <time>2026-03-11T13:12:25Z</time>
      </trkpt>
      <trkpt lat="43.54497" lon="6.46868">
        <ele>244</ele>
        <time>2026-03-11T13:12:35Z</time>
      </trkpt>
      <trkpt lat="43.54502" lon="6.46876">
        <ele>244</ele>
        <time>2026-03-11T13:12:45Z</time>
      </trkpt>
      <trkpt lat="43.54505" lon="6.46878">
        <ele>244</ele>
        <time>2026-03-11T13:12:49Z</time>
      </trkpt>
      <trkpt lat="43.54506" lon="6.4688">
        <ele>244</ele>
        <time>2026-03-11T13:12:55Z</time>
      </trkpt>
      <trkpt lat="43.54509" lon="6.46882">
        <ele>243</ele>
        <time>2026-03-11T13:12:59Z</time>
      </trkpt>
      <trkpt lat="43.54513" lon="6.46878">
        <ele>244</ele>
        <time>2026-03-11T13:13:03Z</time>
      </trkpt>
      <trkpt lat="43.54513" lon="6.46875">
        <ele>245</ele>
        <time>2026-03-11T13:13:09Z</time>
      </trkpt>
      <trkpt lat="43.5451" lon="6.46871">
        <ele>247</ele>
        <time>2026-03-11T13:13:19Z</time>
      </trkpt>
      <trkpt lat="43.54511" lon="6.46867">
        <ele>248</ele>
        <time>2026-03-11T13:13:23Z</time>
      </trkpt>
      <trkpt lat="43.54509" lon="6.46875">
        <ele>248</ele>
        <time>2026-03-11T13:13:39Z</time>
      </trkpt>
      <trkpt lat="43.54512" lon="6.46871">
        <ele>249</ele>
        <time>2026-03-11T13:14:01Z</time>
      </trkpt>
      <trkpt lat="43.54517" lon="6.46868">
        <ele>249</ele>
        <time>2026-03-11T13:14:21Z</time>
      </trkpt>
      <trkpt lat="43.54513" lon="6.46866">
        <ele>248</ele>
        <time>2026-03-11T13:14:57Z</time>
      </trkpt>
      <trkpt lat="43.54516" lon="6.46865">
        <ele>248</ele>
        <time>2026-03-11T13:15:03Z</time>
      </trkpt>
      <trkpt lat="43.54526" lon="6.46865">
        <ele>250</ele>
        <time>2026-03-11T13:15:21Z</time>
      </trkpt>
      <trkpt lat="43.54534" lon="6.46872">
        <ele>251</ele>
        <time>2026-03-11T13:15:37Z</time>
      </trkpt>
      <trkpt lat="43.54537" lon="6.46868">
        <ele>252</ele>
        <time>2026-03-11T13:15:45Z</time>
      </trkpt>
      <trkpt lat="43.54539" lon="6.46867">
        <ele>253</ele>
        <time>2026-03-11T13:15:51Z</time>
      </trkpt>
      <trkpt lat="43.5454" lon="6.46864">
        <ele>254</ele>
        <time>2026-03-11T13:15:57Z</time>
      </trkpt>
      <trkpt lat="43.54541" lon="6.46862">
        <ele>254</ele>
        <time>2026-03-11T13:16:01Z</time>
      </trkpt>
      <trkpt lat="43.54544" lon="6.46856">
        <ele>256</ele>
        <time>2026-03-11T13:16:11Z</time>
      </trkpt>
      <trkpt lat="43.54545" lon="6.46854">
        <ele>256</ele>
        <time>2026-03-11T13:16:15Z</time>
      </trkpt>
      <trkpt lat="43.54547" lon="6.46853">
        <ele>257</ele>
        <time>2026-03-11T13:16:21Z</time>
      </trkpt>
      <trkpt lat="43.5455" lon="6.46853">
        <ele>258</ele>
        <time>2026-03-11T13:16:25Z</time>
      </trkpt>
      <trkpt lat="43.54554" lon="6.46851">
        <ele>258</ele>
        <time>2026-03-11T13:16:29Z</time>
      </trkpt>
      <trkpt lat="43.54557" lon="6.46846">
        <ele>259</ele>
        <time>2026-03-11T13:16:33Z</time>
      </trkpt>
      <trkpt lat="43.54563" lon="6.46845">
        <ele>261</ele>
        <time>2026-03-11T13:16:41Z</time>
      </trkpt>
      <trkpt lat="43.54572" lon="6.46846">
        <ele>262</ele>
        <time>2026-03-11T13:16:51Z</time>
      </trkpt>
      <trkpt lat="43.54577" lon="6.46849">
        <ele>263</ele>
        <time>2026-03-11T13:16:59Z</time>
      </trkpt>
      <trkpt lat="43.54579" lon="6.4685">
        <ele>263</ele>
        <time>2026-03-11T13:17:01Z</time>
      </trkpt>
      <trkpt lat="43.54584" lon="6.46851">
        <ele>264</ele>
        <time>2026-03-11T13:17:07Z</time>
      </trkpt>
      <trkpt lat="43.5459" lon="6.46849">
        <ele>265</ele>
        <time>2026-03-11T13:17:17Z</time>
      </trkpt>
      <trkpt lat="43.54592" lon="6.46849">
        <ele>266</ele>
        <time>2026-03-11T13:17:21Z</time>
      </trkpt>
      <trkpt lat="43.54594" lon="6.46848">
        <ele>267</ele>
        <time>2026-03-11T13:17:25Z</time>
      </trkpt>
      <trkpt lat="43.54596" lon="6.46845">
        <ele>268</ele>
        <time>2026-03-11T13:17:29Z</time>
      </trkpt>
      <trkpt lat="43.546" lon="6.46836">
        <ele>270</ele>
        <time>2026-03-11T13:17:37Z</time>
      </trkpt>
      <trkpt lat="43.54607" lon="6.46827">
        <ele>271</ele>
        <time>2026-03-11T13:17:51Z</time>
      </trkpt>
      <trkpt lat="43.54613" lon="6.46827">
        <ele>272</ele>
        <time>2026-03-11T13:17:57Z</time>
      </trkpt>
      <trkpt lat="43.54614" lon="6.46827">
        <ele>273</ele>
        <time>2026-03-11T13:17:59Z</time>
      </trkpt>
      <trkpt lat="43.54619" lon="6.46826">
        <ele>274</ele>
        <time>2026-03-11T13:18:05Z</time>
      </trkpt>
      <trkpt lat="43.54627" lon="6.4683">
        <ele>275</ele>
        <time>2026-03-11T13:18:17Z</time>
      </trkpt>
      <trkpt lat="43.54634" lon="6.46831">
        <ele>276</ele>
        <time>2026-03-11T13:18:27Z</time>
      </trkpt>
      <trkpt lat="43.54637" lon="6.46832">
        <ele>276</ele>
        <time>2026-03-11T13:18:31Z</time>
      </trkpt>
      <trkpt lat="43.54639" lon="6.46832">
        <ele>277</ele>
        <time>2026-03-11T13:18:35Z</time>
      </trkpt>
      <trkpt lat="43.54644" lon="6.46832">
        <ele>278</ele>
        <time>2026-03-11T13:18:41Z</time>
      </trkpt>
      <trkpt lat="43.54647" lon="6.46833">
        <ele>278</ele>
        <time>2026-03-11T13:18:45Z</time>
      </trkpt>
      <trkpt lat="43.5465" lon="6.46833">
        <ele>279</ele>
        <time>2026-03-11T13:18:49Z</time>
      </trkpt>
      <trkpt lat="43.54654" lon="6.46831">
        <ele>281</ele>
        <time>2026-03-11T13:18:57Z</time>
      </trkpt>
      <trkpt lat="43.54656" lon="6.46828">
        <ele>282</ele>
        <time>2026-03-11T13:19:01Z</time>
      </trkpt>
      <trkpt lat="43.54662" lon="6.46822">
        <ele>285</ele>
        <time>2026-03-11T13:19:11Z</time>
      </trkpt>
      <trkpt lat="43.54667" lon="6.46822">
        <ele>286</ele>
        <time>2026-03-11T13:19:17Z</time>
      </trkpt>
      <trkpt lat="43.54669" lon="6.46823">
        <ele>287</ele>
        <time>2026-03-11T13:19:21Z</time>
      </trkpt>
      <trkpt lat="43.54673" lon="6.46827">
        <ele>289</ele>
        <time>2026-03-11T13:19:27Z</time>
      </trkpt>
      <trkpt lat="43.54675" lon="6.46828">
        <ele>289</ele>
        <time>2026-03-11T13:19:29Z</time>
      </trkpt>
      <trkpt lat="43.54678" lon="6.46829">
        <ele>289</ele>
        <time>2026-03-11T13:19:33Z</time>
      </trkpt>
      <trkpt lat="43.5468" lon="6.46831">
        <ele>290</ele>
        <time>2026-03-11T13:19:37Z</time>
      </trkpt>
      <trkpt lat="43.54683" lon="6.46832">
        <ele>290</ele>
        <time>2026-03-11T13:19:43Z</time>
      </trkpt>
      <trkpt lat="43.54696" lon="6.46836">
        <ele>290</ele>
        <time>2026-03-11T13:20:13Z</time>
      </trkpt>
      <trkpt lat="43.54698" lon="6.46837">
        <ele>290</ele>
        <time>2026-03-11T13:20:17Z</time>
      </trkpt>
      <trkpt lat="43.54701" lon="6.46836">
        <ele>290</ele>
        <time>2026-03-11T13:20:19Z</time>
      </trkpt>
      <trkpt lat="43.54703" lon="6.46837">
        <ele>290</ele>
        <time>2026-03-11T13:20:23Z</time>
      </trkpt>
      <trkpt lat="43.54706" lon="6.46835">
        <ele>291</ele>
        <time>2026-03-11T13:20:27Z</time>
      </trkpt>
      <trkpt lat="43.54709" lon="6.46832">
        <ele>293</ele>
        <time>2026-03-11T13:20:31Z</time>
      </trkpt>
      <trkpt lat="43.54707" lon="6.4683">
        <ele>294</ele>
        <time>2026-03-11T13:20:35Z</time>
      </trkpt>
      <trkpt lat="43.54711" lon="6.46819">
        <ele>297</ele>
        <time>2026-03-11T13:20:51Z</time>
      </trkpt>
      <trkpt lat="43.54712" lon="6.46816">
        <ele>298</ele>
        <time>2026-03-11T13:20:55Z</time>
      </trkpt>
      <trkpt lat="43.54713" lon="6.46813">
        <ele>299</ele>
        <time>2026-03-11T13:21:05Z</time>
      </trkpt>
      <trkpt lat="43.54714" lon="6.46809">
        <ele>299</ele>
        <time>2026-03-11T13:21:15Z</time>
      </trkpt>
      <trkpt lat="43.54714" lon="6.4681">
        <ele>300</ele>
        <time>2026-03-11T13:21:33Z</time>
      </trkpt>
      <trkpt lat="43.54715" lon="6.4681">
        <ele>301</ele>
        <time>2026-03-11T13:22:29Z</time>
      </trkpt>
      <trkpt lat="43.54714" lon="6.46813">
        <ele>301</ele>
        <time>2026-03-11T13:22:35Z</time>
      </trkpt>
      <trkpt lat="43.54713" lon="6.46815">
        <ele>304</ele>
        <time>2026-03-11T13:22:41Z</time>
      </trkpt>
      <trkpt lat="43.54714" lon="6.46819">
        <ele>305</ele>
        <time>2026-03-11T13:22:45Z</time>
      </trkpt>
      <trkpt lat="43.54716" lon="6.46817">
        <ele>306</ele>
        <time>2026-03-11T13:22:51Z</time>
      </trkpt>
      <trkpt lat="43.54714" lon="6.46817">
        <ele>306</ele>
        <time>2026-03-11T13:22:55Z</time>
      </trkpt>
      <trkpt lat="43.54713" lon="6.46814">
        <ele>307</ele>
        <time>2026-03-11T13:22:59Z</time>
      </trkpt>
      <trkpt lat="43.54714" lon="6.4681">
        <ele>308</ele>
        <time>2026-03-11T13:23:05Z</time>
      </trkpt>
      <trkpt lat="43.54715" lon="6.46814">
        <ele>304</ele>
        <time>2026-03-11T13:23:43Z</time>
      </trkpt>
      <trkpt lat="43.54714" lon="6.46816">
        <ele>304</ele>
        <time>2026-03-11T13:23:47Z</time>
      </trkpt>
      <trkpt lat="43.54712" lon="6.46815">
        <ele>305</ele>
        <time>2026-03-11T13:23:55Z</time>
      </trkpt>
      <trkpt lat="43.54713" lon="6.46813">
        <ele>304</ele>
        <time>2026-03-11T13:24:31Z</time>
      </trkpt>
      <trkpt lat="43.54715" lon="6.46811">
        <ele>303</ele>
        <time>2026-03-11T13:24:41Z</time>
      </trkpt>
      <trkpt lat="43.54716" lon="6.46813">
        <ele>305</ele>
        <time>2026-03-11T13:25:59Z</time>
      </trkpt>
      <trkpt lat="43.54715" lon="6.46812">
        <ele>305</ele>
        <time>2026-03-11T13:26:33Z</time>
      </trkpt>
      <trkpt lat="43.54715" lon="6.46812">
        <ele>305</ele>
        <time>2026-03-11T13:26:59Z</time>
      </trkpt>
      <trkpt lat="43.54718" lon="6.46804">
        <ele>306</ele>
        <time>2026-03-11T13:27:11Z</time>
      </trkpt>
      <trkpt lat="43.5472" lon="6.46801">
        <ele>307</ele>
        <time>2026-03-11T13:27:13Z</time>
      </trkpt>
      <trkpt lat="43.54722" lon="6.46796">
        <ele>307</ele>
        <time>2026-03-11T13:27:17Z</time>
      </trkpt>
      <trkpt lat="43.54723" lon="6.46794">
        <ele>307</ele>
        <time>2026-03-11T13:27:19Z</time>
      </trkpt>
      <trkpt lat="43.54725" lon="6.46793">
        <ele>306</ele>
        <time>2026-03-11T13:27:21Z</time>
      </trkpt>
      <trkpt lat="43.54728" lon="6.46796">
        <ele>307</ele>
        <time>2026-03-11T13:27:25Z</time>
      </trkpt>
      <trkpt lat="43.5473" lon="6.468">
        <ele>306</ele>
        <time>2026-03-11T13:27:29Z</time>
      </trkpt>
      <trkpt lat="43.5473" lon="6.46804">
        <ele>306</ele>
        <time>2026-03-11T13:27:31Z</time>
      </trkpt>
      <trkpt lat="43.54729" lon="6.46817">
        <ele>307</ele>
        <time>2026-03-11T13:27:39Z</time>
      </trkpt>
      <trkpt lat="43.54728" lon="6.46822">
        <ele>307</ele>
        <time>2026-03-11T13:27:43Z</time>
      </trkpt>
      <trkpt lat="43.54728" lon="6.46825">
        <ele>307</ele>
        <time>2026-03-11T13:27:45Z</time>
      </trkpt>
      <trkpt lat="43.54729" lon="6.46828">
        <ele>307</ele>
        <time>2026-03-11T13:27:49Z</time>
      </trkpt>
      <trkpt lat="43.54728" lon="6.46831">
        <ele>307</ele>
        <time>2026-03-11T13:27:51Z</time>
      </trkpt>
      <trkpt lat="43.54727" lon="6.46834">
        <ele>307</ele>
        <time>2026-03-11T13:27:53Z</time>
      </trkpt>
      <trkpt lat="43.54728" lon="6.46852">
        <ele>308</ele>
        <time>2026-03-11T13:28:09Z</time>
      </trkpt>
      <trkpt lat="43.5473" lon="6.46859">
        <ele>308</ele>
        <time>2026-03-11T13:28:15Z</time>
      </trkpt>
      <trkpt lat="43.54729" lon="6.46863">
        <ele>309</ele>
        <time>2026-03-11T13:28:19Z</time>
      </trkpt>
      <trkpt lat="43.54731" lon="6.46867">
        <ele>310</ele>
        <time>2026-03-11T13:28:23Z</time>
      </trkpt>
      <trkpt lat="43.54734" lon="6.46867">
        <ele>311</ele>
        <time>2026-03-11T13:28:27Z</time>
      </trkpt>
      <trkpt lat="43.54737" lon="6.46864">
        <ele>313</ele>
        <time>2026-03-11T13:28:31Z</time>
      </trkpt>
      <trkpt lat="43.54741" lon="6.46855">
        <ele>315</ele>
        <time>2026-03-11T13:28:39Z</time>
      </trkpt>
      <trkpt lat="43.54741" lon="6.46845">
        <ele>317</ele>
        <time>2026-03-11T13:28:45Z</time>
      </trkpt>
      <trkpt lat="43.54741" lon="6.46842">
        <ele>318</ele>
        <time>2026-03-11T13:28:47Z</time>
      </trkpt>
      <trkpt lat="43.54744" lon="6.46829">
        <ele>321</ele>
        <time>2026-03-11T13:28:57Z</time>
      </trkpt>
      <trkpt lat="43.54745" lon="6.46826">
        <ele>321</ele>
        <time>2026-03-11T13:28:59Z</time>
      </trkpt>
      <trkpt lat="43.54755" lon="6.46806">
        <ele>324</ele>
        <time>2026-03-11T13:29:13Z</time>
      </trkpt>
      <trkpt lat="43.54756" lon="6.46803">
        <ele>324</ele>
        <time>2026-03-11T13:29:15Z</time>
      </trkpt>
      <trkpt lat="43.54758" lon="6.468">
        <ele>325</ele>
        <time>2026-03-11T13:29:17Z</time>
      </trkpt>
      <trkpt lat="43.54758" lon="6.46793">
        <ele>326</ele>
        <time>2026-03-11T13:29:21Z</time>
      </trkpt>
      <trkpt lat="43.54759" lon="6.46791">
        <ele>326</ele>
        <time>2026-03-11T13:29:23Z</time>
      </trkpt>
      <trkpt lat="43.54761" lon="6.46788">
        <ele>327</ele>
        <time>2026-03-11T13:29:25Z</time>
      </trkpt>
      <trkpt lat="43.54762" lon="6.46785">
        <ele>327</ele>
        <time>2026-03-11T13:29:27Z</time>
      </trkpt>
      <trkpt lat="43.54762" lon="6.46782">
        <ele>328</ele>
        <time>2026-03-11T13:29:29Z</time>
      </trkpt>
      <trkpt lat="43.54764" lon="6.46779">
        <ele>328</ele>
        <time>2026-03-11T13:29:31Z</time>
      </trkpt>
      <trkpt lat="43.54765" lon="6.46775">
        <ele>328</ele>
        <time>2026-03-11T13:29:33Z</time>
      </trkpt>
      <trkpt lat="43.54769" lon="6.46763">
        <ele>331</ele>
        <time>2026-03-11T13:29:41Z</time>
      </trkpt>
      <trkpt lat="43.54769" lon="6.4676">
        <ele>331</ele>
        <time>2026-03-11T13:29:43Z</time>
      </trkpt>
      <trkpt lat="43.54768" lon="6.46757">
        <ele>332</ele>
        <time>2026-03-11T13:29:45Z</time>
      </trkpt>
      <trkpt lat="43.5477" lon="6.46751">
        <ele>332</ele>
        <time>2026-03-11T13:29:49Z</time>
      </trkpt>
      <trkpt lat="43.5477" lon="6.46747">
        <ele>333</ele>
        <time>2026-03-11T13:29:51Z</time>
      </trkpt>
      <trkpt lat="43.54769" lon="6.46742">
        <ele>334</ele>
        <time>2026-03-11T13:29:55Z</time>
      </trkpt>
      <trkpt lat="43.5477" lon="6.46738">
        <ele>335</ele>
        <time>2026-03-11T13:29:57Z</time>
      </trkpt>
      <trkpt lat="43.54771" lon="6.46735">
        <ele>335</ele>
        <time>2026-03-11T13:29:59Z</time>
      </trkpt>
      <trkpt lat="43.54773" lon="6.46729">
        <ele>336</ele>
        <time>2026-03-11T13:30:05Z</time>
      </trkpt>
      <trkpt lat="43.54781" lon="6.46713">
        <ele>336</ele>
        <time>2026-03-11T13:30:15Z</time>
      </trkpt>
      <trkpt lat="43.54786" lon="6.46701">
        <ele>334</ele>
        <time>2026-03-11T13:30:23Z</time>
      </trkpt>
      <trkpt lat="43.54793" lon="6.46688">
        <ele>335</ele>
        <time>2026-03-11T13:30:33Z</time>
      </trkpt>
      <trkpt lat="43.54795" lon="6.46686">
        <ele>335</ele>
        <time>2026-03-11T13:30:35Z</time>
      </trkpt>
      <trkpt lat="43.54797" lon="6.46684">
        <ele>335</ele>
        <time>2026-03-11T13:30:37Z</time>
      </trkpt>
      <trkpt lat="43.54801" lon="6.4668">
        <ele>335</ele>
        <time>2026-03-11T13:30:41Z</time>
      </trkpt>
      <trkpt lat="43.54803" lon="6.46678">
        <ele>335</ele>
        <time>2026-03-11T13:30:43Z</time>
      </trkpt>
      <trkpt lat="43.54805" lon="6.46676">
        <ele>335</ele>
        <time>2026-03-11T13:30:45Z</time>
      </trkpt>
      <trkpt lat="43.54807" lon="6.46673">
        <ele>334</ele>
        <time>2026-03-11T13:30:47Z</time>
      </trkpt>
      <trkpt lat="43.54817" lon="6.46669">
        <ele>335</ele>
        <time>2026-03-11T13:30:57Z</time>
      </trkpt>
      <trkpt lat="43.54822" lon="6.4667">
        <ele>336</ele>
        <time>2026-03-11T13:31:01Z</time>
      </trkpt>
      <trkpt lat="43.54824" lon="6.46671">
        <ele>336</ele>
        <time>2026-03-11T13:31:03Z</time>
      </trkpt>
      <trkpt lat="43.54829" lon="6.46671">
        <ele>337</ele>
        <time>2026-03-11T13:31:07Z</time>
      </trkpt>
      <trkpt lat="43.54836" lon="6.46674">
        <ele>338</ele>
        <time>2026-03-11T13:31:13Z</time>
      </trkpt>
      <trkpt lat="43.5484" lon="6.46672">
        <ele>338</ele>
        <time>2026-03-11T13:31:17Z</time>
      </trkpt>
      <trkpt lat="43.54839" lon="6.46675">
        <ele>340</ele>
        <time>2026-03-11T13:31:31Z</time>
      </trkpt>
      <trkpt lat="43.54841" lon="6.46678">
        <ele>342</ele>
        <time>2026-03-11T13:32:07Z</time>
      </trkpt>
      <trkpt lat="43.54839" lon="6.46677">
        <ele>344</ele>
        <time>2026-03-11T13:32:37Z</time>
      </trkpt>
      <trkpt lat="43.54841" lon="6.46672">
        <ele>344</ele>
        <time>2026-03-11T13:33:01Z</time>
      </trkpt>
      <trkpt lat="43.54843" lon="6.46671">
        <ele>345</ele>
        <time>2026-03-11T13:33:03Z</time>
      </trkpt>
      <trkpt lat="43.54845" lon="6.4667">
        <ele>345</ele>
        <time>2026-03-11T13:33:05Z</time>
      </trkpt>
      <trkpt lat="43.54847" lon="6.46668">
        <ele>345</ele>
        <time>2026-03-11T13:33:07Z</time>
      </trkpt>
      <trkpt lat="43.54852" lon="6.46664">
        <ele>344</ele>
        <time>2026-03-11T13:33:11Z</time>
      </trkpt>
      <trkpt lat="43.54854" lon="6.46662">
        <ele>344</ele>
        <time>2026-03-11T13:33:13Z</time>
      </trkpt>
      <trkpt lat="43.54856" lon="6.46665">
        <ele>344</ele>
        <time>2026-03-11T13:33:15Z</time>
      </trkpt>
      <trkpt lat="43.54859" lon="6.46661">
        <ele>343</ele>
        <time>2026-03-11T13:33:19Z</time>
      </trkpt>
      <trkpt lat="43.54862" lon="6.46659">
        <ele>343</ele>
        <time>2026-03-11T13:33:21Z</time>
      </trkpt>
      <trkpt lat="43.54865" lon="6.46658">
        <ele>343</ele>
        <time>2026-03-11T13:33:23Z</time>
      </trkpt>
      <trkpt lat="43.54868" lon="6.46658">
        <ele>343</ele>
        <time>2026-03-11T13:33:25Z</time>
      </trkpt>
      <trkpt lat="43.54873" lon="6.46654">
        <ele>344</ele>
        <time>2026-03-11T13:33:29Z</time>
      </trkpt>
      <trkpt lat="43.54875" lon="6.46654">
        <ele>344</ele>
        <time>2026-03-11T13:33:31Z</time>
      </trkpt>
      <trkpt lat="43.54878" lon="6.46651">
        <ele>344</ele>
        <time>2026-03-11T13:33:35Z</time>
      </trkpt>
      <trkpt lat="43.54892" lon="6.46639">
        <ele>346</ele>
        <time>2026-03-11T13:33:47Z</time>
      </trkpt>
      <trkpt lat="43.54894" lon="6.46637">
        <ele>346</ele>
        <time>2026-03-11T13:33:49Z</time>
      </trkpt>
      <trkpt lat="43.54896" lon="6.46639">
        <ele>347</ele>
        <time>2026-03-11T13:33:51Z</time>
      </trkpt>
      <trkpt lat="43.54899" lon="6.46636">
        <ele>347</ele>
        <time>2026-03-11T13:33:55Z</time>
      </trkpt>
      <trkpt lat="43.54904" lon="6.46626">
        <ele>347</ele>
        <time>2026-03-11T13:34:03Z</time>
      </trkpt>
      <trkpt lat="43.54905" lon="6.46623">
        <ele>348</ele>
        <time>2026-03-11T13:34:05Z</time>
      </trkpt>
      <trkpt lat="43.54907" lon="6.4662">
        <ele>348</ele>
        <time>2026-03-11T13:34:07Z</time>
      </trkpt>
      <trkpt lat="43.54908" lon="6.46617">
        <ele>348</ele>
        <time>2026-03-11T13:34:09Z</time>
      </trkpt>
      <trkpt lat="43.54915" lon="6.46601">
        <ele>348</ele>
        <time>2026-03-11T13:34:19Z</time>
      </trkpt>
      <trkpt lat="43.54916" lon="6.46599">
        <ele>348</ele>
        <time>2026-03-11T13:34:21Z</time>
      </trkpt>
      <trkpt lat="43.54916" lon="6.46595">
        <ele>348</ele>
        <time>2026-03-11T13:34:23Z</time>
      </trkpt>
      <trkpt lat="43.54916" lon="6.46588">
        <ele>349</ele>
        <time>2026-03-11T13:34:25Z</time>
      </trkpt>
      <trkpt lat="43.54916" lon="6.46583">
        <ele>349</ele>
        <time>2026-03-11T13:34:29Z</time>
      </trkpt>
      <trkpt lat="43.54917" lon="6.4658">
        <ele>351</ele>
        <time>2026-03-11T13:34:31Z</time>
      </trkpt>
      <trkpt lat="43.54917" lon="6.46577">
        <ele>351</ele>
        <time>2026-03-11T13:34:33Z</time>
      </trkpt>
      <trkpt lat="43.54919" lon="6.46567">
        <ele>353</ele>
        <time>2026-03-11T13:34:39Z</time>
      </trkpt>
      <trkpt lat="43.5492" lon="6.46564">
        <ele>353</ele>
        <time>2026-03-11T13:34:41Z</time>
      </trkpt>
      <trkpt lat="43.54921" lon="6.46559">
        <ele>353</ele>
        <time>2026-03-11T13:34:43Z</time>
      </trkpt>
      <trkpt lat="43.54922" lon="6.46555">
        <ele>353</ele>
        <time>2026-03-11T13:34:45Z</time>
      </trkpt>
      <trkpt lat="43.54922" lon="6.46552">
        <ele>353</ele>
        <time>2026-03-11T13:34:47Z</time>
      </trkpt>
      <trkpt lat="43.54922" lon="6.46548">
        <ele>353</ele>
        <time>2026-03-11T13:34:51Z</time>
      </trkpt>
      <trkpt lat="43.54923" lon="6.46545">
        <ele>352</ele>
        <time>2026-03-11T13:34:53Z</time>
      </trkpt>
      <trkpt lat="43.54924" lon="6.46537">
        <ele>351</ele>
        <time>2026-03-11T13:34:59Z</time>
      </trkpt>
      <trkpt lat="43.54924" lon="6.46533">
        <ele>351</ele>
        <time>2026-03-11T13:35:01Z</time>
      </trkpt>
      <trkpt lat="43.54924" lon="6.4653">
        <ele>351</ele>
        <time>2026-03-11T13:35:03Z</time>
      </trkpt>
      <trkpt lat="43.54926" lon="6.46527">
        <ele>350</ele>
        <time>2026-03-11T13:35:05Z</time>
      </trkpt>
      <trkpt lat="43.54926" lon="6.46523">
        <ele>350</ele>
        <time>2026-03-11T13:35:07Z</time>
      </trkpt>
      <trkpt lat="43.54926" lon="6.46521">
        <ele>349</ele>
        <time>2026-03-11T13:35:09Z</time>
      </trkpt>
      <trkpt lat="43.54926" lon="6.46517">
        <ele>348</ele>
        <time>2026-03-11T13:35:11Z</time>
      </trkpt>
      <trkpt lat="43.54927" lon="6.46513">
        <ele>347</ele>
        <time>2026-03-11T13:35:13Z</time>
      </trkpt>
      <trkpt lat="43.54926" lon="6.46507">
        <ele>345</ele>
        <time>2026-03-11T13:35:17Z</time>
      </trkpt>
      <trkpt lat="43.54926" lon="6.46502">
        <ele>344</ele>
        <time>2026-03-11T13:35:21Z</time>
      </trkpt>
      <trkpt lat="43.54926" lon="6.465">
        <ele>343</ele>
        <time>2026-03-11T13:35:23Z</time>
      </trkpt>
      <trkpt lat="43.54927" lon="6.46497">
        <ele>342</ele>
        <time>2026-03-11T13:35:25Z</time>
      </trkpt>
      <trkpt lat="43.54931" lon="6.46488">
        <ele>340</ele>
        <time>2026-03-11T13:35:31Z</time>
      </trkpt>
      <trkpt lat="43.54932" lon="6.46486">
        <ele>340</ele>
        <time>2026-03-11T13:35:33Z</time>
      </trkpt>
      <trkpt lat="43.5494" lon="6.46477">
        <ele>336</ele>
        <time>2026-03-11T13:35:41Z</time>
      </trkpt>
      <trkpt lat="43.54942" lon="6.46474">
        <ele>335</ele>
        <time>2026-03-11T13:35:43Z</time>
      </trkpt>
      <trkpt lat="43.54944" lon="6.4647">
        <ele>334</ele>
        <time>2026-03-11T13:35:45Z</time>
      </trkpt>
      <trkpt lat="43.54946" lon="6.4647">
        <ele>333</ele>
        <time>2026-03-11T13:35:47Z</time>
      </trkpt>
      <trkpt lat="43.54949" lon="6.46465">
        <ele>333</ele>
        <time>2026-03-11T13:35:51Z</time>
      </trkpt>
      <trkpt lat="43.54954" lon="6.46462">
        <ele>333</ele>
        <time>2026-03-11T13:35:55Z</time>
      </trkpt>
      <trkpt lat="43.54956" lon="6.46461">
        <ele>333</ele>
        <time>2026-03-11T13:35:57Z</time>
      </trkpt>
      <trkpt lat="43.54959" lon="6.46459">
        <ele>333</ele>
        <time>2026-03-11T13:36:01Z</time>
      </trkpt>
      <trkpt lat="43.54961" lon="6.46458">
        <ele>333</ele>
        <time>2026-03-11T13:36:03Z</time>
      </trkpt>
      <trkpt lat="43.54969" lon="6.46453">
        <ele>333</ele>
        <time>2026-03-11T13:36:11Z</time>
      </trkpt>
      <trkpt lat="43.54975" lon="6.46447">
        <ele>333</ele>
        <time>2026-03-11T13:36:17Z</time>
      </trkpt>
      <trkpt lat="43.54976" lon="6.46444">
        <ele>334</ele>
        <time>2026-03-11T13:36:19Z</time>
      </trkpt>
      <trkpt lat="43.54977" lon="6.46441">
        <ele>334</ele>
        <time>2026-03-11T13:36:21Z</time>
      </trkpt>
      <trkpt lat="43.5498" lon="6.46445">
        <ele>336</ele>
        <time>2026-03-11T13:36:27Z</time>
      </trkpt>
      <trkpt lat="43.54982" lon="6.46446">
        <ele>336</ele>
        <time>2026-03-11T13:36:29Z</time>
      </trkpt>
      <trkpt lat="43.54987" lon="6.46446">
        <ele>337</ele>
        <time>2026-03-11T13:36:33Z</time>
      </trkpt>
      <trkpt lat="43.55001" lon="6.46438">
        <ele>340</ele>
        <time>2026-03-11T13:36:47Z</time>
      </trkpt>
      <trkpt lat="43.55004" lon="6.46438">
        <ele>340</ele>
        <time>2026-03-11T13:36:49Z</time>
      </trkpt>
      <trkpt lat="43.55007" lon="6.46437">
        <ele>341</ele>
        <time>2026-03-11T13:36:51Z</time>
      </trkpt>
      <trkpt lat="43.55009" lon="6.46436">
        <ele>342</ele>
        <time>2026-03-11T13:36:55Z</time>
      </trkpt>
      <trkpt lat="43.55012" lon="6.46436">
        <ele>343</ele>
        <time>2026-03-11T13:36:57Z</time>
      </trkpt>
      <trkpt lat="43.55016" lon="6.46437">
        <ele>344</ele>
        <time>2026-03-11T13:37:01Z</time>
      </trkpt>
      <trkpt lat="43.55022" lon="6.46441">
        <ele>345</ele>
        <time>2026-03-11T13:37:07Z</time>
      </trkpt>
      <trkpt lat="43.55025" lon="6.46442">
        <ele>346</ele>
        <time>2026-03-11T13:37:09Z</time>
      </trkpt>
      <trkpt lat="43.55027" lon="6.46443">
        <ele>346</ele>
        <time>2026-03-11T13:37:11Z</time>
      </trkpt>
      <trkpt lat="43.55033" lon="6.46444">
        <ele>347</ele>
        <time>2026-03-11T13:37:15Z</time>
      </trkpt>
      <trkpt lat="43.55034" lon="6.46443">
        <ele>348</ele>
        <time>2026-03-11T13:37:17Z</time>
      </trkpt>
      <trkpt lat="43.55039" lon="6.46444">
        <ele>349</ele>
        <time>2026-03-11T13:37:21Z</time>
      </trkpt>
      <trkpt lat="43.55043" lon="6.46444">
        <ele>350</ele>
        <time>2026-03-11T13:37:25Z</time>
      </trkpt>
      <trkpt lat="43.55048" lon="6.46443">
        <ele>351</ele>
        <time>2026-03-11T13:37:31Z</time>
      </trkpt>
      <trkpt lat="43.55055" lon="6.46441">
        <ele>352</ele>
        <time>2026-03-11T13:37:37Z</time>
      </trkpt>
      <trkpt lat="43.55059" lon="6.46443">
        <ele>352</ele>
        <time>2026-03-11T13:37:41Z</time>
      </trkpt>
      <trkpt lat="43.55067" lon="6.46437">
        <ele>353</ele>
        <time>2026-03-11T13:37:51Z</time>
      </trkpt>
      <trkpt lat="43.55069" lon="6.46436">
        <ele>353</ele>
        <time>2026-03-11T13:37:53Z</time>
      </trkpt>
      <trkpt lat="43.55071" lon="6.46435">
        <ele>353</ele>
        <time>2026-03-11T13:37:55Z</time>
      </trkpt>
      <trkpt lat="43.55076" lon="6.46431">
        <ele>355</ele>
        <time>2026-03-11T13:37:59Z</time>
      </trkpt>
      <trkpt lat="43.55078" lon="6.4643">
        <ele>355</ele>
        <time>2026-03-11T13:38:01Z</time>
      </trkpt>
      <trkpt lat="43.55082" lon="6.46429">
        <ele>356</ele>
        <time>2026-03-11T13:38:05Z</time>
      </trkpt>
      <trkpt lat="43.55085" lon="6.46428">
        <ele>357</ele>
        <time>2026-03-11T13:38:07Z</time>
      </trkpt>
      <trkpt lat="43.55088" lon="6.46427">
        <ele>358</ele>
        <time>2026-03-11T13:38:09Z</time>
      </trkpt>
      <trkpt lat="43.55092" lon="6.46428">
        <ele>358</ele>
        <time>2026-03-11T13:38:13Z</time>
      </trkpt>
      <trkpt lat="43.55102" lon="6.46431">
        <ele>356</ele>
        <time>2026-03-11T13:38:21Z</time>
      </trkpt>
      <trkpt lat="43.55107" lon="6.46428">
        <ele>356</ele>
        <time>2026-03-11T13:38:25Z</time>
      </trkpt>
      <trkpt lat="43.55114" lon="6.46428">
        <ele>356</ele>
        <time>2026-03-11T13:38:33Z</time>
      </trkpt>
      <trkpt lat="43.55122" lon="6.46426">
        <ele>357</ele>
        <time>2026-03-11T13:38:39Z</time>
      </trkpt>
      <trkpt lat="43.55126" lon="6.46426">
        <ele>358</ele>
        <time>2026-03-11T13:38:43Z</time>
      </trkpt>
      <trkpt lat="43.55137" lon="6.46422">
        <ele>361</ele>
        <time>2026-03-11T13:38:53Z</time>
      </trkpt>
      <trkpt lat="43.5514" lon="6.46423">
        <ele>362</ele>
        <time>2026-03-11T13:38:57Z</time>
      </trkpt>
      <trkpt lat="43.55142" lon="6.46423">
        <ele>363</ele>
        <time>2026-03-11T13:38:59Z</time>
      </trkpt>
      <trkpt lat="43.55146" lon="6.46422">
        <ele>364</ele>
        <time>2026-03-11T13:39:03Z</time>
      </trkpt>
      <trkpt lat="43.55148" lon="6.46422">
        <ele>365</ele>
        <time>2026-03-11T13:39:07Z</time>
      </trkpt>
      <trkpt lat="43.55151" lon="6.4642">
        <ele>367</ele>
        <time>2026-03-11T13:39:11Z</time>
      </trkpt>
      <trkpt lat="43.55156" lon="6.46422">
        <ele>368</ele>
        <time>2026-03-11T13:39:19Z</time>
      </trkpt>
      <trkpt lat="43.55159" lon="6.46423">
        <ele>369</ele>
        <time>2026-03-11T13:39:23Z</time>
      </trkpt>
      <trkpt lat="43.55162" lon="6.46423">
        <ele>371</ele>
        <time>2026-03-11T13:39:27Z</time>
      </trkpt>
      <trkpt lat="43.55168" lon="6.46426">
        <ele>373</ele>
        <time>2026-03-11T13:39:37Z</time>
      </trkpt>
      <trkpt lat="43.5517" lon="6.46425">
        <ele>373</ele>
        <time>2026-03-11T13:39:39Z</time>
      </trkpt>
      <trkpt lat="43.55172" lon="6.46426">
        <ele>374</ele>
        <time>2026-03-11T13:39:41Z</time>
      </trkpt>
      <trkpt lat="43.55175" lon="6.46426">
        <ele>374</ele>
        <time>2026-03-11T13:39:45Z</time>
      </trkpt>
      <trkpt lat="43.55185" lon="6.46426">
        <ele>376</ele>
        <time>2026-03-11T13:39:57Z</time>
      </trkpt>
      <trkpt lat="43.55192" lon="6.46425">
        <ele>376</ele>
        <time>2026-03-11T13:40:05Z</time>
      </trkpt>
      <trkpt lat="43.55194" lon="6.46424">
        <ele>377</ele>
        <time>2026-03-11T13:40:07Z</time>
      </trkpt>
      <trkpt lat="43.55197" lon="6.46422">
        <ele>377</ele>
        <time>2026-03-11T13:40:11Z</time>
      </trkpt>
      <trkpt lat="43.55201" lon="6.46423">
        <ele>377</ele>
        <time>2026-03-11T13:40:19Z</time>
      </trkpt>
      <trkpt lat="43.55205" lon="6.46423">
        <ele>377</ele>
        <time>2026-03-11T13:40:23Z</time>
      </trkpt>
      <trkpt lat="43.55206" lon="6.46422">
        <ele>377</ele>
        <time>2026-03-11T13:40:25Z</time>
      </trkpt>
      <trkpt lat="43.5521" lon="6.46423">
        <ele>376</ele>
        <time>2026-03-11T13:40:29Z</time>
      </trkpt>
      <trkpt lat="43.55213" lon="6.46424">
        <ele>377</ele>
        <time>2026-03-11T13:40:33Z</time>
      </trkpt>
      <trkpt lat="43.55216" lon="6.46424">
        <ele>377</ele>
        <time>2026-03-11T13:40:37Z</time>
      </trkpt>
      <trkpt lat="43.55218" lon="6.46424">
        <ele>377</ele>
        <time>2026-03-11T13:40:39Z</time>
      </trkpt>
      <trkpt lat="43.55224" lon="6.46419">
        <ele>379</ele>
        <time>2026-03-11T13:40:51Z</time>
      </trkpt>
      <trkpt lat="43.55229" lon="6.46416">
        <ele>380</ele>
        <time>2026-03-11T13:40:59Z</time>
      </trkpt>
      <trkpt lat="43.55237" lon="6.46412">
        <ele>383</ele>
        <time>2026-03-11T13:41:09Z</time>
      </trkpt>
      <trkpt lat="43.5524" lon="6.4641">
        <ele>384</ele>
        <time>2026-03-11T13:41:13Z</time>
      </trkpt>
      <trkpt lat="43.55242" lon="6.46409">
        <ele>384</ele>
        <time>2026-03-11T13:41:15Z</time>
      </trkpt>
      <trkpt lat="43.55245" lon="6.46407">
        <ele>385</ele>
        <time>2026-03-11T13:41:19Z</time>
      </trkpt>
      <trkpt lat="43.55251" lon="6.46405">
        <ele>387</ele>
        <time>2026-03-11T13:41:31Z</time>
      </trkpt>
      <trkpt lat="43.55253" lon="6.46404">
        <ele>389</ele>
        <time>2026-03-11T13:41:35Z</time>
      </trkpt>
      <trkpt lat="43.55259" lon="6.464">
        <ele>391</ele>
        <time>2026-03-11T13:41:45Z</time>
      </trkpt>
      <trkpt lat="43.55261" lon="6.46398">
        <ele>391</ele>
        <time>2026-03-11T13:41:47Z</time>
      </trkpt>
      <trkpt lat="43.55263" lon="6.46395">
        <ele>392</ele>
        <time>2026-03-11T13:41:51Z</time>
      </trkpt>
      <trkpt lat="43.55264" lon="6.46391">
        <ele>393</ele>
        <time>2026-03-11T13:41:55Z</time>
      </trkpt>
      <trkpt lat="43.55267" lon="6.46389">
        <ele>394</ele>
        <time>2026-03-11T13:42:01Z</time>
      </trkpt>
      <trkpt lat="43.5527" lon="6.46388">
        <ele>395</ele>
        <time>2026-03-11T13:42:05Z</time>
      </trkpt>
      <trkpt lat="43.55272" lon="6.46387">
        <ele>395</ele>
        <time>2026-03-11T13:42:07Z</time>
      </trkpt>
      <trkpt lat="43.55283" lon="6.46378">
        <ele>399</ele>
        <time>2026-03-11T13:42:21Z</time>
      </trkpt>
      <trkpt lat="43.55287" lon="6.46374">
        <ele>401</ele>
        <time>2026-03-11T13:42:27Z</time>
      </trkpt>
      <trkpt lat="43.55288" lon="6.46372">
        <ele>402</ele>
        <time>2026-03-11T13:42:31Z</time>
      </trkpt>
      <trkpt lat="43.55293" lon="6.46367">
        <ele>404</ele>
        <time>2026-03-11T13:42:39Z</time>
      </trkpt>
      <trkpt lat="43.55297" lon="6.46365">
        <ele>405</ele>
        <time>2026-03-11T13:42:43Z</time>
      </trkpt>
      <trkpt lat="43.55302" lon="6.46362">
        <ele>405</ele>
        <time>2026-03-11T13:42:51Z</time>
      </trkpt>
      <trkpt lat="43.55304" lon="6.46361">
        <ele>406</ele>
        <time>2026-03-11T13:42:55Z</time>
      </trkpt>
      <trkpt lat="43.55306" lon="6.4636">
        <ele>406</ele>
        <time>2026-03-11T13:42:57Z</time>
      </trkpt>
      <trkpt lat="43.55308" lon="6.46358">
        <ele>406</ele>
        <time>2026-03-11T13:43:01Z</time>
      </trkpt>
      <trkpt lat="43.5531" lon="6.46356">
        <ele>405</ele>
        <time>2026-03-11T13:43:05Z</time>
      </trkpt>
      <trkpt lat="43.55313" lon="6.46355">
        <ele>406</ele>
        <time>2026-03-11T13:43:09Z</time>
      </trkpt>
      <trkpt lat="43.55316" lon="6.46359">
        <ele>407</ele>
        <time>2026-03-11T13:43:13Z</time>
      </trkpt>
      <trkpt lat="43.55317" lon="6.4636">
        <ele>407</ele>
        <time>2026-03-11T13:43:15Z</time>
      </trkpt>
      <trkpt lat="43.5532" lon="6.46359">
        <ele>408</ele>
        <time>2026-03-11T13:43:17Z</time>
      </trkpt>
      <trkpt lat="43.5532" lon="6.46356">
        <ele>408</ele>
        <time>2026-03-11T13:43:23Z</time>
      </trkpt>
      <trkpt lat="43.55322" lon="6.46357">
        <ele>409</ele>
        <time>2026-03-11T13:43:29Z</time>
      </trkpt>
      <trkpt lat="43.55329" lon="6.46353">
        <ele>413</ele>
        <time>2026-03-11T13:43:41Z</time>
      </trkpt>
      <trkpt lat="43.55331" lon="6.46352">
        <ele>414</ele>
        <time>2026-03-11T13:43:45Z</time>
      </trkpt>
      <trkpt lat="43.55333" lon="6.46353">
        <ele>414</ele>
        <time>2026-03-11T13:43:49Z</time>
      </trkpt>
      <trkpt lat="43.55339" lon="6.46351">
        <ele>416</ele>
        <time>2026-03-11T13:43:57Z</time>
      </trkpt>
      <trkpt lat="43.55341" lon="6.46349">
        <ele>416</ele>
        <time>2026-03-11T13:44:01Z</time>
      </trkpt>
      <trkpt lat="43.55342" lon="6.46347">
        <ele>417</ele>
        <time>2026-03-11T13:44:05Z</time>
      </trkpt>
      <trkpt lat="43.55344" lon="6.46348">
        <ele>418</ele>
        <time>2026-03-11T13:44:09Z</time>
      </trkpt>
      <trkpt lat="43.55353" lon="6.46347">
        <ele>420</ele>
        <time>2026-03-11T13:44:21Z</time>
      </trkpt>
      <trkpt lat="43.55355" lon="6.46347">
        <ele>420</ele>
        <time>2026-03-11T13:44:27Z</time>
      </trkpt>
      <trkpt lat="43.55358" lon="6.46347">
        <ele>421</ele>
        <time>2026-03-11T13:44:31Z</time>
      </trkpt>
      <trkpt lat="43.5536" lon="6.46347">
        <ele>422</ele>
        <time>2026-03-11T13:44:33Z</time>
      </trkpt>
      <trkpt lat="43.55362" lon="6.46348">
        <ele>423</ele>
        <time>2026-03-11T13:44:39Z</time>
      </trkpt>
      <trkpt lat="43.55365" lon="6.46348">
        <ele>423</ele>
        <time>2026-03-11T13:44:43Z</time>
      </trkpt>
      <trkpt lat="43.55371" lon="6.46356">
        <ele>424</ele>
        <time>2026-03-11T13:45:53Z</time>
      </trkpt>
      <trkpt lat="43.55375" lon="6.46357">
        <ele>424</ele>
        <time>2026-03-11T13:46:01Z</time>
      </trkpt>
      <trkpt lat="43.55377" lon="6.46358">
        <ele>425</ele>
        <time>2026-03-11T13:46:05Z</time>
      </trkpt>
      <trkpt lat="43.5538" lon="6.4636">
        <ele>425</ele>
        <time>2026-03-11T13:46:09Z</time>
      </trkpt>
      <trkpt lat="43.55381" lon="6.46361">
        <ele>426</ele>
        <time>2026-03-11T13:46:13Z</time>
      </trkpt>
      <trkpt lat="43.55383" lon="6.46362">
        <ele>427</ele>
        <time>2026-03-11T13:46:15Z</time>
      </trkpt>
      <trkpt lat="43.55385" lon="6.46365">
        <ele>428</ele>
        <time>2026-03-11T13:46:19Z</time>
      </trkpt>
      <trkpt lat="43.55386" lon="6.46368">
        <ele>430</ele>
        <time>2026-03-11T13:46:27Z</time>
      </trkpt>
      <trkpt lat="43.5539" lon="6.46369">
        <ele>432</ele>
        <time>2026-03-11T13:46:31Z</time>
      </trkpt>
      <trkpt lat="43.55392" lon="6.46369">
        <ele>432</ele>
        <time>2026-03-11T13:46:35Z</time>
      </trkpt>
      <trkpt lat="43.55397" lon="6.46371">
        <ele>434</ele>
        <time>2026-03-11T13:46:41Z</time>
      </trkpt>
      <trkpt lat="43.554" lon="6.46373">
        <ele>435</ele>
        <time>2026-03-11T13:46:45Z</time>
      </trkpt>
      <trkpt lat="43.55401" lon="6.46376">
        <ele>436</ele>
        <time>2026-03-11T13:46:49Z</time>
      </trkpt>
      <trkpt lat="43.55403" lon="6.46378">
        <ele>437</ele>
        <time>2026-03-11T13:46:53Z</time>
      </trkpt>
      <trkpt lat="43.55406" lon="6.46384">
        <ele>439</ele>
        <time>2026-03-11T13:47:01Z</time>
      </trkpt>
      <trkpt lat="43.55409" lon="6.46385">
        <ele>440</ele>
        <time>2026-03-11T13:47:07Z</time>
      </trkpt>
      <trkpt lat="43.55413" lon="6.46386">
        <ele>442</ele>
        <time>2026-03-11T13:47:13Z</time>
      </trkpt>
      <trkpt lat="43.55416" lon="6.46388">
        <ele>443</ele>
        <time>2026-03-11T13:47:17Z</time>
      </trkpt>
      <trkpt lat="43.55418" lon="6.46389">
        <ele>444</ele>
        <time>2026-03-11T13:47:21Z</time>
      </trkpt>
      <trkpt lat="43.55423" lon="6.4639">
        <ele>445</ele>
        <time>2026-03-11T13:47:29Z</time>
      </trkpt>
      <trkpt lat="43.5543" lon="6.46392">
        <ele>446</ele>
        <time>2026-03-11T13:47:37Z</time>
      </trkpt>
      <trkpt lat="43.55433" lon="6.46394">
        <ele>446</ele>
        <time>2026-03-11T13:47:41Z</time>
      </trkpt>
      <trkpt lat="43.55435" lon="6.46395">
        <ele>447</ele>
        <time>2026-03-11T13:47:45Z</time>
      </trkpt>
      <trkpt lat="43.5544" lon="6.46396">
        <ele>448</ele>
        <time>2026-03-11T13:47:51Z</time>
      </trkpt>
      <trkpt lat="43.55443" lon="6.46396">
        <ele>448</ele>
        <time>2026-03-11T13:47:55Z</time>
      </trkpt>
      <trkpt lat="43.55447" lon="6.46399">
        <ele>449</ele>
        <time>2026-03-11T13:48:03Z</time>
      </trkpt>
      <trkpt lat="43.5545" lon="6.464">
        <ele>449</ele>
        <time>2026-03-11T13:48:07Z</time>
      </trkpt>
      <trkpt lat="43.55455" lon="6.46403">
        <ele>450</ele>
        <time>2026-03-11T13:48:15Z</time>
      </trkpt>
      <trkpt lat="43.55458" lon="6.46405">
        <ele>451</ele>
        <time>2026-03-11T13:48:19Z</time>
      </trkpt>
      <trkpt lat="43.5546" lon="6.46407">
        <ele>452</ele>
        <time>2026-03-11T13:48:23Z</time>
      </trkpt>
      <trkpt lat="43.55466" lon="6.46412">
        <ele>453</ele>
        <time>2026-03-11T13:48:35Z</time>
      </trkpt>
      <trkpt lat="43.55468" lon="6.46414">
        <ele>453</ele>
        <time>2026-03-11T13:48:39Z</time>
      </trkpt>
      <trkpt lat="43.55471" lon="6.46415">
        <ele>454</ele>
        <time>2026-03-11T13:48:43Z</time>
      </trkpt>
      <trkpt lat="43.55475" lon="6.46419">
        <ele>454</ele>
        <time>2026-03-11T13:48:49Z</time>
      </trkpt>
      <trkpt lat="43.55477" lon="6.46421">
        <ele>454</ele>
        <time>2026-03-11T13:48:53Z</time>
      </trkpt>
      <trkpt lat="43.55479" lon="6.46421">
        <ele>455</ele>
        <time>2026-03-11T13:48:57Z</time>
      </trkpt>
      <trkpt lat="43.55482" lon="6.46421">
        <ele>456</ele>
        <time>2026-03-11T13:49:03Z</time>
      </trkpt>
      <trkpt lat="43.55482" lon="6.46425">
        <ele>457</ele>
        <time>2026-03-11T13:49:07Z</time>
      </trkpt>
      <trkpt lat="43.55488" lon="6.46433">
        <ele>460</ele>
        <time>2026-03-11T13:49:25Z</time>
      </trkpt>
      <trkpt lat="43.55493" lon="6.46438">
        <ele>462</ele>
        <time>2026-03-11T13:49:35Z</time>
      </trkpt>
      <trkpt lat="43.55496" lon="6.46451">
        <ele>465</ele>
        <time>2026-03-11T13:49:53Z</time>
      </trkpt>
      <trkpt lat="43.55502" lon="6.46457">
        <ele>466</ele>
        <time>2026-03-11T13:50:03Z</time>
      </trkpt>
      <trkpt lat="43.55504" lon="6.46461">
        <ele>467</ele>
        <time>2026-03-11T13:50:09Z</time>
      </trkpt>
      <trkpt lat="43.55505" lon="6.46465">
        <ele>468</ele>
        <time>2026-03-11T13:50:15Z</time>
      </trkpt>
      <trkpt lat="43.55507" lon="6.46471">
        <ele>470</ele>
        <time>2026-03-11T13:50:25Z</time>
      </trkpt>
      <trkpt lat="43.55509" lon="6.46472">
        <ele>470</ele>
        <time>2026-03-11T13:50:29Z</time>
      </trkpt>
      <trkpt lat="43.55511" lon="6.46474">
        <ele>471</ele>
        <time>2026-03-11T13:50:33Z</time>
      </trkpt>
      <trkpt lat="43.55513" lon="6.46477">
        <ele>472</ele>
        <time>2026-03-11T13:50:37Z</time>
      </trkpt>
      <trkpt lat="43.55514" lon="6.46481">
        <ele>473</ele>
        <time>2026-03-11T13:50:41Z</time>
      </trkpt>
      <trkpt lat="43.55517" lon="6.46482">
        <ele>474</ele>
        <time>2026-03-11T13:50:45Z</time>
      </trkpt>
      <trkpt lat="43.55518" lon="6.46483">
        <ele>474</ele>
        <time>2026-03-11T13:50:49Z</time>
      </trkpt>
      <trkpt lat="43.55514" lon="6.46487">
        <ele>476</ele>
        <time>2026-03-11T13:51:37Z</time>
      </trkpt>
      <trkpt lat="43.55517" lon="6.46489">
        <ele>477</ele>
        <time>2026-03-11T13:51:41Z</time>
      </trkpt>
      <trkpt lat="43.55513" lon="6.4649">
        <ele>477</ele>
        <time>2026-03-11T13:51:45Z</time>
      </trkpt>
      <trkpt lat="43.55514" lon="6.46488">
        <ele>478</ele>
        <time>2026-03-11T13:51:51Z</time>
      </trkpt>
      <trkpt lat="43.55516" lon="6.46489">
        <ele>479</ele>
        <time>2026-03-11T13:52:01Z</time>
      </trkpt>
      <trkpt lat="43.55516" lon="6.46485">
        <ele>479</ele>
        <time>2026-03-11T13:52:19Z</time>
      </trkpt>
      <trkpt lat="43.55516" lon="6.46481">
        <ele>481</ele>
        <time>2026-03-11T13:52:25Z</time>
      </trkpt>
      <trkpt lat="43.55518" lon="6.46483">
        <ele>482</ele>
        <time>2026-03-11T13:52:29Z</time>
      </trkpt>
      <trkpt lat="43.55516" lon="6.46484">
        <ele>482</ele>
        <time>2026-03-11T13:52:35Z</time>
      </trkpt>
      <trkpt lat="43.55514" lon="6.46486">
        <ele>482</ele>
        <time>2026-03-11T13:52:39Z</time>
      </trkpt>
      <trkpt lat="43.55513" lon="6.46488">
        <ele>482</ele>
        <time>2026-03-11T13:52:43Z</time>
      </trkpt>
      <trkpt lat="43.55515" lon="6.46489">
        <ele>482</ele>
        <time>2026-03-11T13:53:03Z</time>
      </trkpt>
      <trkpt lat="43.55519" lon="6.46489">
        <ele>482</ele>
        <time>2026-03-11T13:53:07Z</time>
      </trkpt>
      <trkpt lat="43.55522" lon="6.46489">
        <ele>482</ele>
        <time>2026-03-11T13:53:09Z</time>
      </trkpt>
      <trkpt lat="43.55524" lon="6.46489">
        <ele>481</ele>
        <time>2026-03-11T13:53:11Z</time>
      </trkpt>
      <trkpt lat="43.55527" lon="6.46492">
        <ele>481</ele>
        <time>2026-03-11T13:53:17Z</time>
      </trkpt>
      <trkpt lat="43.55532" lon="6.46497">
        <ele>481</ele>
        <time>2026-03-11T13:53:23Z</time>
      </trkpt>
      <trkpt lat="43.55535" lon="6.46501">
        <ele>481</ele>
        <time>2026-03-11T13:53:27Z</time>
      </trkpt>
      <trkpt lat="43.55537" lon="6.46503">
        <ele>481</ele>
        <time>2026-03-11T13:53:31Z</time>
      </trkpt>
      <trkpt lat="43.55538" lon="6.46507">
        <ele>481</ele>
        <time>2026-03-11T13:53:35Z</time>
      </trkpt>
      <trkpt lat="43.55542" lon="6.4651">
        <ele>481</ele>
        <time>2026-03-11T13:53:39Z</time>
      </trkpt>
      <trkpt lat="43.55549" lon="6.46514">
        <ele>482</ele>
        <time>2026-03-11T13:53:49Z</time>
      </trkpt>
      <trkpt lat="43.55552" lon="6.46515">
        <ele>484</ele>
        <time>2026-03-11T13:53:53Z</time>
      </trkpt>
      <trkpt lat="43.55554" lon="6.46516">
        <ele>486</ele>
        <time>2026-03-11T13:53:57Z</time>
      </trkpt>
      <trkpt lat="43.55567" lon="6.46515">
        <ele>492</ele>
        <time>2026-03-11T13:54:07Z</time>
      </trkpt>
      <trkpt lat="43.5557" lon="6.46516">
        <ele>493</ele>
        <time>2026-03-11T13:54:11Z</time>
      </trkpt>
      <trkpt lat="43.55573" lon="6.46519">
        <ele>495</ele>
        <time>2026-03-11T13:54:17Z</time>
      </trkpt>
      <trkpt lat="43.55575" lon="6.46521">
        <ele>496</ele>
        <time>2026-03-11T13:54:21Z</time>
      </trkpt>
      <trkpt lat="43.55576" lon="6.46523">
        <ele>496</ele>
        <time>2026-03-11T13:54:23Z</time>
      </trkpt>
      <trkpt lat="43.5558" lon="6.46522">
        <ele>497</ele>
        <time>2026-03-11T13:54:27Z</time>
      </trkpt>
      <trkpt lat="43.55582" lon="6.46524">
        <ele>498</ele>
        <time>2026-03-11T13:54:29Z</time>
      </trkpt>
      <trkpt lat="43.55585" lon="6.46529">
        <ele>498</ele>
        <time>2026-03-11T13:54:35Z</time>
      </trkpt>
      <trkpt lat="43.55586" lon="6.46532">
        <ele>498</ele>
        <time>2026-03-11T13:54:39Z</time>
      </trkpt>
      <trkpt lat="43.55583" lon="6.46541">
        <ele>499</ele>
        <time>2026-03-11T13:54:45Z</time>
      </trkpt>
      <trkpt lat="43.55584" lon="6.46545">
        <ele>499</ele>
        <time>2026-03-11T13:54:51Z</time>
      </trkpt>
      <trkpt lat="43.55586" lon="6.46548">
        <ele>499</ele>
        <time>2026-03-11T13:54:55Z</time>
      </trkpt>
      <trkpt lat="43.5559" lon="6.46552">
        <ele>499</ele>
        <time>2026-03-11T13:54:59Z</time>
      </trkpt>
      <trkpt lat="43.55594" lon="6.46554">
        <ele>499</ele>
        <time>2026-03-11T13:55:03Z</time>
      </trkpt>
      <trkpt lat="43.55598" lon="6.46555">
        <ele>500</ele>
        <time>2026-03-11T13:55:07Z</time>
      </trkpt>
      <trkpt lat="43.55603" lon="6.46559">
        <ele>500</ele>
        <time>2026-03-11T13:55:13Z</time>
      </trkpt>
      <trkpt lat="43.55606" lon="6.4656">
        <ele>501</ele>
        <time>2026-03-11T13:55:15Z</time>
      </trkpt>
      <trkpt lat="43.55618" lon="6.46564">
        <ele>502</ele>
        <time>2026-03-11T13:55:27Z</time>
      </trkpt>
      <trkpt lat="43.55619" lon="6.46565">
        <ele>503</ele>
        <time>2026-03-11T13:55:29Z</time>
      </trkpt>
      <trkpt lat="43.55624" lon="6.4657">
        <ele>503</ele>
        <time>2026-03-11T13:55:37Z</time>
      </trkpt>
      <trkpt lat="43.55623" lon="6.46568">
        <ele>503</ele>
        <time>2026-03-11T13:56:07Z</time>
      </trkpt>
      <trkpt lat="43.55625" lon="6.46566">
        <ele>503</ele>
        <time>2026-03-11T13:56:11Z</time>
      </trkpt>
      <trkpt lat="43.55627" lon="6.46569">
        <ele>503</ele>
        <time>2026-03-11T13:56:25Z</time>
      </trkpt>
      <trkpt lat="43.55628" lon="6.46566">
        <ele>503</ele>
        <time>2026-03-11T13:56:39Z</time>
      </trkpt>
      <trkpt lat="43.55629" lon="6.46566">
        <ele>502</ele>
        <time>2026-03-11T13:57:05Z</time>
      </trkpt>
      <trkpt lat="43.55625" lon="6.46569">
        <ele>502</ele>
        <time>2026-03-11T13:57:21Z</time>
      </trkpt>
      <trkpt lat="43.55625" lon="6.4657">
        <ele>502</ele>
        <time>2026-03-11T13:59:11Z</time>
      </trkpt>
      <trkpt lat="43.55623" lon="6.46572">
        <ele>502</ele>
        <time>2026-03-11T13:59:13Z</time>
      </trkpt>
      <trkpt lat="43.55624" lon="6.46572">
        <ele>502</ele>
        <time>2026-03-11T13:59:43Z</time>
      </trkpt>
      <trkpt lat="43.55627" lon="6.46568">
        <ele>501</ele>
        <time>2026-03-11T14:01:00Z</time>
      </trkpt>
      <trkpt lat="43.55627" lon="6.46569">
        <ele>501</ele>
        <time>2026-03-11T14:02:00Z</time>
      </trkpt>
      <trkpt lat="43.55625" lon="6.46568">
        <ele>502</ele>
        <time>2026-03-11T14:02:08Z</time>
      </trkpt>
      <trkpt lat="43.55624" lon="6.46564">
        <ele>503</ele>
        <time>2026-03-11T14:02:30Z</time>
      </trkpt>
      <trkpt lat="43.55624" lon="6.46569">
        <ele>503</ele>
        <time>2026-03-11T14:03:20Z</time>
      </trkpt>
      <trkpt lat="43.55627" lon="6.46565">
        <ele>503</ele>
        <time>2026-03-11T14:03:48Z</time>
      </trkpt>
      <trkpt lat="43.55629" lon="6.46564">
        <ele>503</ele>
        <time>2026-03-11T14:03:50Z</time>
      </trkpt>
      <trkpt lat="43.55631" lon="6.46564">
        <ele>503</ele>
        <time>2026-03-11T14:03:52Z</time>
      </trkpt>
      <trkpt lat="43.55637" lon="6.46565">
        <ele>504</ele>
        <time>2026-03-11T14:03:58Z</time>
      </trkpt>
      <trkpt lat="43.5564" lon="6.46565">
        <ele>504</ele>
        <time>2026-03-11T14:04:00Z</time>
      </trkpt>
      <trkpt lat="43.55644" lon="6.46565">
        <ele>505</ele>
        <time>2026-03-11T14:04:02Z</time>
      </trkpt>
      <trkpt lat="43.55645" lon="6.46566">
        <ele>504</ele>
        <time>2026-03-11T14:04:04Z</time>
      </trkpt>
      <trkpt lat="43.55647" lon="6.46568">
        <ele>504</ele>
        <time>2026-03-11T14:04:06Z</time>
      </trkpt>
      <trkpt lat="43.55649" lon="6.46569">
        <ele>504</ele>
        <time>2026-03-11T14:04:08Z</time>
      </trkpt>
      <trkpt lat="43.55651" lon="6.4657">
        <ele>503</ele>
        <time>2026-03-11T14:04:10Z</time>
      </trkpt>
      <trkpt lat="43.55654" lon="6.46569">
        <ele>503</ele>
        <time>2026-03-11T14:04:14Z</time>
      </trkpt>
      <trkpt lat="43.55656" lon="6.46569">
        <ele>503</ele>
        <time>2026-03-11T14:04:16Z</time>
      </trkpt>
      <trkpt lat="43.55659" lon="6.4657">
        <ele>503</ele>
        <time>2026-03-11T14:04:20Z</time>
      </trkpt>
      <trkpt lat="43.55674" lon="6.46565">
        <ele>504</ele>
        <time>2026-03-11T14:04:32Z</time>
      </trkpt>
      <trkpt lat="43.55678" lon="6.46566">
        <ele>504</ele>
        <time>2026-03-11T14:04:36Z</time>
      </trkpt>
      <trkpt lat="43.55702" lon="6.4656">
        <ele>505</ele>
        <time>2026-03-11T14:04:58Z</time>
      </trkpt>
      <trkpt lat="43.55705" lon="6.46557">
        <ele>505</ele>
        <time>2026-03-11T14:05:00Z</time>
      </trkpt>
      <trkpt lat="43.55706" lon="6.46555">
        <ele>505</ele>
        <time>2026-03-11T14:05:02Z</time>
      </trkpt>
      <trkpt lat="43.55708" lon="6.46554">
        <ele>505</ele>
        <time>2026-03-11T14:05:04Z</time>
      </trkpt>
      <trkpt lat="43.5571" lon="6.46551">
        <ele>505</ele>
        <time>2026-03-11T14:05:06Z</time>
      </trkpt>
      <trkpt lat="43.55711" lon="6.46549">
        <ele>505</ele>
        <time>2026-03-11T14:05:08Z</time>
      </trkpt>
      <trkpt lat="43.55712" lon="6.46547">
        <ele>505</ele>
        <time>2026-03-11T14:05:10Z</time>
      </trkpt>
      <trkpt lat="43.55717" lon="6.46537">
        <ele>506</ele>
        <time>2026-03-11T14:05:18Z</time>
      </trkpt>
      <trkpt lat="43.5572" lon="6.46531">
        <ele>506</ele>
        <time>2026-03-11T14:05:22Z</time>
      </trkpt>
      <trkpt lat="43.5572" lon="6.46528">
        <ele>506</ele>
        <time>2026-03-11T14:05:24Z</time>
      </trkpt>
      <trkpt lat="43.55722" lon="6.46516">
        <ele>507</ele>
        <time>2026-03-11T14:05:34Z</time>
      </trkpt>
      <trkpt lat="43.55721" lon="6.46511">
        <ele>508</ele>
        <time>2026-03-11T14:05:38Z</time>
      </trkpt>
      <trkpt lat="43.5572" lon="6.46509">
        <ele>508</ele>
        <time>2026-03-11T14:05:40Z</time>
      </trkpt>
      <trkpt lat="43.55717" lon="6.46506">
        <ele>509</ele>
        <time>2026-03-11T14:05:44Z</time>
      </trkpt>
      <trkpt lat="43.55715" lon="6.46503">
        <ele>510</ele>
        <time>2026-03-11T14:05:46Z</time>
      </trkpt>
      <trkpt lat="43.55715" lon="6.46499">
        <ele>510</ele>
        <time>2026-03-11T14:05:48Z</time>
      </trkpt>
      <trkpt lat="43.55714" lon="6.46496">
        <ele>511</ele>
        <time>2026-03-11T14:05:50Z</time>
      </trkpt>
      <trkpt lat="43.55716" lon="6.46494">
        <ele>511</ele>
        <time>2026-03-11T14:05:52Z</time>
      </trkpt>
      <trkpt lat="43.55718" lon="6.46485">
        <ele>510</ele>
        <time>2026-03-11T14:06:02Z</time>
      </trkpt>
      <trkpt lat="43.5572" lon="6.46483">
        <ele>509</ele>
        <time>2026-03-11T14:06:04Z</time>
      </trkpt>
      <trkpt lat="43.55724" lon="6.46479">
        <ele>508</ele>
        <time>2026-03-11T14:06:08Z</time>
      </trkpt>
      <trkpt lat="43.55726" lon="6.46476">
        <ele>508</ele>
        <time>2026-03-11T14:06:12Z</time>
      </trkpt>
      <trkpt lat="43.55728" lon="6.46474">
        <ele>508</ele>
        <time>2026-03-11T14:06:14Z</time>
      </trkpt>
      <trkpt lat="43.55731" lon="6.46468">
        <ele>508</ele>
        <time>2026-03-11T14:06:22Z</time>
      </trkpt>
      <trkpt lat="43.55733" lon="6.46467">
        <ele>509</ele>
        <time>2026-03-11T14:06:26Z</time>
      </trkpt>
      <trkpt lat="43.55744" lon="6.46466">
        <ele>513</ele>
        <time>2026-03-11T14:06:38Z</time>
      </trkpt>
      <trkpt lat="43.55748" lon="6.46466">
        <ele>514</ele>
        <time>2026-03-11T14:06:42Z</time>
      </trkpt>
      <trkpt lat="43.5575" lon="6.46466">
        <ele>514</ele>
        <time>2026-03-11T14:06:44Z</time>
      </trkpt>
      <trkpt lat="43.55753" lon="6.46465">
        <ele>515</ele>
        <time>2026-03-11T14:06:46Z</time>
      </trkpt>
      <trkpt lat="43.55756" lon="6.46465">
        <ele>515</ele>
        <time>2026-03-11T14:06:48Z</time>
      </trkpt>
      <trkpt lat="43.55759" lon="6.46464">
        <ele>516</ele>
        <time>2026-03-11T14:06:52Z</time>
      </trkpt>
      <trkpt lat="43.5576" lon="6.46464">
        <ele>516</ele>
        <time>2026-03-11T14:06:54Z</time>
      </trkpt>
      <trkpt lat="43.55762" lon="6.46462">
        <ele>516</ele>
        <time>2026-03-11T14:06:56Z</time>
      </trkpt>
      <trkpt lat="43.55765" lon="6.46458">
        <ele>517</ele>
        <time>2026-03-11T14:07:00Z</time>
      </trkpt>
      <trkpt lat="43.55766" lon="6.46455">
        <ele>518</ele>
        <time>2026-03-11T14:07:04Z</time>
      </trkpt>
      <trkpt lat="43.55766" lon="6.46451">
        <ele>518</ele>
        <time>2026-03-11T14:07:08Z</time>
      </trkpt>
      <trkpt lat="43.55763" lon="6.4645">
        <ele>519</ele>
        <time>2026-03-11T14:07:12Z</time>
      </trkpt>
      <trkpt lat="43.5576" lon="6.46448">
        <ele>519</ele>
        <time>2026-03-11T14:07:16Z</time>
      </trkpt>
      <trkpt lat="43.55758" lon="6.46446">
        <ele>520</ele>
        <time>2026-03-11T14:07:18Z</time>
      </trkpt>
      <trkpt lat="43.55756" lon="6.46441">
        <ele>520</ele>
        <time>2026-03-11T14:07:22Z</time>
      </trkpt>
      <trkpt lat="43.55757" lon="6.46433">
        <ele>521</ele>
        <time>2026-03-11T14:07:28Z</time>
      </trkpt>
      <trkpt lat="43.55757" lon="6.4643">
        <ele>521</ele>
        <time>2026-03-11T14:07:30Z</time>
      </trkpt>
      <trkpt lat="43.55751" lon="6.46422">
        <ele>522</ele>
        <time>2026-03-11T14:07:38Z</time>
      </trkpt>
      <trkpt lat="43.55744" lon="6.46417">
        <ele>523</ele>
        <time>2026-03-11T14:07:48Z</time>
      </trkpt>
      <trkpt lat="43.55726" lon="6.46416">
        <ele>523</ele>
        <time>2026-03-11T14:08:04Z</time>
      </trkpt>
      <trkpt lat="43.55724" lon="6.46415">
        <ele>523</ele>
        <time>2026-03-11T14:08:06Z</time>
      </trkpt>
      <trkpt lat="43.55722" lon="6.46414">
        <ele>523</ele>
        <time>2026-03-11T14:08:10Z</time>
      </trkpt>
      <trkpt lat="43.55721" lon="6.46411">
        <ele>523</ele>
        <time>2026-03-11T14:08:12Z</time>
      </trkpt>
      <trkpt lat="43.55721" lon="6.46407">
        <ele>522</ele>
        <time>2026-03-11T14:08:16Z</time>
      </trkpt>
      <trkpt lat="43.55723" lon="6.46404">
        <ele>522</ele>
        <time>2026-03-11T14:08:20Z</time>
      </trkpt>
      <trkpt lat="43.55725" lon="6.46401">
        <ele>523</ele>
        <time>2026-03-11T14:08:24Z</time>
      </trkpt>
      <trkpt lat="43.55728" lon="6.464">
        <ele>524</ele>
        <time>2026-03-11T14:08:28Z</time>
      </trkpt>
      <trkpt lat="43.5573" lon="6.46399">
        <ele>524</ele>
        <time>2026-03-11T14:08:32Z</time>
      </trkpt>
      <trkpt lat="43.55731" lon="6.46394">
        <ele>525</ele>
        <time>2026-03-11T14:08:36Z</time>
      </trkpt>
      <trkpt lat="43.55731" lon="6.46387">
        <ele>526</ele>
        <time>2026-03-11T14:08:40Z</time>
      </trkpt>
      <trkpt lat="43.55731" lon="6.46385">
        <ele>526</ele>
        <time>2026-03-11T14:08:42Z</time>
      </trkpt>
      <trkpt lat="43.55733" lon="6.46359">
        <ele>530</ele>
        <time>2026-03-11T14:09:02Z</time>
      </trkpt>
      <trkpt lat="43.55733" lon="6.46357">
        <ele>531</ele>
        <time>2026-03-11T14:09:04Z</time>
      </trkpt>
      <trkpt lat="43.55734" lon="6.46341">
        <ele>533</ele>
        <time>2026-03-11T14:09:14Z</time>
      </trkpt>
      <trkpt lat="43.55736" lon="6.46335">
        <ele>534</ele>
        <time>2026-03-11T14:09:18Z</time>
      </trkpt>
      <trkpt lat="43.55736" lon="6.46331">
        <ele>535</ele>
        <time>2026-03-11T14:09:22Z</time>
      </trkpt>
      <trkpt lat="43.55737" lon="6.46324">
        <ele>535</ele>
        <time>2026-03-11T14:09:28Z</time>
      </trkpt>
      <trkpt lat="43.5574" lon="6.46318">
        <ele>535</ele>
        <time>2026-03-11T14:09:32Z</time>
      </trkpt>
      <trkpt lat="43.55742" lon="6.46307">
        <ele>534</ele>
        <time>2026-03-11T14:09:40Z</time>
      </trkpt>
      <trkpt lat="43.55742" lon="6.46305">
        <ele>534</ele>
        <time>2026-03-11T14:09:42Z</time>
      </trkpt>
      <trkpt lat="43.55743" lon="6.46302">
        <ele>534</ele>
        <time>2026-03-11T14:09:44Z</time>
      </trkpt>
      <trkpt lat="43.55743" lon="6.463">
        <ele>534</ele>
        <time>2026-03-11T14:09:46Z</time>
      </trkpt>
      <trkpt lat="43.55745" lon="6.46295">
        <ele>534</ele>
        <time>2026-03-11T14:09:50Z</time>
      </trkpt>
      <trkpt lat="43.55746" lon="6.46293">
        <ele>534</ele>
        <time>2026-03-11T14:09:52Z</time>
      </trkpt>
      <trkpt lat="43.55748" lon="6.46291">
        <ele>534</ele>
        <time>2026-03-11T14:09:54Z</time>
      </trkpt>
      <trkpt lat="43.55752" lon="6.46287">
        <ele>534</ele>
        <time>2026-03-11T14:09:58Z</time>
      </trkpt>
      <trkpt lat="43.55755" lon="6.46282">
        <ele>535</ele>
        <time>2026-03-11T14:10:04Z</time>
      </trkpt>
      <trkpt lat="43.55753" lon="6.46281">
        <ele>536</ele>
        <time>2026-03-11T14:10:34Z</time>
      </trkpt>
      <trkpt lat="43.55752" lon="6.46279">
        <ele>540</ele>
        <time>2026-03-11T14:12:14Z</time>
      </trkpt>
      <trkpt lat="43.55751" lon="6.46275">
        <ele>541</ele>
        <time>2026-03-11T14:12:18Z</time>
      </trkpt>
      <trkpt lat="43.55749" lon="6.46273">
        <ele>541</ele>
        <time>2026-03-11T14:12:20Z</time>
      </trkpt>
      <trkpt lat="43.55746" lon="6.46271">
        <ele>542</ele>
        <time>2026-03-11T14:12:24Z</time>
      </trkpt>
      <trkpt lat="43.55744" lon="6.46272">
        <ele>542</ele>
        <time>2026-03-11T14:12:26Z</time>
      </trkpt>
      <trkpt lat="43.55742" lon="6.46272">
        <ele>542</ele>
        <time>2026-03-11T14:12:28Z</time>
      </trkpt>
      <trkpt lat="43.55737" lon="6.46269">
        <ele>542</ele>
        <time>2026-03-11T14:12:34Z</time>
      </trkpt>
      <trkpt lat="43.55733" lon="6.46263">
        <ele>543</ele>
        <time>2026-03-11T14:12:40Z</time>
      </trkpt>
      <trkpt lat="43.55731" lon="6.46258">
        <ele>543</ele>
        <time>2026-03-11T14:12:44Z</time>
      </trkpt>
      <trkpt lat="43.55726" lon="6.46256">
        <ele>544</ele>
        <time>2026-03-11T14:12:50Z</time>
      </trkpt>
      <trkpt lat="43.55723" lon="6.46255">
        <ele>544</ele>
        <time>2026-03-11T14:12:54Z</time>
      </trkpt>
      <trkpt lat="43.5572" lon="6.46254">
        <ele>544</ele>
        <time>2026-03-11T14:12:58Z</time>
      </trkpt>
      <trkpt lat="43.55717" lon="6.46253">
        <ele>545</ele>
        <time>2026-03-11T14:13:02Z</time>
      </trkpt>
      <trkpt lat="43.55712" lon="6.46254">
        <ele>546</ele>
        <time>2026-03-11T14:13:06Z</time>
      </trkpt>
      <trkpt lat="43.55706" lon="6.46253">
        <ele>547</ele>
        <time>2026-03-11T14:13:14Z</time>
      </trkpt>
      <trkpt lat="43.55704" lon="6.46252">
        <ele>546</ele>
        <time>2026-03-11T14:13:16Z</time>
      </trkpt>
      <trkpt lat="43.55702" lon="6.46252">
        <ele>546</ele>
        <time>2026-03-11T14:13:18Z</time>
      </trkpt>
      <trkpt lat="43.557" lon="6.4625">
        <ele>546</ele>
        <time>2026-03-11T14:13:20Z</time>
      </trkpt>
      <trkpt lat="43.55697" lon="6.4625">
        <ele>546</ele>
        <time>2026-03-11T14:13:22Z</time>
      </trkpt>
      <trkpt lat="43.55695" lon="6.46251">
        <ele>546</ele>
        <time>2026-03-11T14:13:24Z</time>
      </trkpt>
      <trkpt lat="43.55693" lon="6.46253">
        <ele>545</ele>
        <time>2026-03-11T14:13:26Z</time>
      </trkpt>
      <trkpt lat="43.55688" lon="6.46255">
        <ele>544</ele>
        <time>2026-03-11T14:13:32Z</time>
      </trkpt>
      <trkpt lat="43.55685" lon="6.46255">
        <ele>543</ele>
        <time>2026-03-11T14:13:34Z</time>
      </trkpt>
      <trkpt lat="43.55683" lon="6.46254">
        <ele>543</ele>
        <time>2026-03-11T14:13:36Z</time>
      </trkpt>
      <trkpt lat="43.55681" lon="6.46255">
        <ele>542</ele>
        <time>2026-03-11T14:13:38Z</time>
      </trkpt>
      <trkpt lat="43.55679" lon="6.46255">
        <ele>541</ele>
        <time>2026-03-11T14:13:40Z</time>
      </trkpt>
      <trkpt lat="43.55676" lon="6.46252">
        <ele>540</ele>
        <time>2026-03-11T14:13:44Z</time>
      </trkpt>
      <trkpt lat="43.55672" lon="6.46252">
        <ele>539</ele>
        <time>2026-03-11T14:13:48Z</time>
      </trkpt>
      <trkpt lat="43.55669" lon="6.46253">
        <ele>538</ele>
        <time>2026-03-11T14:13:52Z</time>
      </trkpt>
      <trkpt lat="43.55667" lon="6.46253">
        <ele>537</ele>
        <time>2026-03-11T14:13:54Z</time>
      </trkpt>
      <trkpt lat="43.55665" lon="6.46253">
        <ele>536</ele>
        <time>2026-03-11T14:13:58Z</time>
      </trkpt>
      <trkpt lat="43.55659" lon="6.46253">
        <ele>534</ele>
        <time>2026-03-11T14:14:06Z</time>
      </trkpt>
      <trkpt lat="43.55657" lon="6.46253">
        <ele>534</ele>
        <time>2026-03-11T14:14:10Z</time>
      </trkpt>
      <trkpt lat="43.55654" lon="6.46252">
        <ele>533</ele>
        <time>2026-03-11T14:14:14Z</time>
      </trkpt>
      <trkpt lat="43.55656" lon="6.4625">
        <ele>533</ele>
        <time>2026-03-11T14:14:26Z</time>
      </trkpt>
      <trkpt lat="43.55657" lon="6.46248">
        <ele>534</ele>
        <time>2026-03-11T14:15:20Z</time>
      </trkpt>
      <trkpt lat="43.55658" lon="6.4625">
        <ele>534</ele>
        <time>2026-03-11T14:16:16Z</time>
      </trkpt>
      <trkpt lat="43.5566" lon="6.46249">
        <ele>535</ele>
        <time>2026-03-11T14:16:32Z</time>
      </trkpt>
      <trkpt lat="43.5566" lon="6.46247">
        <ele>535</ele>
        <time>2026-03-11T14:17:02Z</time>
      </trkpt>
      <trkpt lat="43.55655" lon="6.4625">
        <ele>536</ele>
        <time>2026-03-11T14:17:14Z</time>
      </trkpt>
      <trkpt lat="43.55658" lon="6.46251">
        <ele>536</ele>
        <time>2026-03-11T14:17:38Z</time>
      </trkpt>
      <trkpt lat="43.5566" lon="6.46251">
        <ele>536</ele>
        <time>2026-03-11T14:19:12Z</time>
      </trkpt>
      <trkpt lat="43.55661" lon="6.46254">
        <ele>536</ele>
        <time>2026-03-11T14:19:16Z</time>
      </trkpt>
      <trkpt lat="43.55662" lon="6.46248">
        <ele>535</ele>
        <time>2026-03-11T14:19:52Z</time>
      </trkpt>
      <trkpt lat="43.55661" lon="6.46243">
        <ele>535</ele>
        <time>2026-03-11T14:19:56Z</time>
      </trkpt>
      <trkpt lat="43.55663" lon="6.46233">
        <ele>535</ele>
        <time>2026-03-11T14:20:02Z</time>
      </trkpt>
      <trkpt lat="43.55663" lon="6.4623">
        <ele>535</ele>
        <time>2026-03-11T14:20:04Z</time>
      </trkpt>
      <trkpt lat="43.55663" lon="6.46227">
        <ele>535</ele>
        <time>2026-03-11T14:20:06Z</time>
      </trkpt>
      <trkpt lat="43.55668" lon="6.46186">
        <ele>534</ele>
        <time>2026-03-11T14:20:34Z</time>
      </trkpt>
      <trkpt lat="43.55671" lon="6.46177">
        <ele>533</ele>
        <time>2026-03-11T14:20:40Z</time>
      </trkpt>
      <trkpt lat="43.55672" lon="6.46175">
        <ele>532</ele>
        <time>2026-03-11T14:20:42Z</time>
      </trkpt>
      <trkpt lat="43.55673" lon="6.46172">
        <ele>532</ele>
        <time>2026-03-11T14:20:44Z</time>
      </trkpt>
      <trkpt lat="43.55674" lon="6.46169">
        <ele>531</ele>
        <time>2026-03-11T14:20:46Z</time>
      </trkpt>
      <trkpt lat="43.55675" lon="6.46166">
        <ele>530</ele>
        <time>2026-03-11T14:20:48Z</time>
      </trkpt>
      <trkpt lat="43.55675" lon="6.46163">
        <ele>530</ele>
        <time>2026-03-11T14:20:50Z</time>
      </trkpt>
      <trkpt lat="43.55676" lon="6.46161">
        <ele>530</ele>
        <time>2026-03-11T14:20:52Z</time>
      </trkpt>
      <trkpt lat="43.55678" lon="6.46152">
        <ele>530</ele>
        <time>2026-03-11T14:20:58Z</time>
      </trkpt>
      <trkpt lat="43.55681" lon="6.46146">
        <ele>530</ele>
        <time>2026-03-11T14:21:02Z</time>
      </trkpt>
      <trkpt lat="43.55681" lon="6.46143">
        <ele>530</ele>
        <time>2026-03-11T14:21:04Z</time>
      </trkpt>
      <trkpt lat="43.55681" lon="6.4614">
        <ele>530</ele>
        <time>2026-03-11T14:21:06Z</time>
      </trkpt>
      <trkpt lat="43.55683" lon="6.46137">
        <ele>530</ele>
        <time>2026-03-11T14:21:08Z</time>
      </trkpt>
      <trkpt lat="43.55685" lon="6.46134">
        <ele>530</ele>
        <time>2026-03-11T14:21:10Z</time>
      </trkpt>
      <trkpt lat="43.55689" lon="6.46121">
        <ele>529</ele>
        <time>2026-03-11T14:21:20Z</time>
      </trkpt>
      <trkpt lat="43.55693" lon="6.46114">
        <ele>528</ele>
        <time>2026-03-11T14:21:26Z</time>
      </trkpt>
      <trkpt lat="43.55698" lon="6.46104">
        <ele>527</ele>
        <time>2026-03-11T14:21:34Z</time>
      </trkpt>
      <trkpt lat="43.55699" lon="6.46101">
        <ele>527</ele>
        <time>2026-03-11T14:21:36Z</time>
      </trkpt>
      <trkpt lat="43.557" lon="6.46098">
        <ele>527</ele>
        <time>2026-03-11T14:21:38Z</time>
      </trkpt>
      <trkpt lat="43.55702" lon="6.46095">
        <ele>527</ele>
        <time>2026-03-11T14:21:40Z</time>
      </trkpt>
      <trkpt lat="43.55703" lon="6.46093">
        <ele>527</ele>
        <time>2026-03-11T14:21:42Z</time>
      </trkpt>
      <trkpt lat="43.55706" lon="6.46087">
        <ele>527</ele>
        <time>2026-03-11T14:21:46Z</time>
      </trkpt>
      <trkpt lat="43.55709" lon="6.46085">
        <ele>527</ele>
        <time>2026-03-11T14:21:48Z</time>
      </trkpt>
      <trkpt lat="43.55713" lon="6.46078">
        <ele>526</ele>
        <time>2026-03-11T14:21:54Z</time>
      </trkpt>
      <trkpt lat="43.55715" lon="6.46068">
        <ele>526</ele>
        <time>2026-03-11T14:22:00Z</time>
      </trkpt>
      <trkpt lat="43.55716" lon="6.46065">
        <ele>526</ele>
        <time>2026-03-11T14:22:02Z</time>
      </trkpt>
      <trkpt lat="43.55724" lon="6.46051">
        <ele>524</ele>
        <time>2026-03-11T14:22:12Z</time>
      </trkpt>
      <trkpt lat="43.55724" lon="6.46048">
        <ele>524</ele>
        <time>2026-03-11T14:22:14Z</time>
      </trkpt>
      <trkpt lat="43.55726" lon="6.46045">
        <ele>523</ele>
        <time>2026-03-11T14:22:16Z</time>
      </trkpt>
      <trkpt lat="43.55731" lon="6.46036">
        <ele>523</ele>
        <time>2026-03-11T14:22:24Z</time>
      </trkpt>
      <trkpt lat="43.55734" lon="6.46029">
        <ele>524</ele>
        <time>2026-03-11T14:22:28Z</time>
      </trkpt>
      <trkpt lat="43.55736" lon="6.46024">
        <ele>524</ele>
        <time>2026-03-11T14:22:32Z</time>
      </trkpt>
      <trkpt lat="43.55743" lon="6.46013">
        <ele>523</ele>
        <time>2026-03-11T14:22:40Z</time>
      </trkpt>
      <trkpt lat="43.55755" lon="6.45998">
        <ele>521</ele>
        <time>2026-03-11T14:22:54Z</time>
      </trkpt>
      <trkpt lat="43.55762" lon="6.45986">
        <ele>521</ele>
        <time>2026-03-11T14:23:04Z</time>
      </trkpt>
      <trkpt lat="43.55764" lon="6.45983">
        <ele>522</ele>
        <time>2026-03-11T14:23:06Z</time>
      </trkpt>
      <trkpt lat="43.55765" lon="6.45981">
        <ele>522</ele>
        <time>2026-03-11T14:23:08Z</time>
      </trkpt>
      <trkpt lat="43.55771" lon="6.45973">
        <ele>522</ele>
        <time>2026-03-11T14:23:14Z</time>
      </trkpt>
      <trkpt lat="43.55779" lon="6.4596">
        <ele>521</ele>
        <time>2026-03-11T14:23:26Z</time>
      </trkpt>
      <trkpt lat="43.5578" lon="6.45957">
        <ele>521</ele>
        <time>2026-03-11T14:23:28Z</time>
      </trkpt>
      <trkpt lat="43.55782" lon="6.45955">
        <ele>520</ele>
        <time>2026-03-11T14:23:30Z</time>
      </trkpt>
      <trkpt lat="43.55783" lon="6.45952">
        <ele>520</ele>
        <time>2026-03-11T14:23:32Z</time>
      </trkpt>
      <trkpt lat="43.55785" lon="6.45949">
        <ele>520</ele>
        <time>2026-03-11T14:23:34Z</time>
      </trkpt>
      <trkpt lat="43.55791" lon="6.45942">
        <ele>519</ele>
        <time>2026-03-11T14:23:40Z</time>
      </trkpt>
      <trkpt lat="43.55792" lon="6.45939">
        <ele>519</ele>
        <time>2026-03-11T14:23:42Z</time>
      </trkpt>
      <trkpt lat="43.55793" lon="6.45936">
        <ele>519</ele>
        <time>2026-03-11T14:23:44Z</time>
      </trkpt>
      <trkpt lat="43.55795" lon="6.45931">
        <ele>519</ele>
        <time>2026-03-11T14:23:48Z</time>
      </trkpt>
      <trkpt lat="43.55796" lon="6.45928">
        <ele>519</ele>
        <time>2026-03-11T14:23:50Z</time>
      </trkpt>
      <trkpt lat="43.55799" lon="6.45926">
        <ele>519</ele>
        <time>2026-03-11T14:23:52Z</time>
      </trkpt>
      <trkpt lat="43.558" lon="6.45923">
        <ele>519</ele>
        <time>2026-03-11T14:23:54Z</time>
      </trkpt>
      <trkpt lat="43.55803" lon="6.45919">
        <ele>519</ele>
        <time>2026-03-11T14:23:58Z</time>
      </trkpt>
      <trkpt lat="43.55805" lon="6.45916">
        <ele>519</ele>
        <time>2026-03-11T14:24:00Z</time>
      </trkpt>
      <trkpt lat="43.55805" lon="6.45913">
        <ele>519</ele>
        <time>2026-03-11T14:24:02Z</time>
      </trkpt>
      <trkpt lat="43.55821" lon="6.45886">
        <ele>520</ele>
        <time>2026-03-11T14:24:22Z</time>
      </trkpt>
      <trkpt lat="43.55822" lon="6.45884">
        <ele>520</ele>
        <time>2026-03-11T14:24:24Z</time>
      </trkpt>
      <trkpt lat="43.5583" lon="6.45867">
        <ele>519</ele>
        <time>2026-03-11T14:24:36Z</time>
      </trkpt>
      <trkpt lat="43.55831" lon="6.45864">
        <ele>518</ele>
        <time>2026-03-11T14:24:38Z</time>
      </trkpt>
      <trkpt lat="43.55834" lon="6.45861">
        <ele>518</ele>
        <time>2026-03-11T14:24:40Z</time>
      </trkpt>
      <trkpt lat="43.55834" lon="6.45858">
        <ele>518</ele>
        <time>2026-03-11T14:24:42Z</time>
      </trkpt>
      <trkpt lat="43.55836" lon="6.45852">
        <ele>518</ele>
        <time>2026-03-11T14:24:46Z</time>
      </trkpt>
      <trkpt lat="43.5584" lon="6.45843">
        <ele>518</ele>
        <time>2026-03-11T14:24:52Z</time>
      </trkpt>
      <trkpt lat="43.55841" lon="6.4584">
        <ele>518</ele>
        <time>2026-03-11T14:24:54Z</time>
      </trkpt>
      <trkpt lat="43.55842" lon="6.45837">
        <ele>518</ele>
        <time>2026-03-11T14:24:56Z</time>
      </trkpt>
      <trkpt lat="43.55844" lon="6.45835">
        <ele>518</ele>
        <time>2026-03-11T14:24:58Z</time>
      </trkpt>
      <trkpt lat="43.55849" lon="6.45821">
        <ele>518</ele>
        <time>2026-03-11T14:25:06Z</time>
      </trkpt>
      <trkpt lat="43.55851" lon="6.45819">
        <ele>517</ele>
        <time>2026-03-11T14:25:08Z</time>
      </trkpt>
      <trkpt lat="43.55853" lon="6.45814">
        <ele>517</ele>
        <time>2026-03-11T14:25:12Z</time>
      </trkpt>
      <trkpt lat="43.55856" lon="6.45809">
        <ele>517</ele>
        <time>2026-03-11T14:25:16Z</time>
      </trkpt>
      <trkpt lat="43.55864" lon="6.45802">
        <ele>518</ele>
        <time>2026-03-11T14:25:24Z</time>
      </trkpt>
      <trkpt lat="43.55864" lon="6.45799">
        <ele>518</ele>
        <time>2026-03-11T14:25:26Z</time>
      </trkpt>
      <trkpt lat="43.55868" lon="6.4579">
        <ele>518</ele>
        <time>2026-03-11T14:25:32Z</time>
      </trkpt>
      <trkpt lat="43.55874" lon="6.45786">
        <ele>518</ele>
        <time>2026-03-11T14:25:36Z</time>
      </trkpt>
      <trkpt lat="43.55876" lon="6.45782">
        <ele>518</ele>
        <time>2026-03-11T14:25:40Z</time>
      </trkpt>
      <trkpt lat="43.55877" lon="6.4578">
        <ele>519</ele>
        <time>2026-03-11T14:25:42Z</time>
      </trkpt>
      <trkpt lat="43.55878" lon="6.45778">
        <ele>519</ele>
        <time>2026-03-11T14:25:44Z</time>
      </trkpt>
      <trkpt lat="43.55881" lon="6.45776">
        <ele>519</ele>
        <time>2026-03-11T14:25:46Z</time>
      </trkpt>
      <trkpt lat="43.55882" lon="6.45773">
        <ele>520</ele>
        <time>2026-03-11T14:25:48Z</time>
      </trkpt>
      <trkpt lat="43.55884" lon="6.45771">
        <ele>520</ele>
        <time>2026-03-11T14:25:50Z</time>
      </trkpt>
      <trkpt lat="43.55887" lon="6.45766">
        <ele>519</ele>
        <time>2026-03-11T14:25:54Z</time>
      </trkpt>
      <trkpt lat="43.5589" lon="6.45764">
        <ele>519</ele>
        <time>2026-03-11T14:25:56Z</time>
      </trkpt>
      <trkpt lat="43.55893" lon="6.45764">
        <ele>519</ele>
        <time>2026-03-11T14:25:58Z</time>
      </trkpt>
      <trkpt lat="43.55896" lon="6.4576">
        <ele>518</ele>
        <time>2026-03-11T14:26:02Z</time>
      </trkpt>
      <trkpt lat="43.55898" lon="6.45758">
        <ele>518</ele>
        <time>2026-03-11T14:26:04Z</time>
      </trkpt>
      <trkpt lat="43.55901" lon="6.45756">
        <ele>518</ele>
        <time>2026-03-11T14:26:06Z</time>
      </trkpt>
      <trkpt lat="43.5591" lon="6.45744">
        <ele>519</ele>
        <time>2026-03-11T14:26:16Z</time>
      </trkpt>
      <trkpt lat="43.55911" lon="6.45741">
        <ele>519</ele>
        <time>2026-03-11T14:26:18Z</time>
      </trkpt>
      <trkpt lat="43.55912" lon="6.45738">
        <ele>520</ele>
        <time>2026-03-11T14:26:20Z</time>
      </trkpt>
      <trkpt lat="43.55915" lon="6.45736">
        <ele>520</ele>
        <time>2026-03-11T14:26:22Z</time>
      </trkpt>
      <trkpt lat="43.55917" lon="6.45734">
        <ele>520</ele>
        <time>2026-03-11T14:26:24Z</time>
      </trkpt>
      <trkpt lat="43.55919" lon="6.45731">
        <ele>520</ele>
        <time>2026-03-11T14:26:26Z</time>
      </trkpt>
      <trkpt lat="43.55921" lon="6.4573">
        <ele>520</ele>
        <time>2026-03-11T14:26:28Z</time>
      </trkpt>
      <trkpt lat="43.55923" lon="6.45727">
        <ele>520</ele>
        <time>2026-03-11T14:26:32Z</time>
      </trkpt>
      <trkpt lat="43.55926" lon="6.45725">
        <ele>520</ele>
        <time>2026-03-11T14:26:34Z</time>
      </trkpt>
      <trkpt lat="43.55931" lon="6.4572">
        <ele>519</ele>
        <time>2026-03-11T14:26:38Z</time>
      </trkpt>
      <trkpt lat="43.55933" lon="6.45719">
        <ele>519</ele>
        <time>2026-03-11T14:26:40Z</time>
      </trkpt>
      <trkpt lat="43.55935" lon="6.45717">
        <ele>519</ele>
        <time>2026-03-11T14:26:42Z</time>
      </trkpt>
      <trkpt lat="43.55937" lon="6.45715">
        <ele>519</ele>
        <time>2026-03-11T14:26:44Z</time>
      </trkpt>
      <trkpt lat="43.55939" lon="6.45712">
        <ele>519</ele>
        <time>2026-03-11T14:26:46Z</time>
      </trkpt>
      <trkpt lat="43.55941" lon="6.45711">
        <ele>518</ele>
        <time>2026-03-11T14:26:48Z</time>
      </trkpt>
      <trkpt lat="43.55944" lon="6.4571">
        <ele>518</ele>
        <time>2026-03-11T14:26:50Z</time>
      </trkpt>
      <trkpt lat="43.55946" lon="6.45709">
        <ele>518</ele>
        <time>2026-03-11T14:26:52Z</time>
      </trkpt>
      <trkpt lat="43.55948" lon="6.45706">
        <ele>519</ele>
        <time>2026-03-11T14:26:54Z</time>
      </trkpt>
      <trkpt lat="43.55949" lon="6.45704">
        <ele>519</ele>
        <time>2026-03-11T14:26:56Z</time>
      </trkpt>
      <trkpt lat="43.55951" lon="6.45701">
        <ele>519</ele>
        <time>2026-03-11T14:26:58Z</time>
      </trkpt>
      <trkpt lat="43.55958" lon="6.45696">
        <ele>519</ele>
        <time>2026-03-11T14:27:04Z</time>
      </trkpt>
      <trkpt lat="43.55963" lon="6.45686">
        <ele>519</ele>
        <time>2026-03-11T14:27:12Z</time>
      </trkpt>
      <trkpt lat="43.55965" lon="6.45684">
        <ele>518</ele>
        <time>2026-03-11T14:27:14Z</time>
      </trkpt>
      <trkpt lat="43.55982" lon="6.45667">
        <ele>517</ele>
        <time>2026-03-11T14:27:30Z</time>
      </trkpt>
      <trkpt lat="43.55994" lon="6.45654">
        <ele>518</ele>
        <time>2026-03-11T14:27:42Z</time>
      </trkpt>
      <trkpt lat="43.56005" lon="6.45648">
        <ele>518</ele>
        <time>2026-03-11T14:27:50Z</time>
      </trkpt>
      <trkpt lat="43.56006" lon="6.45646">
        <ele>517</ele>
        <time>2026-03-11T14:27:52Z</time>
      </trkpt>
      <trkpt lat="43.56027" lon="6.4563">
        <ele>516</ele>
        <time>2026-03-11T14:28:10Z</time>
      </trkpt>
      <trkpt lat="43.56034" lon="6.45629">
        <ele>517</ele>
        <time>2026-03-11T14:28:16Z</time>
      </trkpt>
      <trkpt lat="43.56048" lon="6.45619">
        <ele>516</ele>
        <time>2026-03-11T14:28:28Z</time>
      </trkpt>
      <trkpt lat="43.56049" lon="6.45618">
        <ele>516</ele>
        <time>2026-03-11T14:28:30Z</time>
      </trkpt>
      <trkpt lat="43.56051" lon="6.45616">
        <ele>515</ele>
        <time>2026-03-11T14:28:32Z</time>
      </trkpt>
      <trkpt lat="43.56075" lon="6.45593">
        <ele>512</ele>
        <time>2026-03-11T14:28:56Z</time>
      </trkpt>
      <trkpt lat="43.56076" lon="6.45591">
        <ele>512</ele>
        <time>2026-03-11T14:28:58Z</time>
      </trkpt>
      <trkpt lat="43.56096" lon="6.45571">
        <ele>510</ele>
        <time>2026-03-11T14:29:16Z</time>
      </trkpt>
      <trkpt lat="43.56098" lon="6.4557">
        <ele>510</ele>
        <time>2026-03-11T14:29:18Z</time>
      </trkpt>
      <trkpt lat="43.56101" lon="6.45571">
        <ele>510</ele>
        <time>2026-03-11T14:29:20Z</time>
      </trkpt>
      <trkpt lat="43.56103" lon="6.45572">
        <ele>510</ele>
        <time>2026-03-11T14:29:22Z</time>
      </trkpt>
      <trkpt lat="43.56105" lon="6.45571">
        <ele>511</ele>
        <time>2026-03-11T14:29:24Z</time>
      </trkpt>
      <trkpt lat="43.5611" lon="6.45562">
        <ele>510</ele>
        <time>2026-03-11T14:29:30Z</time>
      </trkpt>
      <trkpt lat="43.56112" lon="6.45561">
        <ele>510</ele>
        <time>2026-03-11T14:29:32Z</time>
      </trkpt>
      <trkpt lat="43.56121" lon="6.45553">
        <ele>509</ele>
        <time>2026-03-11T14:29:40Z</time>
      </trkpt>
      <trkpt lat="43.56122" lon="6.4555">
        <ele>509</ele>
        <time>2026-03-11T14:29:42Z</time>
      </trkpt>
      <trkpt lat="43.56123" lon="6.45544">
        <ele>508</ele>
        <time>2026-03-11T14:29:46Z</time>
      </trkpt>
      <trkpt lat="43.56125" lon="6.45538">
        <ele>507</ele>
        <time>2026-03-11T14:29:50Z</time>
      </trkpt>
      <trkpt lat="43.56127" lon="6.45536">
        <ele>506</ele>
        <time>2026-03-11T14:29:52Z</time>
      </trkpt>
      <trkpt lat="43.56128" lon="6.45534">
        <ele>506</ele>
        <time>2026-03-11T14:29:54Z</time>
      </trkpt>
      <trkpt lat="43.56134" lon="6.45525">
        <ele>504</ele>
        <time>2026-03-11T14:30:02Z</time>
      </trkpt>
      <trkpt lat="43.56148" lon="6.45512">
        <ele>503</ele>
        <time>2026-03-11T14:30:16Z</time>
      </trkpt>
      <trkpt lat="43.56151" lon="6.4551">
        <ele>503</ele>
        <time>2026-03-11T14:30:20Z</time>
      </trkpt>
      <trkpt lat="43.56154" lon="6.45511">
        <ele>501</ele>
        <time>2026-03-11T14:30:22Z</time>
      </trkpt>
      <trkpt lat="43.56156" lon="6.4551">
        <ele>500</ele>
        <time>2026-03-11T14:30:24Z</time>
      </trkpt>
      <trkpt lat="43.56158" lon="6.45507">
        <ele>499</ele>
        <time>2026-03-11T14:30:28Z</time>
      </trkpt>
      <trkpt lat="43.5616" lon="6.45506">
        <ele>499</ele>
        <time>2026-03-11T14:30:32Z</time>
      </trkpt>
      <trkpt lat="43.56162" lon="6.45505">
        <ele>500</ele>
        <time>2026-03-11T14:30:34Z</time>
      </trkpt>
      <trkpt lat="43.56163" lon="6.45503">
        <ele>500</ele>
        <time>2026-03-11T14:30:36Z</time>
      </trkpt>
      <trkpt lat="43.56165" lon="6.45501">
        <ele>500</ele>
        <time>2026-03-11T14:30:38Z</time>
      </trkpt>
      <trkpt lat="43.56167" lon="6.45499">
        <ele>501</ele>
        <time>2026-03-11T14:30:40Z</time>
      </trkpt>
      <trkpt lat="43.5617" lon="6.45495">
        <ele>502</ele>
        <time>2026-03-11T14:30:44Z</time>
      </trkpt>
      <trkpt lat="43.56176" lon="6.45492">
        <ele>503</ele>
        <time>2026-03-11T14:30:49Z</time>
      </trkpt>
      <trkpt lat="43.56179" lon="6.45491">
        <ele>504</ele>
        <time>2026-03-11T14:30:55Z</time>
      </trkpt>
      <trkpt lat="43.56181" lon="6.45491">
        <ele>504</ele>
        <time>2026-03-11T14:30:57Z</time>
      </trkpt>
      <trkpt lat="43.56184" lon="6.45491">
        <ele>505</ele>
        <time>2026-03-11T14:30:59Z</time>
      </trkpt>
      <trkpt lat="43.56186" lon="6.45493">
        <ele>505</ele>
        <time>2026-03-11T14:31:01Z</time>
      </trkpt>
      <trkpt lat="43.56191" lon="6.45496">
        <ele>503</ele>
        <time>2026-03-11T14:31:07Z</time>
      </trkpt>
      <trkpt lat="43.56199" lon="6.45495">
        <ele>500</ele>
        <time>2026-03-11T14:31:17Z</time>
      </trkpt>
      <trkpt lat="43.56205" lon="6.45495">
        <ele>500</ele>
        <time>2026-03-11T14:31:23Z</time>
      </trkpt>
      <trkpt lat="43.56208" lon="6.45498">
        <ele>500</ele>
        <time>2026-03-11T14:31:27Z</time>
      </trkpt>
      <trkpt lat="43.56211" lon="6.45499">
        <ele>500</ele>
        <time>2026-03-11T14:31:29Z</time>
      </trkpt>
      <trkpt lat="43.56214" lon="6.45501">
        <ele>499</ele>
        <time>2026-03-11T14:31:31Z</time>
      </trkpt>
      <trkpt lat="43.56216" lon="6.45503">
        <ele>499</ele>
        <time>2026-03-11T14:31:33Z</time>
      </trkpt>
      <trkpt lat="43.56219" lon="6.45505">
        <ele>499</ele>
        <time>2026-03-11T14:31:37Z</time>
      </trkpt>
      <trkpt lat="43.56223" lon="6.45507">
        <ele>498</ele>
        <time>2026-03-11T14:31:41Z</time>
      </trkpt>
      <trkpt lat="43.56228" lon="6.45509">
        <ele>498</ele>
        <time>2026-03-11T14:31:45Z</time>
      </trkpt>
      <trkpt lat="43.56231" lon="6.45512">
        <ele>498</ele>
        <time>2026-03-11T14:31:49Z</time>
      </trkpt>
      <trkpt lat="43.56233" lon="6.45514">
        <ele>498</ele>
        <time>2026-03-11T14:31:51Z</time>
      </trkpt>
      <trkpt lat="43.56235" lon="6.45516">
        <ele>498</ele>
        <time>2026-03-11T14:31:53Z</time>
      </trkpt>
      <trkpt lat="43.56237" lon="6.45517">
        <ele>499</ele>
        <time>2026-03-11T14:31:55Z</time>
      </trkpt>
      <trkpt lat="43.5624" lon="6.45518">
        <ele>499</ele>
        <time>2026-03-11T14:31:57Z</time>
      </trkpt>
      <trkpt lat="43.56242" lon="6.45519">
        <ele>499</ele>
        <time>2026-03-11T14:31:59Z</time>
      </trkpt>
      <trkpt lat="43.5625" lon="6.45528">
        <ele>498</ele>
        <time>2026-03-11T14:32:09Z</time>
      </trkpt>
      <trkpt lat="43.56252" lon="6.45532">
        <ele>499</ele>
        <time>2026-03-11T14:32:13Z</time>
      </trkpt>
      <trkpt lat="43.56253" lon="6.45534">
        <ele>499</ele>
        <time>2026-03-11T14:32:15Z</time>
      </trkpt>
      <trkpt lat="43.56258" lon="6.45539">
        <ele>498</ele>
        <time>2026-03-11T14:32:19Z</time>
      </trkpt>
      <trkpt lat="43.5626" lon="6.45542">
        <ele>498</ele>
        <time>2026-03-11T14:32:23Z</time>
      </trkpt>
      <trkpt lat="43.56265" lon="6.4555">
        <ele>497</ele>
        <time>2026-03-11T14:32:29Z</time>
      </trkpt>
      <trkpt lat="43.56273" lon="6.45556">
        <ele>495</ele>
        <time>2026-03-11T14:32:39Z</time>
      </trkpt>
      <trkpt lat="43.56278" lon="6.45558">
        <ele>494</ele>
        <time>2026-03-11T14:32:43Z</time>
      </trkpt>
      <trkpt lat="43.56281" lon="6.45559">
        <ele>494</ele>
        <time>2026-03-11T14:32:45Z</time>
      </trkpt>
      <trkpt lat="43.56289" lon="6.45565">
        <ele>493</ele>
        <time>2026-03-11T14:32:53Z</time>
      </trkpt>
      <trkpt lat="43.56293" lon="6.45568">
        <ele>492</ele>
        <time>2026-03-11T14:32:57Z</time>
      </trkpt>
      <trkpt lat="43.56298" lon="6.45571">
        <ele>492</ele>
        <time>2026-03-11T14:33:01Z</time>
      </trkpt>
      <trkpt lat="43.56302" lon="6.45574">
        <ele>493</ele>
        <time>2026-03-11T14:33:05Z</time>
      </trkpt>
      <trkpt lat="43.5631" lon="6.4558">
        <ele>495</ele>
        <time>2026-03-11T14:33:13Z</time>
      </trkpt>
      <trkpt lat="43.56313" lon="6.45585">
        <ele>495</ele>
        <time>2026-03-11T14:33:17Z</time>
      </trkpt>
      <trkpt lat="43.56317" lon="6.45591">
        <ele>495</ele>
        <time>2026-03-11T14:33:21Z</time>
      </trkpt>
      <trkpt lat="43.56319" lon="6.45596">
        <ele>495</ele>
        <time>2026-03-11T14:33:25Z</time>
      </trkpt>
      <trkpt lat="43.5632" lon="6.45599">
        <ele>495</ele>
        <time>2026-03-11T14:33:27Z</time>
      </trkpt>
      <trkpt lat="43.5632" lon="6.45602">
        <ele>494</ele>
        <time>2026-03-11T14:33:29Z</time>
      </trkpt>
      <trkpt lat="43.56321" lon="6.45605">
        <ele>494</ele>
        <time>2026-03-11T14:33:31Z</time>
      </trkpt>
      <trkpt lat="43.56322" lon="6.45608">
        <ele>494</ele>
        <time>2026-03-11T14:33:33Z</time>
      </trkpt>
      <trkpt lat="43.56325" lon="6.45615">
        <ele>494</ele>
        <time>2026-03-11T14:33:39Z</time>
      </trkpt>
      <trkpt lat="43.56326" lon="6.45622">
        <ele>495</ele>
        <time>2026-03-11T14:33:43Z</time>
      </trkpt>
      <trkpt lat="43.56329" lon="6.4563">
        <ele>495</ele>
        <time>2026-03-11T14:33:49Z</time>
      </trkpt>
      <trkpt lat="43.5633" lon="6.45632">
        <ele>495</ele>
        <time>2026-03-11T14:33:53Z</time>
      </trkpt>
      <trkpt lat="43.5633" lon="6.45635">
        <ele>496</ele>
        <time>2026-03-11T14:33:57Z</time>
      </trkpt>
      <trkpt lat="43.5633" lon="6.45638">
        <ele>496</ele>
        <time>2026-03-11T14:34:01Z</time>
      </trkpt>
      <trkpt lat="43.56328" lon="6.4564">
        <ele>497</ele>
        <time>2026-03-11T14:34:05Z</time>
      </trkpt>
      <trkpt lat="43.56327" lon="6.45643">
        <ele>497</ele>
        <time>2026-03-11T14:34:11Z</time>
      </trkpt>
      <trkpt lat="43.56325" lon="6.45642">
        <ele>497</ele>
        <time>2026-03-11T14:34:27Z</time>
      </trkpt>
      <trkpt lat="43.56322" lon="6.45644">
        <ele>496</ele>
        <time>2026-03-11T14:34:55Z</time>
      </trkpt>
      <trkpt lat="43.56323" lon="6.45647">
        <ele>496</ele>
        <time>2026-03-11T14:35:03Z</time>
      </trkpt>
      <trkpt lat="43.56318" lon="6.45657">
        <ele>495</ele>
        <time>2026-03-11T14:35:11Z</time>
      </trkpt>
      <trkpt lat="43.56317" lon="6.45665">
        <ele>495</ele>
        <time>2026-03-11T14:35:19Z</time>
      </trkpt>
      <trkpt lat="43.56317" lon="6.45671">
        <ele>495</ele>
        <time>2026-03-11T14:35:23Z</time>
      </trkpt>
      <trkpt lat="43.56315" lon="6.45684">
        <ele>495</ele>
        <time>2026-03-11T14:35:33Z</time>
      </trkpt>
      <trkpt lat="43.5631" lon="6.45696">
        <ele>494</ele>
        <time>2026-03-11T14:35:41Z</time>
      </trkpt>
      <trkpt lat="43.56308" lon="6.45698">
        <ele>494</ele>
        <time>2026-03-11T14:35:43Z</time>
      </trkpt>
      <trkpt lat="43.56307" lon="6.45701">
        <ele>494</ele>
        <time>2026-03-11T14:35:45Z</time>
      </trkpt>
      <trkpt lat="43.56304" lon="6.45706">
        <ele>493</ele>
        <time>2026-03-11T14:35:49Z</time>
      </trkpt>
      <trkpt lat="43.56304" lon="6.45709">
        <ele>493</ele>
        <time>2026-03-11T14:35:51Z</time>
      </trkpt>
      <trkpt lat="43.56303" lon="6.45712">
        <ele>493</ele>
        <time>2026-03-11T14:35:53Z</time>
      </trkpt>
      <trkpt lat="43.56302" lon="6.45717">
        <ele>492</ele>
        <time>2026-03-11T14:35:55Z</time>
      </trkpt>
      <trkpt lat="43.56301" lon="6.4572">
        <ele>492</ele>
        <time>2026-03-11T14:35:57Z</time>
      </trkpt>
      <trkpt lat="43.56299" lon="6.45729">
        <ele>492</ele>
        <time>2026-03-11T14:36:05Z</time>
      </trkpt>
      <trkpt lat="43.56297" lon="6.45731">
        <ele>492</ele>
        <time>2026-03-11T14:36:07Z</time>
      </trkpt>
      <trkpt lat="43.56288" lon="6.45746">
        <ele>491</ele>
        <time>2026-03-11T14:36:17Z</time>
      </trkpt>
      <trkpt lat="43.56287" lon="6.4575">
        <ele>491</ele>
        <time>2026-03-11T14:36:19Z</time>
      </trkpt>
      <trkpt lat="43.56287" lon="6.45755">
        <ele>490</ele>
        <time>2026-03-11T14:36:21Z</time>
      </trkpt>
      <trkpt lat="43.56286" lon="6.45759">
        <ele>490</ele>
        <time>2026-03-11T14:36:23Z</time>
      </trkpt>
      <trkpt lat="43.56284" lon="6.45762">
        <ele>490</ele>
        <time>2026-03-11T14:36:25Z</time>
      </trkpt>
      <trkpt lat="43.5628" lon="6.4577">
        <ele>488</ele>
        <time>2026-03-11T14:36:31Z</time>
      </trkpt>
      <trkpt lat="43.56279" lon="6.45773">
        <ele>487</ele>
        <time>2026-03-11T14:36:33Z</time>
      </trkpt>
      <trkpt lat="43.56273" lon="6.45784">
        <ele>486</ele>
        <time>2026-03-11T14:36:41Z</time>
      </trkpt>
      <trkpt lat="43.56272" lon="6.45788">
        <ele>485</ele>
        <time>2026-03-11T14:36:43Z</time>
      </trkpt>
      <trkpt lat="43.56271" lon="6.4579">
        <ele>485</ele>
        <time>2026-03-11T14:36:45Z</time>
      </trkpt>
      <trkpt lat="43.5627" lon="6.45798">
        <ele>484</ele>
        <time>2026-03-11T14:36:51Z</time>
      </trkpt>
      <trkpt lat="43.56267" lon="6.45803">
        <ele>483</ele>
        <time>2026-03-11T14:36:55Z</time>
      </trkpt>
      <trkpt lat="43.56267" lon="6.45806">
        <ele>483</ele>
        <time>2026-03-11T14:36:57Z</time>
      </trkpt>
      <trkpt lat="43.56263" lon="6.45817">
        <ele>483</ele>
        <time>2026-03-11T14:37:03Z</time>
      </trkpt>
      <trkpt lat="43.56262" lon="6.4582">
        <ele>483</ele>
        <time>2026-03-11T14:37:05Z</time>
      </trkpt>
      <trkpt lat="43.5625" lon="6.45837">
        <ele>485</ele>
        <time>2026-03-11T14:37:19Z</time>
      </trkpt>
      <trkpt lat="43.56249" lon="6.45842">
        <ele>486</ele>
        <time>2026-03-11T14:37:23Z</time>
      </trkpt>
      <trkpt lat="43.56247" lon="6.45845">
        <ele>486</ele>
        <time>2026-03-11T14:37:25Z</time>
      </trkpt>
      <trkpt lat="43.5624" lon="6.45855">
        <ele>487</ele>
        <time>2026-03-11T14:37:33Z</time>
      </trkpt>
      <trkpt lat="43.56238" lon="6.45861">
        <ele>488</ele>
        <time>2026-03-11T14:37:37Z</time>
      </trkpt>
      <trkpt lat="43.56236" lon="6.45862">
        <ele>488</ele>
        <time>2026-03-11T14:37:39Z</time>
      </trkpt>
      <trkpt lat="43.56233" lon="6.45869">
        <ele>486</ele>
        <time>2026-03-11T14:37:43Z</time>
      </trkpt>
      <trkpt lat="43.56232" lon="6.45878">
        <ele>485</ele>
        <time>2026-03-11T14:37:49Z</time>
      </trkpt>
      <trkpt lat="43.56229" lon="6.45883">
        <ele>486</ele>
        <time>2026-03-11T14:37:53Z</time>
      </trkpt>
      <trkpt lat="43.56219" lon="6.45894">
        <ele>486</ele>
        <time>2026-03-11T14:38:01Z</time>
      </trkpt>
      <trkpt lat="43.56218" lon="6.45896">
        <ele>485</ele>
        <time>2026-03-11T14:38:03Z</time>
      </trkpt>
      <trkpt lat="43.56216" lon="6.45897">
        <ele>486</ele>
        <time>2026-03-11T14:38:05Z</time>
      </trkpt>
      <trkpt lat="43.56199" lon="6.45907">
        <ele>490</ele>
        <time>2026-03-11T14:38:35Z</time>
      </trkpt>
      <trkpt lat="43.56196" lon="6.4591">
        <ele>489</ele>
        <time>2026-03-11T14:38:39Z</time>
      </trkpt>
      <trkpt lat="43.56194" lon="6.4591">
        <ele>489</ele>
        <time>2026-03-11T14:38:41Z</time>
      </trkpt>
      <trkpt lat="43.56192" lon="6.45912">
        <ele>490</ele>
        <time>2026-03-11T14:38:43Z</time>
      </trkpt>
      <trkpt lat="43.5619" lon="6.45912">
        <ele>490</ele>
        <time>2026-03-11T14:38:45Z</time>
      </trkpt>
      <trkpt lat="43.56185" lon="6.45916">
        <ele>489</ele>
        <time>2026-03-11T14:38:49Z</time>
      </trkpt>
      <trkpt lat="43.56183" lon="6.45918">
        <ele>489</ele>
        <time>2026-03-11T14:38:51Z</time>
      </trkpt>
      <trkpt lat="43.56182" lon="6.45919">
        <ele>489</ele>
        <time>2026-03-11T14:38:53Z</time>
      </trkpt>
      <trkpt lat="43.56178" lon="6.45922">
        <ele>488</ele>
        <time>2026-03-11T14:38:57Z</time>
      </trkpt>
      <trkpt lat="43.56176" lon="6.45924">
        <ele>487</ele>
        <time>2026-03-11T14:38:59Z</time>
      </trkpt>
      <trkpt lat="43.56172" lon="6.45928">
        <ele>487</ele>
        <time>2026-03-11T14:39:03Z</time>
      </trkpt>
      <trkpt lat="43.56169" lon="6.45934">
        <ele>486</ele>
        <time>2026-03-11T14:39:09Z</time>
      </trkpt>
      <trkpt lat="43.56166" lon="6.45938">
        <ele>486</ele>
        <time>2026-03-11T14:39:15Z</time>
      </trkpt>
      <trkpt lat="43.56156" lon="6.45941">
        <ele>486</ele>
        <time>2026-03-11T14:39:21Z</time>
      </trkpt>
      <trkpt lat="43.56154" lon="6.45942">
        <ele>486</ele>
        <time>2026-03-11T14:39:23Z</time>
      </trkpt>
      <trkpt lat="43.56153" lon="6.45944">
        <ele>486</ele>
        <time>2026-03-11T14:39:25Z</time>
      </trkpt>
      <trkpt lat="43.56152" lon="6.45947">
        <ele>486</ele>
        <time>2026-03-11T14:39:27Z</time>
      </trkpt>
      <trkpt lat="43.56151" lon="6.4595">
        <ele>486</ele>
        <time>2026-03-11T14:39:29Z</time>
      </trkpt>
      <trkpt lat="43.56149" lon="6.45958">
        <ele>487</ele>
        <time>2026-03-11T14:39:35Z</time>
      </trkpt>
      <trkpt lat="43.56142" lon="6.45966">
        <ele>488</ele>
        <time>2026-03-11T14:39:41Z</time>
      </trkpt>
      <trkpt lat="43.56141" lon="6.45972">
        <ele>489</ele>
        <time>2026-03-11T14:39:45Z</time>
      </trkpt>
      <trkpt lat="43.5614" lon="6.45974">
        <ele>489</ele>
        <time>2026-03-11T14:39:47Z</time>
      </trkpt>
      <trkpt lat="43.56139" lon="6.45977">
        <ele>489</ele>
        <time>2026-03-11T14:39:49Z</time>
      </trkpt>
      <trkpt lat="43.56138" lon="6.4598">
        <ele>489</ele>
        <time>2026-03-11T14:39:51Z</time>
      </trkpt>
      <trkpt lat="43.56135" lon="6.45984">
        <ele>490</ele>
        <time>2026-03-11T14:39:55Z</time>
      </trkpt>
      <trkpt lat="43.56124" lon="6.46004">
        <ele>493</ele>
        <time>2026-03-11T14:40:13Z</time>
      </trkpt>
      <trkpt lat="43.56122" lon="6.46007">
        <ele>493</ele>
        <time>2026-03-11T14:40:15Z</time>
      </trkpt>
      <trkpt lat="43.56116" lon="6.46028">
        <ele>491</ele>
        <time>2026-03-11T14:40:27Z</time>
      </trkpt>
      <trkpt lat="43.56115" lon="6.46031">
        <ele>491</ele>
        <time>2026-03-11T14:40:29Z</time>
      </trkpt>
      <trkpt lat="43.56114" lon="6.46033">
        <ele>491</ele>
        <time>2026-03-11T14:40:31Z</time>
      </trkpt>
      <trkpt lat="43.56111" lon="6.46035">
        <ele>491</ele>
        <time>2026-03-11T14:40:35Z</time>
      </trkpt>
      <trkpt lat="43.56107" lon="6.46038">
        <ele>490</ele>
        <time>2026-03-11T14:40:39Z</time>
      </trkpt>
      <trkpt lat="43.56103" lon="6.46041">
        <ele>490</ele>
        <time>2026-03-11T14:40:45Z</time>
      </trkpt>
      <trkpt lat="43.561" lon="6.46044">
        <ele>490</ele>
        <time>2026-03-11T14:40:49Z</time>
      </trkpt>
      <trkpt lat="43.56097" lon="6.46046">
        <ele>490</ele>
        <time>2026-03-11T14:40:53Z</time>
      </trkpt>
      <trkpt lat="43.56093" lon="6.46049">
        <ele>490</ele>
        <time>2026-03-11T14:40:59Z</time>
      </trkpt>
      <trkpt lat="43.56091" lon="6.4605">
        <ele>490</ele>
        <time>2026-03-11T14:41:03Z</time>
      </trkpt>
      <trkpt lat="43.56089" lon="6.46053">
        <ele>491</ele>
        <time>2026-03-11T14:41:07Z</time>
      </trkpt>
      <trkpt lat="43.56087" lon="6.46054">
        <ele>492</ele>
        <time>2026-03-11T14:41:11Z</time>
      </trkpt>
      <trkpt lat="43.56085" lon="6.46059">
        <ele>496</ele>
        <time>2026-03-11T14:41:19Z</time>
      </trkpt>
      <trkpt lat="43.56083" lon="6.46062">
        <ele>498</ele>
        <time>2026-03-11T14:41:23Z</time>
      </trkpt>
      <trkpt lat="43.56083" lon="6.46065">
        <ele>499</ele>
        <time>2026-03-11T14:41:27Z</time>
      </trkpt>
      <trkpt lat="43.56082" lon="6.46071">
        <ele>502</ele>
        <time>2026-03-11T14:41:35Z</time>
      </trkpt>
      <trkpt lat="43.56082" lon="6.46075">
        <ele>504</ele>
        <time>2026-03-11T14:41:41Z</time>
      </trkpt>
      <trkpt lat="43.5608" lon="6.46078">
        <ele>505</ele>
        <time>2026-03-11T14:41:45Z</time>
      </trkpt>
      <trkpt lat="43.56076" lon="6.46083">
        <ele>506</ele>
        <time>2026-03-11T14:41:51Z</time>
      </trkpt>
      <trkpt lat="43.56076" lon="6.46087">
        <ele>506</ele>
        <time>2026-03-11T14:41:55Z</time>
      </trkpt>
      <trkpt lat="43.56077" lon="6.46098">
        <ele>508</ele>
        <time>2026-03-11T14:42:05Z</time>
      </trkpt>
      <trkpt lat="43.56076" lon="6.461">
        <ele>509</ele>
        <time>2026-03-11T14:42:07Z</time>
      </trkpt>
      <trkpt lat="43.56076" lon="6.46104">
        <ele>509</ele>
        <time>2026-03-11T14:42:11Z</time>
      </trkpt>
      <trkpt lat="43.56075" lon="6.46107">
        <ele>510</ele>
        <time>2026-03-11T14:42:15Z</time>
      </trkpt>
      <trkpt lat="43.56075" lon="6.46111">
        <ele>510</ele>
        <time>2026-03-11T14:42:19Z</time>
      </trkpt>
      <trkpt lat="43.56077" lon="6.46114">
        <ele>511</ele>
        <time>2026-03-11T14:42:23Z</time>
      </trkpt>
      <trkpt lat="43.5608" lon="6.46125">
        <ele>512</ele>
        <time>2026-03-11T14:42:31Z</time>
      </trkpt>
      <trkpt lat="43.5608" lon="6.46128">
        <ele>513</ele>
        <time>2026-03-11T14:42:35Z</time>
      </trkpt>
      <trkpt lat="43.5607" lon="6.46136">
        <ele>515</ele>
        <time>2026-03-11T14:42:47Z</time>
      </trkpt>
      <trkpt lat="43.56069" lon="6.46138">
        <ele>515</ele>
        <time>2026-03-11T14:42:49Z</time>
      </trkpt>
      <trkpt lat="43.56067" lon="6.46139">
        <ele>516</ele>
        <time>2026-03-11T14:42:51Z</time>
      </trkpt>
      <trkpt lat="43.56065" lon="6.4614">
        <ele>516</ele>
        <time>2026-03-11T14:42:53Z</time>
      </trkpt>
      <trkpt lat="43.56063" lon="6.46141">
        <ele>516</ele>
        <time>2026-03-11T14:42:55Z</time>
      </trkpt>
      <trkpt lat="43.56056" lon="6.46156">
        <ele>516</ele>
        <time>2026-03-11T14:43:11Z</time>
      </trkpt>
      <trkpt lat="43.56052" lon="6.46165">
        <ele>517</ele>
        <time>2026-03-11T14:43:19Z</time>
      </trkpt>
      <trkpt lat="43.56049" lon="6.46172">
        <ele>517</ele>
        <time>2026-03-11T14:43:25Z</time>
      </trkpt>
      <trkpt lat="43.56047" lon="6.46175">
        <ele>517</ele>
        <time>2026-03-11T14:43:29Z</time>
      </trkpt>
      <trkpt lat="43.56047" lon="6.46178">
        <ele>517</ele>
        <time>2026-03-11T14:43:31Z</time>
      </trkpt>
      <trkpt lat="43.56043" lon="6.46184">
        <ele>519</ele>
        <time>2026-03-11T14:43:37Z</time>
      </trkpt>
      <trkpt lat="43.56042" lon="6.46186">
        <ele>520</ele>
        <time>2026-03-11T14:43:39Z</time>
      </trkpt>
      <trkpt lat="43.5604" lon="6.46188">
        <ele>520</ele>
        <time>2026-03-11T14:43:41Z</time>
      </trkpt>
      <trkpt lat="43.56039" lon="6.46191">
        <ele>521</ele>
        <time>2026-03-11T14:43:43Z</time>
      </trkpt>
      <trkpt lat="43.56038" lon="6.46194">
        <ele>522</ele>
        <time>2026-03-11T14:43:47Z</time>
      </trkpt>
      <trkpt lat="43.56039" lon="6.46205">
        <ele>524</ele>
        <time>2026-03-11T14:43:59Z</time>
      </trkpt>
      <trkpt lat="43.56038" lon="6.46209">
        <ele>525</ele>
        <time>2026-03-11T14:44:03Z</time>
      </trkpt>
      <trkpt lat="43.56032" lon="6.46215">
        <ele>526</ele>
        <time>2026-03-11T14:44:13Z</time>
      </trkpt>
      <trkpt lat="43.56031" lon="6.46214">
        <ele>526</ele>
        <time>2026-03-11T14:44:17Z</time>
      </trkpt>
      <trkpt lat="43.56024" lon="6.46216">
        <ele>526</ele>
        <time>2026-03-11T14:44:23Z</time>
      </trkpt>
      <trkpt lat="43.56022" lon="6.46218">
        <ele>526</ele>
        <time>2026-03-11T14:44:27Z</time>
      </trkpt>
      <trkpt lat="43.56021" lon="6.4622">
        <ele>526</ele>
        <time>2026-03-11T14:44:29Z</time>
      </trkpt>
      <trkpt lat="43.5602" lon="6.46228">
        <ele>526</ele>
        <time>2026-03-11T14:44:37Z</time>
      </trkpt>
      <trkpt lat="43.56018" lon="6.46229">
        <ele>526</ele>
        <time>2026-03-11T14:45:07Z</time>
      </trkpt>
      <trkpt lat="43.56017" lon="6.46233">
        <ele>527</ele>
        <time>2026-03-11T14:46:31Z</time>
      </trkpt>
      <trkpt lat="43.56015" lon="6.46236">
        <ele>527</ele>
        <time>2026-03-11T14:46:35Z</time>
      </trkpt>
      <trkpt lat="43.56012" lon="6.46237">
        <ele>527</ele>
        <time>2026-03-11T14:46:39Z</time>
      </trkpt>
      <trkpt lat="43.56009" lon="6.46237">
        <ele>528</ele>
        <time>2026-03-11T14:46:43Z</time>
      </trkpt>
      <trkpt lat="43.56006" lon="6.46236">
        <ele>528</ele>
        <time>2026-03-11T14:46:47Z</time>
      </trkpt>
      <trkpt lat="43.5599" lon="6.46226">
        <ele>528</ele>
        <time>2026-03-11T14:47:05Z</time>
      </trkpt>
      <trkpt lat="43.55986" lon="6.46226">
        <ele>528</ele>
        <time>2026-03-11T14:47:09Z</time>
      </trkpt>
      <trkpt lat="43.55983" lon="6.46227">
        <ele>528</ele>
        <time>2026-03-11T14:47:13Z</time>
      </trkpt>
      <trkpt lat="43.55978" lon="6.46234">
        <ele>527</ele>
        <time>2026-03-11T14:47:23Z</time>
      </trkpt>
      <trkpt lat="43.55976" lon="6.46235">
        <ele>527</ele>
        <time>2026-03-11T14:47:25Z</time>
      </trkpt>
      <trkpt lat="43.55975" lon="6.4624">
        <ele>527</ele>
        <time>2026-03-11T14:47:31Z</time>
      </trkpt>
      <trkpt lat="43.55979" lon="6.46243">
        <ele>527</ele>
        <time>2026-03-11T14:47:37Z</time>
      </trkpt>
      <trkpt lat="43.55978" lon="6.4625">
        <ele>527</ele>
        <time>2026-03-11T14:47:45Z</time>
      </trkpt>
      <trkpt lat="43.55975" lon="6.46259">
        <ele>526</ele>
        <time>2026-03-11T14:47:53Z</time>
      </trkpt>
      <trkpt lat="43.55975" lon="6.46262">
        <ele>526</ele>
        <time>2026-03-11T14:47:57Z</time>
      </trkpt>
      <trkpt lat="43.55971" lon="6.46263">
        <ele>525</ele>
        <time>2026-03-11T14:48:01Z</time>
      </trkpt>
      <trkpt lat="43.55967" lon="6.46264">
        <ele>525</ele>
        <time>2026-03-11T14:48:05Z</time>
      </trkpt>
      <trkpt lat="43.55965" lon="6.46265">
        <ele>525</ele>
        <time>2026-03-11T14:48:07Z</time>
      </trkpt>
      <trkpt lat="43.55961" lon="6.46266">
        <ele>525</ele>
        <time>2026-03-11T14:48:11Z</time>
      </trkpt>
      <trkpt lat="43.5596" lon="6.46268">
        <ele>525</ele>
        <time>2026-03-11T14:48:13Z</time>
      </trkpt>
      <trkpt lat="43.55955" lon="6.46267">
        <ele>525</ele>
        <time>2026-03-11T14:48:19Z</time>
      </trkpt>
      <trkpt lat="43.55951" lon="6.46265">
        <ele>524</ele>
        <time>2026-03-11T14:48:25Z</time>
      </trkpt>
      <trkpt lat="43.55948" lon="6.46265">
        <ele>524</ele>
        <time>2026-03-11T14:48:29Z</time>
      </trkpt>
      <trkpt lat="43.55944" lon="6.46264">
        <ele>524</ele>
        <time>2026-03-11T14:48:33Z</time>
      </trkpt>
      <trkpt lat="43.55941" lon="6.46263">
        <ele>525</ele>
        <time>2026-03-11T14:48:37Z</time>
      </trkpt>
      <trkpt lat="43.55935" lon="6.46264">
        <ele>525</ele>
        <time>2026-03-11T14:48:43Z</time>
      </trkpt>
      <trkpt lat="43.55925" lon="6.46263">
        <ele>526</ele>
        <time>2026-03-11T14:48:55Z</time>
      </trkpt>
      <trkpt lat="43.55922" lon="6.46261">
        <ele>527</ele>
        <time>2026-03-11T14:48:59Z</time>
      </trkpt>
      <trkpt lat="43.5592" lon="6.4626">
        <ele>527</ele>
        <time>2026-03-11T14:49:01Z</time>
      </trkpt>
      <trkpt lat="43.55918" lon="6.4626">
        <ele>528</ele>
        <time>2026-03-11T14:49:03Z</time>
      </trkpt>
      <trkpt lat="43.55915" lon="6.46259">
        <ele>528</ele>
        <time>2026-03-11T14:49:07Z</time>
      </trkpt>
      <trkpt lat="43.55913" lon="6.46257">
        <ele>527</ele>
        <time>2026-03-11T14:49:11Z</time>
      </trkpt>
      <trkpt lat="43.55911" lon="6.46256">
        <ele>527</ele>
        <time>2026-03-11T14:49:13Z</time>
      </trkpt>
      <trkpt lat="43.55908" lon="6.46255">
        <ele>527</ele>
        <time>2026-03-11T14:49:17Z</time>
      </trkpt>
      <trkpt lat="43.55905" lon="6.46252">
        <ele>527</ele>
        <time>2026-03-11T14:49:21Z</time>
      </trkpt>
      <trkpt lat="43.55897" lon="6.46248">
        <ele>529</ele>
        <time>2026-03-11T14:49:31Z</time>
      </trkpt>
      <trkpt lat="43.55894" lon="6.46246">
        <ele>530</ele>
        <time>2026-03-11T14:49:35Z</time>
      </trkpt>
      <trkpt lat="43.55892" lon="6.46247">
        <ele>530</ele>
        <time>2026-03-11T14:49:39Z</time>
      </trkpt>
      <trkpt lat="43.5589" lon="6.46242">
        <ele>531</ele>
        <time>2026-03-11T14:49:43Z</time>
      </trkpt>
      <trkpt lat="43.55887" lon="6.46241">
        <ele>532</ele>
        <time>2026-03-11T14:49:49Z</time>
      </trkpt>
      <trkpt lat="43.55885" lon="6.46241">
        <ele>533</ele>
        <time>2026-03-11T14:49:51Z</time>
      </trkpt>
      <trkpt lat="43.55883" lon="6.4624">
        <ele>533</ele>
        <time>2026-03-11T14:49:53Z</time>
      </trkpt>
      <trkpt lat="43.55881" lon="6.46239">
        <ele>534</ele>
        <time>2026-03-11T14:49:57Z</time>
      </trkpt>
      <trkpt lat="43.55878" lon="6.46238">
        <ele>535</ele>
        <time>2026-03-11T14:50:01Z</time>
      </trkpt>
      <trkpt lat="43.55877" lon="6.46235">
        <ele>536</ele>
        <time>2026-03-11T14:50:05Z</time>
      </trkpt>
      <trkpt lat="43.55876" lon="6.46227">
        <ele>538</ele>
        <time>2026-03-11T14:50:13Z</time>
      </trkpt>
      <trkpt lat="43.55874" lon="6.46223">
        <ele>539</ele>
        <time>2026-03-11T14:50:17Z</time>
      </trkpt>
      <trkpt lat="43.55872" lon="6.46222">
        <ele>539</ele>
        <time>2026-03-11T14:50:21Z</time>
      </trkpt>
      <trkpt lat="43.55873" lon="6.46222">
        <ele>541</ele>
        <time>2026-03-11T14:51:09Z</time>
      </trkpt>
      <trkpt lat="43.55873" lon="6.4622">
        <ele>543</ele>
        <time>2026-03-11T14:51:21Z</time>
      </trkpt>
      <trkpt lat="43.55872" lon="6.46221">
        <ele>544</ele>
        <time>2026-03-11T14:51:27Z</time>
      </trkpt>
      <trkpt lat="43.5587" lon="6.46222">
        <ele>544</ele>
        <time>2026-03-11T14:51:53Z</time>
      </trkpt>
      <trkpt lat="43.55872" lon="6.46228">
        <ele>543</ele>
        <time>2026-03-11T14:52:09Z</time>
      </trkpt>
      <trkpt lat="43.5587" lon="6.46231">
        <ele>543</ele>
        <time>2026-03-11T14:52:11Z</time>
      </trkpt>
      <trkpt lat="43.55868" lon="6.46231">
        <ele>542</ele>
        <time>2026-03-11T14:52:13Z</time>
      </trkpt>
      <trkpt lat="43.55866" lon="6.46234">
        <ele>542</ele>
        <time>2026-03-11T14:52:19Z</time>
      </trkpt>
      <trkpt lat="43.55863" lon="6.46234">
        <ele>543</ele>
        <time>2026-03-11T14:52:25Z</time>
      </trkpt>
      <trkpt lat="43.55863" lon="6.46232">
        <ele>542</ele>
        <time>2026-03-11T14:52:29Z</time>
      </trkpt>
      <trkpt lat="43.55864" lon="6.46232">
        <ele>541</ele>
        <time>2026-03-11T14:52:33Z</time>
      </trkpt>
      <trkpt lat="43.55867" lon="6.46233">
        <ele>540</ele>
        <time>2026-03-11T14:52:41Z</time>
      </trkpt>
      <trkpt lat="43.55868" lon="6.46233">
        <ele>540</ele>
        <time>2026-03-11T14:53:03Z</time>
      </trkpt>
      <trkpt lat="43.55865" lon="6.46236">
        <ele>540</ele>
        <time>2026-03-11T14:53:23Z</time>
      </trkpt>
      <trkpt lat="43.55863" lon="6.46236">
        <ele>540</ele>
        <time>2026-03-11T14:53:45Z</time>
      </trkpt>
      <trkpt lat="43.55859" lon="6.46241">
        <ele>541</ele>
        <time>2026-03-11T14:53:53Z</time>
      </trkpt>
      <trkpt lat="43.55856" lon="6.46242">
        <ele>540</ele>
        <time>2026-03-11T14:53:55Z</time>
      </trkpt>
      <trkpt lat="43.55851" lon="6.46251">
        <ele>540</ele>
        <time>2026-03-11T14:54:01Z</time>
      </trkpt>
      <trkpt lat="43.55848" lon="6.46255">
        <ele>541</ele>
        <time>2026-03-11T14:54:05Z</time>
      </trkpt>
      <trkpt lat="43.55843" lon="6.46261">
        <ele>541</ele>
        <time>2026-03-11T14:54:11Z</time>
      </trkpt>
      <trkpt lat="43.55839" lon="6.46263">
        <ele>541</ele>
        <time>2026-03-11T14:54:15Z</time>
      </trkpt>
      <trkpt lat="43.55836" lon="6.46261">
        <ele>540</ele>
        <time>2026-03-11T14:54:19Z</time>
      </trkpt>
      <trkpt lat="43.55833" lon="6.46257">
        <ele>540</ele>
        <time>2026-03-11T14:54:23Z</time>
      </trkpt>
      <trkpt lat="43.55831" lon="6.46253">
        <ele>539</ele>
        <time>2026-03-11T14:54:27Z</time>
      </trkpt>
      <trkpt lat="43.55829" lon="6.46249">
        <ele>539</ele>
        <time>2026-03-11T14:54:31Z</time>
      </trkpt>
      <trkpt lat="43.55823" lon="6.46248">
        <ele>539</ele>
        <time>2026-03-11T14:54:37Z</time>
      </trkpt>
      <trkpt lat="43.55817" lon="6.4625">
        <ele>539</ele>
        <time>2026-03-11T14:54:45Z</time>
      </trkpt>
      <trkpt lat="43.55808" lon="6.46259">
        <ele>540</ele>
        <time>2026-03-11T14:54:57Z</time>
      </trkpt>
      <trkpt lat="43.55806" lon="6.46261">
        <ele>540</ele>
        <time>2026-03-11T14:54:59Z</time>
      </trkpt>
      <trkpt lat="43.55803" lon="6.46262">
        <ele>540</ele>
        <time>2026-03-11T14:55:01Z</time>
      </trkpt>
      <trkpt lat="43.55796" lon="6.46266">
        <ele>540</ele>
        <time>2026-03-11T14:55:07Z</time>
      </trkpt>
      <trkpt lat="43.5579" lon="6.46269">
        <ele>539</ele>
        <time>2026-03-11T14:55:11Z</time>
      </trkpt>
      <trkpt lat="43.55788" lon="6.46269">
        <ele>539</ele>
        <time>2026-03-11T14:55:13Z</time>
      </trkpt>
      <trkpt lat="43.55783" lon="6.46268">
        <ele>540</ele>
        <time>2026-03-11T14:55:19Z</time>
      </trkpt>
      <trkpt lat="43.5578" lon="6.46269">
        <ele>540</ele>
        <time>2026-03-11T14:55:23Z</time>
      </trkpt>
      <trkpt lat="43.55776" lon="6.4627">
        <ele>540</ele>
        <time>2026-03-11T14:55:27Z</time>
      </trkpt>
      <trkpt lat="43.55773" lon="6.46274">
        <ele>541</ele>
        <time>2026-03-11T14:55:31Z</time>
      </trkpt>
      <trkpt lat="43.55771" lon="6.46276">
        <ele>541</ele>
        <time>2026-03-11T14:55:33Z</time>
      </trkpt>
      <trkpt lat="43.55766" lon="6.46278">
        <ele>541</ele>
        <time>2026-03-11T14:55:37Z</time>
      </trkpt>
      <trkpt lat="43.55763" lon="6.46279">
        <ele>541</ele>
        <time>2026-03-11T14:55:39Z</time>
      </trkpt>
      <trkpt lat="43.5576" lon="6.4628">
        <ele>541</ele>
        <time>2026-03-11T14:55:43Z</time>
      </trkpt>
      <trkpt lat="43.55757" lon="6.4628">
        <ele>541</ele>
        <time>2026-03-11T14:55:47Z</time>
      </trkpt>
      <trkpt lat="43.55756" lon="6.46282">
        <ele>540</ele>
        <time>2026-03-11T14:55:49Z</time>
      </trkpt>
      <trkpt lat="43.55753" lon="6.46284">
        <ele>540</ele>
        <time>2026-03-11T14:55:51Z</time>
      </trkpt>
      <trkpt lat="43.55751" lon="6.46286">
        <ele>540</ele>
        <time>2026-03-11T14:55:53Z</time>
      </trkpt>
      <trkpt lat="43.55749" lon="6.46288">
        <ele>540</ele>
        <time>2026-03-11T14:55:55Z</time>
      </trkpt>
      <trkpt lat="43.55745" lon="6.46294">
        <ele>540</ele>
        <time>2026-03-11T14:56:03Z</time>
      </trkpt>
      <trkpt lat="43.55744" lon="6.46297">
        <ele>540</ele>
        <time>2026-03-11T14:56:07Z</time>
      </trkpt>
      <trkpt lat="43.55742" lon="6.46299">
        <ele>539</ele>
        <time>2026-03-11T14:56:27Z</time>
      </trkpt>
      <trkpt lat="43.55741" lon="6.46303">
        <ele>540</ele>
        <time>2026-03-11T14:56:33Z</time>
      </trkpt>
      <trkpt lat="43.55741" lon="6.46306">
        <ele>540</ele>
        <time>2026-03-11T14:56:37Z</time>
      </trkpt>
      <trkpt lat="43.5574" lon="6.46309">
        <ele>540</ele>
        <time>2026-03-11T14:56:43Z</time>
      </trkpt>
      <trkpt lat="43.5574" lon="6.46311">
        <ele>540</ele>
        <time>2026-03-11T14:56:47Z</time>
      </trkpt>
      <trkpt lat="43.55738" lon="6.46319">
        <ele>540</ele>
        <time>2026-03-11T14:56:53Z</time>
      </trkpt>
      <trkpt lat="43.55738" lon="6.46322">
        <ele>541</ele>
        <time>2026-03-11T14:56:55Z</time>
      </trkpt>
      <trkpt lat="43.55738" lon="6.46326">
        <ele>541</ele>
        <time>2026-03-11T14:56:59Z</time>
      </trkpt>
      <trkpt lat="43.55738" lon="6.46336">
        <ele>541</ele>
        <time>2026-03-11T14:57:05Z</time>
      </trkpt>
      <trkpt lat="43.55736" lon="6.46342">
        <ele>540</ele>
        <time>2026-03-11T14:57:09Z</time>
      </trkpt>
      <trkpt lat="43.55737" lon="6.46346">
        <ele>540</ele>
        <time>2026-03-11T14:57:11Z</time>
      </trkpt>
      <trkpt lat="43.55734" lon="6.46352">
        <ele>539</ele>
        <time>2026-03-11T14:57:15Z</time>
      </trkpt>
      <trkpt lat="43.55733" lon="6.46355">
        <ele>538</ele>
        <time>2026-03-11T14:57:17Z</time>
      </trkpt>
      <trkpt lat="43.55732" lon="6.46362">
        <ele>537</ele>
        <time>2026-03-11T14:57:21Z</time>
      </trkpt>
      <trkpt lat="43.55731" lon="6.46365">
        <ele>536</ele>
        <time>2026-03-11T14:57:23Z</time>
      </trkpt>
      <trkpt lat="43.55731" lon="6.46368">
        <ele>535</ele>
        <time>2026-03-11T14:57:25Z</time>
      </trkpt>
      <trkpt lat="43.5573" lon="6.4639">
        <ele>531</ele>
        <time>2026-03-11T14:57:39Z</time>
      </trkpt>
      <trkpt lat="43.5573" lon="6.46393">
        <ele>530</ele>
        <time>2026-03-11T14:57:41Z</time>
      </trkpt>
      <trkpt lat="43.55726" lon="6.46398">
        <ele>529</ele>
        <time>2026-03-11T14:57:45Z</time>
      </trkpt>
      <trkpt lat="43.55724" lon="6.46399">
        <ele>528</ele>
        <time>2026-03-11T14:57:47Z</time>
      </trkpt>
      <trkpt lat="43.55722" lon="6.46401">
        <ele>527</ele>
        <time>2026-03-11T14:57:51Z</time>
      </trkpt>
      <trkpt lat="43.5572" lon="6.46404">
        <ele>526</ele>
        <time>2026-03-11T14:57:55Z</time>
      </trkpt>
      <trkpt lat="43.5572" lon="6.46407">
        <ele>526</ele>
        <time>2026-03-11T14:57:57Z</time>
      </trkpt>
      <trkpt lat="43.5572" lon="6.4641">
        <ele>526</ele>
        <time>2026-03-11T14:57:59Z</time>
      </trkpt>
      <trkpt lat="43.55724" lon="6.46413">
        <ele>525</ele>
        <time>2026-03-11T14:58:03Z</time>
      </trkpt>
      <trkpt lat="43.55729" lon="6.46413">
        <ele>525</ele>
        <time>2026-03-11T14:58:09Z</time>
      </trkpt>
      <trkpt lat="43.55732" lon="6.46412">
        <ele>525</ele>
        <time>2026-03-11T14:58:13Z</time>
      </trkpt>
      <trkpt lat="43.5574" lon="6.46414">
        <ele>526</ele>
        <time>2026-03-11T14:58:21Z</time>
      </trkpt>
      <trkpt lat="43.55743" lon="6.46415">
        <ele>526</ele>
        <time>2026-03-11T14:58:23Z</time>
      </trkpt>
      <trkpt lat="43.55748" lon="6.46417">
        <ele>526</ele>
        <time>2026-03-11T14:58:27Z</time>
      </trkpt>
      <trkpt lat="43.55753" lon="6.46423">
        <ele>526</ele>
        <time>2026-03-11T14:58:31Z</time>
      </trkpt>
      <trkpt lat="43.55753" lon="6.46426">
        <ele>526</ele>
        <time>2026-03-11T14:58:33Z</time>
      </trkpt>
      <trkpt lat="43.55753" lon="6.4643">
        <ele>526</ele>
        <time>2026-03-11T14:58:37Z</time>
      </trkpt>
      <trkpt lat="43.55755" lon="6.46433">
        <ele>525</ele>
        <time>2026-03-11T14:58:39Z</time>
      </trkpt>
      <trkpt lat="43.55756" lon="6.46436">
        <ele>525</ele>
        <time>2026-03-11T14:58:41Z</time>
      </trkpt>
      <trkpt lat="43.55757" lon="6.46439">
        <ele>525</ele>
        <time>2026-03-11T14:58:43Z</time>
      </trkpt>
      <trkpt lat="43.55763" lon="6.46446">
        <ele>525</ele>
        <time>2026-03-11T14:58:49Z</time>
      </trkpt>
      <trkpt lat="43.55765" lon="6.46447">
        <ele>525</ele>
        <time>2026-03-11T14:58:51Z</time>
      </trkpt>
      <trkpt lat="43.55766" lon="6.4645">
        <ele>525</ele>
        <time>2026-03-11T14:58:53Z</time>
      </trkpt>
      <trkpt lat="43.55765" lon="6.46459">
        <ele>523</ele>
        <time>2026-03-11T14:58:59Z</time>
      </trkpt>
      <trkpt lat="43.5576" lon="6.46467">
        <ele>522</ele>
        <time>2026-03-11T14:59:05Z</time>
      </trkpt>
      <trkpt lat="43.55758" lon="6.46469">
        <ele>521</ele>
        <time>2026-03-11T14:59:07Z</time>
      </trkpt>
      <trkpt lat="43.55755" lon="6.4647">
        <ele>521</ele>
        <time>2026-03-11T14:59:09Z</time>
      </trkpt>
      <trkpt lat="43.55753" lon="6.4647">
        <ele>521</ele>
        <time>2026-03-11T14:59:11Z</time>
      </trkpt>
      <trkpt lat="43.55751" lon="6.46469">
        <ele>520</ele>
        <time>2026-03-11T14:59:13Z</time>
      </trkpt>
      <trkpt lat="43.55745" lon="6.46468">
        <ele>519</ele>
        <time>2026-03-11T14:59:19Z</time>
      </trkpt>
      <trkpt lat="43.55743" lon="6.46468">
        <ele>518</ele>
        <time>2026-03-11T14:59:21Z</time>
      </trkpt>
      <trkpt lat="43.55741" lon="6.46468">
        <ele>518</ele>
        <time>2026-03-11T14:59:23Z</time>
      </trkpt>
      <trkpt lat="43.55736" lon="6.46468">
        <ele>517</ele>
        <time>2026-03-11T14:59:27Z</time>
      </trkpt>
      <trkpt lat="43.55729" lon="6.46476">
        <ele>517</ele>
        <time>2026-03-11T14:59:37Z</time>
      </trkpt>
      <trkpt lat="43.55727" lon="6.46477">
        <ele>517</ele>
        <time>2026-03-11T14:59:39Z</time>
      </trkpt>
      <trkpt lat="43.55724" lon="6.46479">
        <ele>517</ele>
        <time>2026-03-11T14:59:41Z</time>
      </trkpt>
      <trkpt lat="43.55723" lon="6.46481">
        <ele>517</ele>
        <time>2026-03-11T14:59:43Z</time>
      </trkpt>
      <trkpt lat="43.55721" lon="6.46482">
        <ele>516</ele>
        <time>2026-03-11T14:59:45Z</time>
      </trkpt>
      <trkpt lat="43.55719" lon="6.46486">
        <ele>516</ele>
        <time>2026-03-11T14:59:49Z</time>
      </trkpt>
      <trkpt lat="43.55718" lon="6.46497">
        <ele>516</ele>
        <time>2026-03-11T14:59:55Z</time>
      </trkpt>
      <trkpt lat="43.55719" lon="6.46502">
        <ele>516</ele>
        <time>2026-03-11T14:59:59Z</time>
      </trkpt>
      <trkpt lat="43.5572" lon="6.46509">
        <ele>516</ele>
        <time>2026-03-11T15:00:03Z</time>
      </trkpt>
      <trkpt lat="43.55721" lon="6.46512">
        <ele>516</ele>
        <time>2026-03-11T15:00:05Z</time>
      </trkpt>
      <trkpt lat="43.55722" lon="6.46514">
        <ele>516</ele>
        <time>2026-03-11T15:00:07Z</time>
      </trkpt>
      <trkpt lat="43.55723" lon="6.46519">
        <ele>515</ele>
        <time>2026-03-11T15:00:11Z</time>
      </trkpt>
      <trkpt lat="43.55723" lon="6.46522">
        <ele>515</ele>
        <time>2026-03-11T15:00:13Z</time>
      </trkpt>
      <trkpt lat="43.55722" lon="6.46524">
        <ele>514</ele>
        <time>2026-03-11T15:00:15Z</time>
      </trkpt>
      <trkpt lat="43.55721" lon="6.46535">
        <ele>514</ele>
        <time>2026-03-11T15:00:21Z</time>
      </trkpt>
      <trkpt lat="43.55719" lon="6.46544">
        <ele>513</ele>
        <time>2026-03-11T15:00:27Z</time>
      </trkpt>
      <trkpt lat="43.55719" lon="6.46547">
        <ele>513</ele>
        <time>2026-03-11T15:00:29Z</time>
      </trkpt>
      <trkpt lat="43.55719" lon="6.4655">
        <ele>513</ele>
        <time>2026-03-11T15:00:31Z</time>
      </trkpt>
      <trkpt lat="43.55721" lon="6.46551">
        <ele>512</ele>
        <time>2026-03-11T15:00:37Z</time>
      </trkpt>
      <trkpt lat="43.5572" lon="6.46554">
        <ele>510</ele>
        <time>2026-03-11T15:00:47Z</time>
      </trkpt>
      <trkpt lat="43.55722" lon="6.46557">
        <ele>510</ele>
        <time>2026-03-11T15:00:51Z</time>
      </trkpt>
      <trkpt lat="43.55722" lon="6.46559">
        <ele>509</ele>
        <time>2026-03-11T15:00:53Z</time>
      </trkpt>
      <trkpt lat="43.55723" lon="6.46562">
        <ele>509</ele>
        <time>2026-03-11T15:00:55Z</time>
      </trkpt>
      <trkpt lat="43.55723" lon="6.46564">
        <ele>509</ele>
        <time>2026-03-11T15:00:57Z</time>
      </trkpt>
      <trkpt lat="43.55723" lon="6.46571">
        <ele>508</ele>
        <time>2026-03-11T15:01:03Z</time>
      </trkpt>
      <trkpt lat="43.55724" lon="6.46576">
        <ele>508</ele>
        <time>2026-03-11T15:01:07Z</time>
      </trkpt>
      <trkpt lat="43.5572" lon="6.46591">
        <ele>509</ele>
        <time>2026-03-11T15:01:19Z</time>
      </trkpt>
      <trkpt lat="43.55719" lon="6.46596">
        <ele>509</ele>
        <time>2026-03-11T15:01:23Z</time>
      </trkpt>
      <trkpt lat="43.55718" lon="6.46599">
        <ele>509</ele>
        <time>2026-03-11T15:01:25Z</time>
      </trkpt>
      <trkpt lat="43.55717" lon="6.46602">
        <ele>510</ele>
        <time>2026-03-11T15:01:27Z</time>
      </trkpt>
      <trkpt lat="43.55716" lon="6.46604">
        <ele>510</ele>
        <time>2026-03-11T15:01:29Z</time>
      </trkpt>
      <trkpt lat="43.55714" lon="6.46606">
        <ele>509</ele>
        <time>2026-03-11T15:01:31Z</time>
      </trkpt>
      <trkpt lat="43.5571" lon="6.46611">
        <ele>508</ele>
        <time>2026-03-11T15:01:37Z</time>
      </trkpt>
      <trkpt lat="43.55709" lon="6.46614">
        <ele>508</ele>
        <time>2026-03-11T15:01:41Z</time>
      </trkpt>
      <trkpt lat="43.55707" lon="6.46616">
        <ele>507</ele>
        <time>2026-03-11T15:01:51Z</time>
      </trkpt>
      <trkpt lat="43.55706" lon="6.46619">
        <ele>507</ele>
        <time>2026-03-11T15:01:57Z</time>
      </trkpt>
      <trkpt lat="43.55704" lon="6.46617">
        <ele>507</ele>
        <time>2026-03-11T15:02:29Z</time>
      </trkpt>
      <trkpt lat="43.55703" lon="6.46618">
        <ele>507</ele>
        <time>2026-03-11T15:03:33Z</time>
      </trkpt>
      <trkpt lat="43.55706" lon="6.46618">
        <ele>508</ele>
        <time>2026-03-11T15:04:09Z</time>
      </trkpt>
      <trkpt lat="43.55705" lon="6.46617">
        <ele>508</ele>
        <time>2026-03-11T15:04:15Z</time>
      </trkpt>
      <trkpt lat="43.55703" lon="6.4662">
        <ele>508</ele>
        <time>2026-03-11T15:04:19Z</time>
      </trkpt>
      <trkpt lat="43.55704" lon="6.46618">
        <ele>508</ele>
        <time>2026-03-11T15:04:35Z</time>
      </trkpt>
      <trkpt lat="43.55704" lon="6.46618">
        <ele>508</ele>
        <time>2026-03-11T15:05:23Z</time>
      </trkpt>
      <trkpt lat="43.55705" lon="6.46629">
        <ele>510</ele>
        <time>2026-03-11T15:05:37Z</time>
      </trkpt>
      <trkpt lat="43.55704" lon="6.46633">
        <ele>511</ele>
        <time>2026-03-11T15:05:41Z</time>
      </trkpt>
      <trkpt lat="43.55701" lon="6.46635">
        <ele>510</ele>
        <time>2026-03-11T15:05:45Z</time>
      </trkpt>
      <trkpt lat="43.55702" lon="6.46638">
        <ele>510</ele>
        <time>2026-03-11T15:05:51Z</time>
      </trkpt>
      <trkpt lat="43.55705" lon="6.46643">
        <ele>509</ele>
        <time>2026-03-11T15:05:55Z</time>
      </trkpt>
      <trkpt lat="43.55705" lon="6.46646">
        <ele>509</ele>
        <time>2026-03-11T15:05:59Z</time>
      </trkpt>
      <trkpt lat="43.55704" lon="6.4665">
        <ele>508</ele>
        <time>2026-03-11T15:06:03Z</time>
      </trkpt>
      <trkpt lat="43.55703" lon="6.46653">
        <ele>507</ele>
        <time>2026-03-11T15:06:05Z</time>
      </trkpt>
      <trkpt lat="43.55702" lon="6.46656">
        <ele>507</ele>
        <time>2026-03-11T15:06:07Z</time>
      </trkpt>
      <trkpt lat="43.557" lon="6.46664">
        <ele>506</ele>
        <time>2026-03-11T15:06:15Z</time>
      </trkpt>
      <trkpt lat="43.55701" lon="6.46673">
        <ele>506</ele>
        <time>2026-03-11T15:06:23Z</time>
      </trkpt>
      <trkpt lat="43.55702" lon="6.46676">
        <ele>505</ele>
        <time>2026-03-11T15:06:27Z</time>
      </trkpt>
      <trkpt lat="43.55702" lon="6.46681">
        <ele>505</ele>
        <time>2026-03-11T15:06:31Z</time>
      </trkpt>
      <trkpt lat="43.557" lon="6.46709">
        <ele>502</ele>
        <time>2026-03-11T15:06:55Z</time>
      </trkpt>
      <trkpt lat="43.55701" lon="6.46715">
        <ele>502</ele>
        <time>2026-03-11T15:06:59Z</time>
      </trkpt>
      <trkpt lat="43.55704" lon="6.4673">
        <ele>500</ele>
        <time>2026-03-11T15:07:11Z</time>
      </trkpt>
      <trkpt lat="43.55705" lon="6.46733">
        <ele>500</ele>
        <time>2026-03-11T15:07:13Z</time>
      </trkpt>
      <trkpt lat="43.55706" lon="6.46741">
        <ele>499</ele>
        <time>2026-03-11T15:07:21Z</time>
      </trkpt>
      <trkpt lat="43.55709" lon="6.46749">
        <ele>497</ele>
        <time>2026-03-11T15:07:29Z</time>
      </trkpt>
      <trkpt lat="43.5571" lon="6.46752">
        <ele>497</ele>
        <time>2026-03-11T15:07:33Z</time>
      </trkpt>
      <trkpt lat="43.55711" lon="6.46756">
        <ele>496</ele>
        <time>2026-03-11T15:07:37Z</time>
      </trkpt>
      <trkpt lat="43.55711" lon="6.4676">
        <ele>496</ele>
        <time>2026-03-11T15:07:41Z</time>
      </trkpt>
      <trkpt lat="43.55712" lon="6.46768">
        <ele>494</ele>
        <time>2026-03-11T15:07:47Z</time>
      </trkpt>
      <trkpt lat="43.55713" lon="6.46773">
        <ele>494</ele>
        <time>2026-03-11T15:07:51Z</time>
      </trkpt>
      <trkpt lat="43.55715" lon="6.46777">
        <ele>493</ele>
        <time>2026-03-11T15:07:57Z</time>
      </trkpt>
      <trkpt lat="43.55721" lon="6.46783">
        <ele>492</ele>
        <time>2026-03-11T15:08:07Z</time>
      </trkpt>
      <trkpt lat="43.55728" lon="6.468">
        <ele>491</ele>
        <time>2026-03-11T15:08:25Z</time>
      </trkpt>
      <trkpt lat="43.55731" lon="6.46833">
        <ele>486</ele>
        <time>2026-03-11T15:08:55Z</time>
      </trkpt>
      <trkpt lat="43.55731" lon="6.46836">
        <ele>486</ele>
        <time>2026-03-11T15:08:57Z</time>
      </trkpt>
      <trkpt lat="43.55728" lon="6.46856">
        <ele>484</ele>
        <time>2026-03-11T15:09:11Z</time>
      </trkpt>
      <trkpt lat="43.55727" lon="6.46859">
        <ele>483</ele>
        <time>2026-03-11T15:09:15Z</time>
      </trkpt>
      <trkpt lat="43.55724" lon="6.46869">
        <ele>483</ele>
        <time>2026-03-11T15:09:23Z</time>
      </trkpt>
      <trkpt lat="43.55724" lon="6.46872">
        <ele>482</ele>
        <time>2026-03-11T15:09:25Z</time>
      </trkpt>
      <trkpt lat="43.55725" lon="6.46876">
        <ele>482</ele>
        <time>2026-03-11T15:09:29Z</time>
      </trkpt>
      <trkpt lat="43.5573" lon="6.46882">
        <ele>482</ele>
        <time>2026-03-11T15:09:37Z</time>
      </trkpt>
      <trkpt lat="43.55733" lon="6.46883">
        <ele>481</ele>
        <time>2026-03-11T15:09:41Z</time>
      </trkpt>
      <trkpt lat="43.55753" lon="6.46881">
        <ele>480</ele>
        <time>2026-03-11T15:10:05Z</time>
      </trkpt>
      <trkpt lat="43.55762" lon="6.46884">
        <ele>480</ele>
        <time>2026-03-11T15:10:13Z</time>
      </trkpt>
      <trkpt lat="43.55768" lon="6.46886">
        <ele>479</ele>
        <time>2026-03-11T15:10:19Z</time>
      </trkpt>
      <trkpt lat="43.5577" lon="6.46887">
        <ele>479</ele>
        <time>2026-03-11T15:10:23Z</time>
      </trkpt>
      <trkpt lat="43.55772" lon="6.46889">
        <ele>479</ele>
        <time>2026-03-11T15:10:29Z</time>
      </trkpt>
      <trkpt lat="43.55775" lon="6.4689">
        <ele>478</ele>
        <time>2026-03-11T15:10:33Z</time>
      </trkpt>
      <trkpt lat="43.55777" lon="6.46892">
        <ele>478</ele>
        <time>2026-03-11T15:10:37Z</time>
      </trkpt>
      <trkpt lat="43.55782" lon="6.46893">
        <ele>478</ele>
        <time>2026-03-11T15:10:43Z</time>
      </trkpt>
      <trkpt lat="43.55786" lon="6.46896">
        <ele>477</ele>
        <time>2026-03-11T15:10:49Z</time>
      </trkpt>
      <trkpt lat="43.55795" lon="6.46901">
        <ele>476</ele>
        <time>2026-03-11T15:11:09Z</time>
      </trkpt>
      <trkpt lat="43.558" lon="6.46902">
        <ele>475</ele>
        <time>2026-03-11T15:11:17Z</time>
      </trkpt>
      <trkpt lat="43.55821" lon="6.46908">
        <ele>474</ele>
        <time>2026-03-11T15:11:45Z</time>
      </trkpt>
      <trkpt lat="43.55827" lon="6.46905">
        <ele>473</ele>
        <time>2026-03-11T15:11:53Z</time>
      </trkpt>
      <trkpt lat="43.55833" lon="6.46904">
        <ele>472</ele>
        <time>2026-03-11T15:12:01Z</time>
      </trkpt>
      <trkpt lat="43.55843" lon="6.46896">
        <ele>470</ele>
        <time>2026-03-11T15:12:13Z</time>
      </trkpt>
      <trkpt lat="43.55845" lon="6.46894">
        <ele>470</ele>
        <time>2026-03-11T15:12:15Z</time>
      </trkpt>
      <trkpt lat="43.55851" lon="6.46888">
        <ele>468</ele>
        <time>2026-03-11T15:12:23Z</time>
      </trkpt>
      <trkpt lat="43.55854" lon="6.46887">
        <ele>467</ele>
        <time>2026-03-11T15:12:25Z</time>
      </trkpt>
      <trkpt lat="43.55857" lon="6.46883">
        <ele>466</ele>
        <time>2026-03-11T15:12:29Z</time>
      </trkpt>
      <trkpt lat="43.55862" lon="6.46882">
        <ele>464</ele>
        <time>2026-03-11T15:12:35Z</time>
      </trkpt>
      <trkpt lat="43.55865" lon="6.46882">
        <ele>464</ele>
        <time>2026-03-11T15:12:39Z</time>
      </trkpt>
      <trkpt lat="43.5587" lon="6.46886">
        <ele>463</ele>
        <time>2026-03-11T15:12:47Z</time>
      </trkpt>
      <trkpt lat="43.5588" lon="6.46901">
        <ele>459</ele>
        <time>2026-03-11T15:13:01Z</time>
      </trkpt>
      <trkpt lat="43.55883" lon="6.46909">
        <ele>459</ele>
        <time>2026-03-11T15:13:05Z</time>
      </trkpt>
      <trkpt lat="43.55884" lon="6.46913">
        <ele>458</ele>
        <time>2026-03-11T15:13:07Z</time>
      </trkpt>
      <trkpt lat="43.55882" lon="6.46916">
        <ele>458</ele>
        <time>2026-03-11T15:13:09Z</time>
      </trkpt>
      <trkpt lat="43.55878" lon="6.46921">
        <ele>458</ele>
        <time>2026-03-11T15:13:13Z</time>
      </trkpt>
      <trkpt lat="43.55872" lon="6.46922">
        <ele>457</ele>
        <time>2026-03-11T15:13:17Z</time>
      </trkpt>
      <trkpt lat="43.5587" lon="6.46923">
        <ele>457</ele>
        <time>2026-03-11T15:13:19Z</time>
      </trkpt>
      <trkpt lat="43.55863" lon="6.46929">
        <ele>456</ele>
        <time>2026-03-11T15:13:29Z</time>
      </trkpt>
      <trkpt lat="43.5586" lon="6.46929">
        <ele>455</ele>
        <time>2026-03-11T15:13:33Z</time>
      </trkpt>
      <trkpt lat="43.55859" lon="6.46931">
        <ele>455</ele>
        <time>2026-03-11T15:13:37Z</time>
      </trkpt>
      <trkpt lat="43.55857" lon="6.46935">
        <ele>454</ele>
        <time>2026-03-11T15:13:41Z</time>
      </trkpt>
      <trkpt lat="43.55854" lon="6.46945">
        <ele>453</ele>
        <time>2026-03-11T15:13:49Z</time>
      </trkpt>
      <trkpt lat="43.55852" lon="6.46948">
        <ele>453</ele>
        <time>2026-03-11T15:13:51Z</time>
      </trkpt>
      <trkpt lat="43.55851" lon="6.46953">
        <ele>453</ele>
        <time>2026-03-11T15:13:55Z</time>
      </trkpt>
      <trkpt lat="43.55847" lon="6.46959">
        <ele>452</ele>
        <time>2026-03-11T15:13:59Z</time>
      </trkpt>
      <trkpt lat="43.55839" lon="6.46979">
        <ele>450</ele>
        <time>2026-03-11T15:14:11Z</time>
      </trkpt>
      <trkpt lat="43.55837" lon="6.46981">
        <ele>450</ele>
        <time>2026-03-11T15:14:13Z</time>
      </trkpt>
      <trkpt lat="43.55835" lon="6.46983">
        <ele>450</ele>
        <time>2026-03-11T15:14:15Z</time>
      </trkpt>
      <trkpt lat="43.55822" lon="6.47009">
        <ele>449</ele>
        <time>2026-03-11T15:14:35Z</time>
      </trkpt>
      <trkpt lat="43.55812" lon="6.47019">
        <ele>449</ele>
        <time>2026-03-11T15:14:45Z</time>
      </trkpt>
      <trkpt lat="43.55809" lon="6.4702">
        <ele>448</ele>
        <time>2026-03-11T15:14:47Z</time>
      </trkpt>
      <trkpt lat="43.55806" lon="6.47021">
        <ele>448</ele>
        <time>2026-03-11T15:14:49Z</time>
      </trkpt>
      <trkpt lat="43.55802" lon="6.47019">
        <ele>447</ele>
        <time>2026-03-11T15:14:53Z</time>
      </trkpt>
      <trkpt lat="43.55795" lon="6.47022">
        <ele>446</ele>
        <time>2026-03-11T15:14:59Z</time>
      </trkpt>
      <trkpt lat="43.55793" lon="6.47024">
        <ele>446</ele>
        <time>2026-03-11T15:15:01Z</time>
      </trkpt>
      <trkpt lat="43.55791" lon="6.47025">
        <ele>446</ele>
        <time>2026-03-11T15:15:03Z</time>
      </trkpt>
      <trkpt lat="43.55788" lon="6.47027">
        <ele>445</ele>
        <time>2026-03-11T15:15:05Z</time>
      </trkpt>
      <trkpt lat="43.55784" lon="6.47031">
        <ele>445</ele>
        <time>2026-03-11T15:15:09Z</time>
      </trkpt>
      <trkpt lat="43.55781" lon="6.47037">
        <ele>445</ele>
        <time>2026-03-11T15:15:13Z</time>
      </trkpt>
      <trkpt lat="43.5578" lon="6.47039">
        <ele>445</ele>
        <time>2026-03-11T15:15:15Z</time>
      </trkpt>
      <trkpt lat="43.55773" lon="6.47047">
        <ele>445</ele>
        <time>2026-03-11T15:15:23Z</time>
      </trkpt>
      <trkpt lat="43.55766" lon="6.47056">
        <ele>444</ele>
        <time>2026-03-11T15:15:31Z</time>
      </trkpt>
      <trkpt lat="43.55764" lon="6.4706">
        <ele>443</ele>
        <time>2026-03-11T15:15:33Z</time>
      </trkpt>
      <trkpt lat="43.55763" lon="6.47063">
        <ele>443</ele>
        <time>2026-03-11T15:15:35Z</time>
      </trkpt>
      <trkpt lat="43.55762" lon="6.47066">
        <ele>443</ele>
        <time>2026-03-11T15:15:37Z</time>
      </trkpt>
      <trkpt lat="43.55761" lon="6.47069">
        <ele>443</ele>
        <time>2026-03-11T15:15:39Z</time>
      </trkpt>
      <trkpt lat="43.55751" lon="6.47086">
        <ele>442</ele>
        <time>2026-03-11T15:15:51Z</time>
      </trkpt>
      <trkpt lat="43.5574" lon="6.47107">
        <ele>443</ele>
        <time>2026-03-11T15:16:05Z</time>
      </trkpt>
      <trkpt lat="43.55735" lon="6.47114">
        <ele>443</ele>
        <time>2026-03-11T15:16:09Z</time>
      </trkpt>
      <trkpt lat="43.55733" lon="6.47122">
        <ele>443</ele>
        <time>2026-03-11T15:16:15Z</time>
      </trkpt>
      <trkpt lat="43.55732" lon="6.47126">
        <ele>443</ele>
        <time>2026-03-11T15:16:19Z</time>
      </trkpt>
      <trkpt lat="43.55727" lon="6.47138">
        <ele>443</ele>
        <time>2026-03-11T15:16:27Z</time>
      </trkpt>
      <trkpt lat="43.55725" lon="6.47155">
        <ele>445</ele>
        <time>2026-03-11T15:16:39Z</time>
      </trkpt>
      <trkpt lat="43.55724" lon="6.47158">
        <ele>445</ele>
        <time>2026-03-11T15:16:41Z</time>
      </trkpt>
      <trkpt lat="43.55724" lon="6.47162">
        <ele>446</ele>
        <time>2026-03-11T15:16:43Z</time>
      </trkpt>
      <trkpt lat="43.55724" lon="6.47165">
        <ele>446</ele>
        <time>2026-03-11T15:16:45Z</time>
      </trkpt>
      <trkpt lat="43.55723" lon="6.47173">
        <ele>446</ele>
        <time>2026-03-11T15:16:49Z</time>
      </trkpt>
      <trkpt lat="43.55722" lon="6.47178">
        <ele>446</ele>
        <time>2026-03-11T15:16:51Z</time>
      </trkpt>
      <trkpt lat="43.5572" lon="6.4718">
        <ele>446</ele>
        <time>2026-03-11T15:16:53Z</time>
      </trkpt>
      <trkpt lat="43.55716" lon="6.4719">
        <ele>444</ele>
        <time>2026-03-11T15:16:59Z</time>
      </trkpt>
      <trkpt lat="43.55711" lon="6.47198">
        <ele>442</ele>
        <time>2026-03-11T15:17:05Z</time>
      </trkpt>
      <trkpt lat="43.5571" lon="6.47201">
        <ele>441</ele>
        <time>2026-03-11T15:17:07Z</time>
      </trkpt>
      <trkpt lat="43.55706" lon="6.47209">
        <ele>439</ele>
        <time>2026-03-11T15:17:13Z</time>
      </trkpt>
      <trkpt lat="43.55705" lon="6.47211">
        <ele>438</ele>
        <time>2026-03-11T15:17:15Z</time>
      </trkpt>
      <trkpt lat="43.55697" lon="6.4723">
        <ele>433</ele>
        <time>2026-03-11T15:17:29Z</time>
      </trkpt>
      <trkpt lat="43.55696" lon="6.47235">
        <ele>432</ele>
        <time>2026-03-11T15:17:33Z</time>
      </trkpt>
      <trkpt lat="43.55692" lon="6.47242">
        <ele>432</ele>
        <time>2026-03-11T15:17:37Z</time>
      </trkpt>
      <trkpt lat="43.55691" lon="6.47245">
        <ele>431</ele>
        <time>2026-03-11T15:17:39Z</time>
      </trkpt>
      <trkpt lat="43.55685" lon="6.47256">
        <ele>430</ele>
        <time>2026-03-11T15:17:49Z</time>
      </trkpt>
      <trkpt lat="43.55679" lon="6.47265">
        <ele>429</ele>
        <time>2026-03-11T15:17:55Z</time>
      </trkpt>
      <trkpt lat="43.55677" lon="6.4727">
        <ele>428</ele>
        <time>2026-03-11T15:17:59Z</time>
      </trkpt>
      <trkpt lat="43.55676" lon="6.47273">
        <ele>428</ele>
        <time>2026-03-11T15:18:01Z</time>
      </trkpt>
      <trkpt lat="43.55671" lon="6.47285">
        <ele>425</ele>
        <time>2026-03-11T15:18:11Z</time>
      </trkpt>
      <trkpt lat="43.55669" lon="6.47288">
        <ele>424</ele>
        <time>2026-03-11T15:18:13Z</time>
      </trkpt>
      <trkpt lat="43.55667" lon="6.47293">
        <ele>422</ele>
        <time>2026-03-11T15:18:17Z</time>
      </trkpt>
      <trkpt lat="43.55665" lon="6.47296">
        <ele>421</ele>
        <time>2026-03-11T15:18:19Z</time>
      </trkpt>
      <trkpt lat="43.55664" lon="6.47299">
        <ele>420</ele>
        <time>2026-03-11T15:18:21Z</time>
      </trkpt>
      <trkpt lat="43.5566" lon="6.47305">
        <ele>419</ele>
        <time>2026-03-11T15:18:25Z</time>
      </trkpt>
      <trkpt lat="43.55659" lon="6.47308">
        <ele>418</ele>
        <time>2026-03-11T15:18:27Z</time>
      </trkpt>
      <trkpt lat="43.55654" lon="6.47324">
        <ele>416</ele>
        <time>2026-03-11T15:18:37Z</time>
      </trkpt>
      <trkpt lat="43.55651" lon="6.47335">
        <ele>415</ele>
        <time>2026-03-11T15:18:43Z</time>
      </trkpt>
      <trkpt lat="43.55642" lon="6.47345">
        <ele>416</ele>
        <time>2026-03-11T15:18:51Z</time>
      </trkpt>
      <trkpt lat="43.55631" lon="6.47367">
        <ele>419</ele>
        <time>2026-03-11T15:19:09Z</time>
      </trkpt>
      <trkpt lat="43.55618" lon="6.47381">
        <ele>420</ele>
        <time>2026-03-11T15:19:21Z</time>
      </trkpt>
      <trkpt lat="43.55616" lon="6.47383">
        <ele>420</ele>
        <time>2026-03-11T15:19:23Z</time>
      </trkpt>
      <trkpt lat="43.55614" lon="6.47384">
        <ele>420</ele>
        <time>2026-03-11T15:19:25Z</time>
      </trkpt>
      <trkpt lat="43.55612" lon="6.47385">
        <ele>420</ele>
        <time>2026-03-11T15:19:27Z</time>
      </trkpt>
      <trkpt lat="43.5561" lon="6.47388">
        <ele>420</ele>
        <time>2026-03-11T15:19:29Z</time>
      </trkpt>
      <trkpt lat="43.55605" lon="6.47395">
        <ele>421</ele>
        <time>2026-03-11T15:19:35Z</time>
      </trkpt>
      <trkpt lat="43.55604" lon="6.47396">
        <ele>421</ele>
        <time>2026-03-11T15:19:37Z</time>
      </trkpt>
      <trkpt lat="43.55589" lon="6.4741">
        <ele>421</ele>
        <time>2026-03-11T15:19:51Z</time>
      </trkpt>
      <trkpt lat="43.55587" lon="6.47412">
        <ele>421</ele>
        <time>2026-03-11T15:19:53Z</time>
      </trkpt>
      <trkpt lat="43.55574" lon="6.47422">
        <ele>419</ele>
        <time>2026-03-11T15:20:03Z</time>
      </trkpt>
      <trkpt lat="43.55568" lon="6.47427">
        <ele>418</ele>
        <time>2026-03-11T15:20:09Z</time>
      </trkpt>
      <trkpt lat="43.55565" lon="6.47429">
        <ele>418</ele>
        <time>2026-03-11T15:20:11Z</time>
      </trkpt>
      <trkpt lat="43.55562" lon="6.4743">
        <ele>418</ele>
        <time>2026-03-11T15:20:13Z</time>
      </trkpt>
      <trkpt lat="43.5556" lon="6.47431">
        <ele>418</ele>
        <time>2026-03-11T15:20:15Z</time>
      </trkpt>
      <trkpt lat="43.55557" lon="6.47432">
        <ele>418</ele>
        <time>2026-03-11T15:20:17Z</time>
      </trkpt>
      <trkpt lat="43.55556" lon="6.47434">
        <ele>418</ele>
        <time>2026-03-11T15:20:19Z</time>
      </trkpt>
      <trkpt lat="43.55555" lon="6.47436">
        <ele>418</ele>
        <time>2026-03-11T15:20:21Z</time>
      </trkpt>
      <trkpt lat="43.55552" lon="6.47437">
        <ele>417</ele>
        <time>2026-03-11T15:20:23Z</time>
      </trkpt>
      <trkpt lat="43.55548" lon="6.47442">
        <ele>417</ele>
        <time>2026-03-11T15:20:27Z</time>
      </trkpt>
      <trkpt lat="43.55546" lon="6.47444">
        <ele>417</ele>
        <time>2026-03-11T15:20:29Z</time>
      </trkpt>
      <trkpt lat="43.55544" lon="6.47446">
        <ele>417</ele>
        <time>2026-03-11T15:20:31Z</time>
      </trkpt>
      <trkpt lat="43.55537" lon="6.47452">
        <ele>416</ele>
        <time>2026-03-11T15:20:37Z</time>
      </trkpt>
      <trkpt lat="43.55535" lon="6.47454">
        <ele>416</ele>
        <time>2026-03-11T15:20:39Z</time>
      </trkpt>
      <trkpt lat="43.55531" lon="6.47459">
        <ele>416</ele>
        <time>2026-03-11T15:20:43Z</time>
      </trkpt>
      <trkpt lat="43.55527" lon="6.47466">
        <ele>416</ele>
        <time>2026-03-11T15:20:49Z</time>
      </trkpt>
      <trkpt lat="43.55526" lon="6.47468">
        <ele>416</ele>
        <time>2026-03-11T15:20:51Z</time>
      </trkpt>
      <trkpt lat="43.55525" lon="6.4747">
        <ele>416</ele>
        <time>2026-03-11T15:20:53Z</time>
      </trkpt>
      <trkpt lat="43.55522" lon="6.47473">
        <ele>415</ele>
        <time>2026-03-11T15:20:55Z</time>
      </trkpt>
      <trkpt lat="43.55519" lon="6.47477">
        <ele>415</ele>
        <time>2026-03-11T15:20:59Z</time>
      </trkpt>
      <trkpt lat="43.55516" lon="6.4748">
        <ele>415</ele>
        <time>2026-03-11T15:21:01Z</time>
      </trkpt>
      <trkpt lat="43.55514" lon="6.47482">
        <ele>414</ele>
        <time>2026-03-11T15:21:03Z</time>
      </trkpt>
      <trkpt lat="43.55503" lon="6.475">
        <ele>410</ele>
        <time>2026-03-11T15:21:21Z</time>
      </trkpt>
      <trkpt lat="43.55501" lon="6.47503">
        <ele>409</ele>
        <time>2026-03-11T15:21:25Z</time>
      </trkpt>
      <trkpt lat="43.55501" lon="6.47508">
        <ele>409</ele>
        <time>2026-03-11T15:21:29Z</time>
      </trkpt>
      <trkpt lat="43.55499" lon="6.47513">
        <ele>409</ele>
        <time>2026-03-11T15:21:33Z</time>
      </trkpt>
      <trkpt lat="43.55498" lon="6.47516">
        <ele>409</ele>
        <time>2026-03-11T15:21:35Z</time>
      </trkpt>
      <trkpt lat="43.55498" lon="6.47522">
        <ele>409</ele>
        <time>2026-03-11T15:21:39Z</time>
      </trkpt>
      <trkpt lat="43.55495" lon="6.47529">
        <ele>409</ele>
        <time>2026-03-11T15:21:45Z</time>
      </trkpt>
      <trkpt lat="43.55494" lon="6.47532">
        <ele>409</ele>
        <time>2026-03-11T15:21:49Z</time>
      </trkpt>
      <trkpt lat="43.55492" lon="6.47536">
        <ele>409</ele>
        <time>2026-03-11T15:21:53Z</time>
      </trkpt>
      <trkpt lat="43.55483" lon="6.47555">
        <ele>410</ele>
        <time>2026-03-11T15:22:11Z</time>
      </trkpt>
      <trkpt lat="43.55475" lon="6.47557">
        <ele>411</ele>
        <time>2026-03-11T15:22:19Z</time>
      </trkpt>
      <trkpt lat="43.55471" lon="6.47562">
        <ele>411</ele>
        <time>2026-03-11T15:22:25Z</time>
      </trkpt>
      <trkpt lat="43.55469" lon="6.47565">
        <ele>411</ele>
        <time>2026-03-11T15:22:27Z</time>
      </trkpt>
      <trkpt lat="43.55467" lon="6.47567">
        <ele>411</ele>
        <time>2026-03-11T15:22:29Z</time>
      </trkpt>
      <trkpt lat="43.55464" lon="6.47568">
        <ele>410</ele>
        <time>2026-03-11T15:22:33Z</time>
      </trkpt>
      <trkpt lat="43.55458" lon="6.47573">
        <ele>407</ele>
        <time>2026-03-11T15:22:41Z</time>
      </trkpt>
      <trkpt lat="43.55455" lon="6.47573">
        <ele>406</ele>
        <time>2026-03-11T15:22:43Z</time>
      </trkpt>
      <trkpt lat="43.55451" lon="6.47577">
        <ele>404</ele>
        <time>2026-03-11T15:22:49Z</time>
      </trkpt>
      <trkpt lat="43.55449" lon="6.47579">
        <ele>403</ele>
        <time>2026-03-11T15:22:53Z</time>
      </trkpt>
      <trkpt lat="43.55447" lon="6.47582">
        <ele>403</ele>
        <time>2026-03-11T15:22:57Z</time>
      </trkpt>
      <trkpt lat="43.55444" lon="6.47585">
        <ele>402</ele>
        <time>2026-03-11T15:23:01Z</time>
      </trkpt>
      <trkpt lat="43.55433" lon="6.47595">
        <ele>402</ele>
        <time>2026-03-11T15:23:15Z</time>
      </trkpt>
      <trkpt lat="43.55431" lon="6.47597">
        <ele>402</ele>
        <time>2026-03-11T15:23:17Z</time>
      </trkpt>
      <trkpt lat="43.5543" lon="6.47598">
        <ele>402</ele>
        <time>2026-03-11T15:23:19Z</time>
      </trkpt>
      <trkpt lat="43.55424" lon="6.47602">
        <ele>402</ele>
        <time>2026-03-11T15:23:27Z</time>
      </trkpt>
      <trkpt lat="43.55423" lon="6.47604">
        <ele>402</ele>
        <time>2026-03-11T15:23:29Z</time>
      </trkpt>
      <trkpt lat="43.55421" lon="6.47609">
        <ele>402</ele>
        <time>2026-03-11T15:23:33Z</time>
      </trkpt>
      <trkpt lat="43.55418" lon="6.4761">
        <ele>401</ele>
        <time>2026-03-11T15:23:35Z</time>
      </trkpt>
      <trkpt lat="43.55412" lon="6.47618">
        <ele>400</ele>
        <time>2026-03-11T15:23:45Z</time>
      </trkpt>
      <trkpt lat="43.5541" lon="6.47619">
        <ele>399</ele>
        <time>2026-03-11T15:23:47Z</time>
      </trkpt>
      <trkpt lat="43.55407" lon="6.47622">
        <ele>398</ele>
        <time>2026-03-11T15:23:51Z</time>
      </trkpt>
      <trkpt lat="43.55405" lon="6.47627">
        <ele>397</ele>
        <time>2026-03-11T15:23:55Z</time>
      </trkpt>
      <trkpt lat="43.55403" lon="6.47628">
        <ele>397</ele>
        <time>2026-03-11T15:23:57Z</time>
      </trkpt>
      <trkpt lat="43.55402" lon="6.47631">
        <ele>397</ele>
        <time>2026-03-11T15:24:01Z</time>
      </trkpt>
      <trkpt lat="43.5539" lon="6.47643">
        <ele>396</ele>
        <time>2026-03-11T15:24:13Z</time>
      </trkpt>
      <trkpt lat="43.55388" lon="6.47645">
        <ele>396</ele>
        <time>2026-03-11T15:24:15Z</time>
      </trkpt>
      <trkpt lat="43.55384" lon="6.47649">
        <ele>395</ele>
        <time>2026-03-11T15:24:19Z</time>
      </trkpt>
      <trkpt lat="43.5538" lon="6.47652">
        <ele>395</ele>
        <time>2026-03-11T15:24:23Z</time>
      </trkpt>
      <trkpt lat="43.55378" lon="6.47653">
        <ele>395</ele>
        <time>2026-03-11T15:24:25Z</time>
      </trkpt>
      <trkpt lat="43.55365" lon="6.47663">
        <ele>395</ele>
        <time>2026-03-11T15:24:37Z</time>
      </trkpt>
      <trkpt lat="43.5536" lon="6.47669">
        <ele>395</ele>
        <time>2026-03-11T15:24:43Z</time>
      </trkpt>
      <trkpt lat="43.55355" lon="6.47671">
        <ele>394</ele>
        <time>2026-03-11T15:24:49Z</time>
      </trkpt>
      <trkpt lat="43.55352" lon="6.47671">
        <ele>393</ele>
        <time>2026-03-11T15:24:54Z</time>
      </trkpt>
      <trkpt lat="43.5535" lon="6.47672">
        <ele>392</ele>
        <time>2026-03-11T15:24:56Z</time>
      </trkpt>
      <trkpt lat="43.55345" lon="6.47675">
        <ele>389</ele>
        <time>2026-03-11T15:25:00Z</time>
      </trkpt>
      <trkpt lat="43.55343" lon="6.47677">
        <ele>388</ele>
        <time>2026-03-11T15:25:02Z</time>
      </trkpt>
      <trkpt lat="43.55341" lon="6.47677">
        <ele>388</ele>
        <time>2026-03-11T15:25:04Z</time>
      </trkpt>
      <trkpt lat="43.55338" lon="6.4768">
        <ele>387</ele>
        <time>2026-03-11T15:25:06Z</time>
      </trkpt>
      <trkpt lat="43.55324" lon="6.47685">
        <ele>386</ele>
        <time>2026-03-11T15:25:16Z</time>
      </trkpt>
      <trkpt lat="43.55315" lon="6.47683">
        <ele>385</ele>
        <time>2026-03-11T15:25:24Z</time>
      </trkpt>
      <trkpt lat="43.55313" lon="6.47683">
        <ele>384</ele>
        <time>2026-03-11T15:25:28Z</time>
      </trkpt>
      <trkpt lat="43.55311" lon="6.47683">
        <ele>384</ele>
        <time>2026-03-11T15:25:30Z</time>
      </trkpt>
      <trkpt lat="43.55308" lon="6.47681">
        <ele>384</ele>
        <time>2026-03-11T15:25:32Z</time>
      </trkpt>
      <trkpt lat="43.55304" lon="6.47675">
        <ele>384</ele>
        <time>2026-03-11T15:25:36Z</time>
      </trkpt>
      <trkpt lat="43.55296" lon="6.47664">
        <ele>383</ele>
        <time>2026-03-11T15:25:44Z</time>
      </trkpt>
      <trkpt lat="43.55294" lon="6.4766">
        <ele>383</ele>
        <time>2026-03-11T15:25:48Z</time>
      </trkpt>
      <trkpt lat="43.5529" lon="6.47656">
        <ele>382</ele>
        <time>2026-03-11T15:25:52Z</time>
      </trkpt>
      <trkpt lat="43.5528" lon="6.47647">
        <ele>380</ele>
        <time>2026-03-11T15:26:04Z</time>
      </trkpt>
      <trkpt lat="43.55277" lon="6.47645">
        <ele>380</ele>
        <time>2026-03-11T15:26:06Z</time>
      </trkpt>
      <trkpt lat="43.55271" lon="6.47638">
        <ele>379</ele>
        <time>2026-03-11T15:26:14Z</time>
      </trkpt>
      <trkpt lat="43.55269" lon="6.47636">
        <ele>379</ele>
        <time>2026-03-11T15:26:16Z</time>
      </trkpt>
      <trkpt lat="43.55267" lon="6.47634">
        <ele>378</ele>
        <time>2026-03-11T15:26:18Z</time>
      </trkpt>
      <trkpt lat="43.55265" lon="6.47632">
        <ele>378</ele>
        <time>2026-03-11T15:26:20Z</time>
      </trkpt>
      <trkpt lat="43.55239" lon="6.47606">
        <ele>375</ele>
        <time>2026-03-11T15:26:44Z</time>
      </trkpt>
      <trkpt lat="43.55235" lon="6.47602">
        <ele>374</ele>
        <time>2026-03-11T15:26:48Z</time>
      </trkpt>
      <trkpt lat="43.55233" lon="6.476">
        <ele>373</ele>
        <time>2026-03-11T15:26:50Z</time>
      </trkpt>
      <trkpt lat="43.5523" lon="6.47598">
        <ele>373</ele>
        <time>2026-03-11T15:26:52Z</time>
      </trkpt>
      <trkpt lat="43.55226" lon="6.47593">
        <ele>373</ele>
        <time>2026-03-11T15:26:56Z</time>
      </trkpt>
      <trkpt lat="43.55224" lon="6.47592">
        <ele>373</ele>
        <time>2026-03-11T15:26:58Z</time>
      </trkpt>
      <trkpt lat="43.55219" lon="6.47585">
        <ele>374</ele>
        <time>2026-03-11T15:27:04Z</time>
      </trkpt>
      <trkpt lat="43.55218" lon="6.47583">
        <ele>374</ele>
        <time>2026-03-11T15:27:06Z</time>
      </trkpt>
      <trkpt lat="43.55216" lon="6.47581">
        <ele>375</ele>
        <time>2026-03-11T15:27:12Z</time>
      </trkpt>
      <trkpt lat="43.55215" lon="6.47579">
        <ele>376</ele>
        <time>2026-03-11T15:27:18Z</time>
      </trkpt>
      <trkpt lat="43.55215" lon="6.47573">
        <ele>376</ele>
        <time>2026-03-11T15:27:26Z</time>
      </trkpt>
      <trkpt lat="43.55216" lon="6.47573">
        <ele>376</ele>
        <time>2026-03-11T15:27:56Z</time>
      </trkpt>
      <trkpt lat="43.5522" lon="6.47572">
        <ele>377</ele>
        <time>2026-03-11T15:28:02Z</time>
      </trkpt>
      <trkpt lat="43.55221" lon="6.4757">
        <ele>378</ele>
        <time>2026-03-11T15:28:12Z</time>
      </trkpt>
      <trkpt lat="43.55223" lon="6.47568">
        <ele>380</ele>
        <time>2026-03-11T15:28:16Z</time>
      </trkpt>
      <trkpt lat="43.55222" lon="6.47572">
        <ele>380</ele>
        <time>2026-03-11T15:28:24Z</time>
      </trkpt>
      <trkpt lat="43.5522" lon="6.47574">
        <ele>378</ele>
        <time>2026-03-11T15:28:50Z</time>
      </trkpt>
      <trkpt lat="43.5522" lon="6.47573">
        <ele>376</ele>
        <time>2026-03-11T15:28:58Z</time>
      </trkpt>
      <trkpt lat="43.55221" lon="6.4757">
        <ele>378</ele>
        <time>2026-03-11T15:29:04Z</time>
      </trkpt>
      <trkpt lat="43.5522" lon="6.47576">
        <ele>379</ele>
        <time>2026-03-11T15:29:24Z</time>
      </trkpt>
      <trkpt lat="43.55221" lon="6.47572">
        <ele>379</ele>
        <time>2026-03-11T15:29:34Z</time>
      </trkpt>
      <trkpt lat="43.55224" lon="6.47566">
        <ele>378</ele>
        <time>2026-03-11T15:29:56Z</time>
      </trkpt>
      <trkpt lat="43.55222" lon="6.4757">
        <ele>378</ele>
        <time>2026-03-11T15:30:04Z</time>
      </trkpt>
      <trkpt lat="43.5522" lon="6.47572">
        <ele>378</ele>
        <time>2026-03-11T15:30:08Z</time>
      </trkpt>
      <trkpt lat="43.55217" lon="6.47576">
        <ele>379</ele>
        <time>2026-03-11T15:30:14Z</time>
      </trkpt>
      <trkpt lat="43.55218" lon="6.47576">
        <ele>379</ele>
        <time>2026-03-11T15:30:28Z</time>
      </trkpt>
      <trkpt lat="43.55219" lon="6.47578">
        <ele>380</ele>
        <time>2026-03-11T15:30:34Z</time>
      </trkpt>
      <trkpt lat="43.55221" lon="6.47579">
        <ele>381</ele>
        <time>2026-03-11T15:30:38Z</time>
      </trkpt>
      <trkpt lat="43.55221" lon="6.47576">
        <ele>381</ele>
        <time>2026-03-11T15:30:42Z</time>
      </trkpt>
      <trkpt lat="43.55222" lon="6.47574">
        <ele>382</ele>
        <time>2026-03-11T15:30:56Z</time>
      </trkpt>
      <trkpt lat="43.55223" lon="6.47576">
        <ele>381</ele>
        <time>2026-03-11T15:31:10Z</time>
      </trkpt>
      <trkpt lat="43.55221" lon="6.47576">
        <ele>381</ele>
        <time>2026-03-11T15:31:14Z</time>
      </trkpt>
      <trkpt lat="43.5522" lon="6.47573">
        <ele>381</ele>
        <time>2026-03-11T15:31:20Z</time>
      </trkpt>
      <trkpt lat="43.55223" lon="6.47571">
        <ele>380</ele>
        <time>2026-03-11T15:31:54Z</time>
      </trkpt>
      <trkpt lat="43.55224" lon="6.47568">
        <ele>378</ele>
        <time>2026-03-11T15:32:20Z</time>
      </trkpt>
      <trkpt lat="43.55224" lon="6.47569">
        <ele>377</ele>
        <time>2026-03-11T15:33:12Z</time>
      </trkpt>
      <trkpt lat="43.55221" lon="6.4757">
        <ele>377</ele>
        <time>2026-03-11T15:33:20Z</time>
      </trkpt>
      <trkpt lat="43.55222" lon="6.47567">
        <ele>377</ele>
        <time>2026-03-11T15:33:34Z</time>
      </trkpt>
      <trkpt lat="43.5522" lon="6.4757">
        <ele>377</ele>
        <time>2026-03-11T15:33:40Z</time>
      </trkpt>
      <trkpt lat="43.55218" lon="6.47566">
        <ele>376</ele>
        <time>2026-03-11T15:33:48Z</time>
      </trkpt>
      <trkpt lat="43.55217" lon="6.47563">
        <ele>376</ele>
        <time>2026-03-11T15:33:50Z</time>
      </trkpt>
      <trkpt lat="43.55219" lon="6.47554">
        <ele>376</ele>
        <time>2026-03-11T15:33:56Z</time>
      </trkpt>
      <trkpt lat="43.5522" lon="6.47551">
        <ele>376</ele>
        <time>2026-03-11T15:33:58Z</time>
      </trkpt>
      <trkpt lat="43.5522" lon="6.47548">
        <ele>377</ele>
        <time>2026-03-11T15:34:00Z</time>
      </trkpt>
      <trkpt lat="43.55222" lon="6.47538">
        <ele>378</ele>
        <time>2026-03-11T15:34:06Z</time>
      </trkpt>
      <trkpt lat="43.55221" lon="6.4752">
        <ele>378</ele>
        <time>2026-03-11T15:34:18Z</time>
      </trkpt>
      <trkpt lat="43.55218" lon="6.47514">
        <ele>377</ele>
        <time>2026-03-11T15:34:22Z</time>
      </trkpt>
      <trkpt lat="43.55218" lon="6.47509">
        <ele>376</ele>
        <time>2026-03-11T15:34:26Z</time>
      </trkpt>
      <trkpt lat="43.55217" lon="6.47503">
        <ele>374</ele>
        <time>2026-03-11T15:34:30Z</time>
      </trkpt>
      <trkpt lat="43.55214" lon="6.47489">
        <ele>373</ele>
        <time>2026-03-11T15:34:40Z</time>
      </trkpt>
      <trkpt lat="43.55214" lon="6.47482">
        <ele>372</ele>
        <time>2026-03-11T15:34:44Z</time>
      </trkpt>
      <trkpt lat="43.55212" lon="6.47478">
        <ele>371</ele>
        <time>2026-03-11T15:34:48Z</time>
      </trkpt>
      <trkpt lat="43.55211" lon="6.47475">
        <ele>371</ele>
        <time>2026-03-11T15:34:50Z</time>
      </trkpt>
      <trkpt lat="43.5521" lon="6.47472">
        <ele>371</ele>
        <time>2026-03-11T15:34:52Z</time>
      </trkpt>
      <trkpt lat="43.55208" lon="6.4747">
        <ele>370</ele>
        <time>2026-03-11T15:34:54Z</time>
      </trkpt>
      <trkpt lat="43.55206" lon="6.47468">
        <ele>371</ele>
        <time>2026-03-11T15:34:56Z</time>
      </trkpt>
      <trkpt lat="43.55205" lon="6.47467">
        <ele>371</ele>
        <time>2026-03-11T15:34:58Z</time>
      </trkpt>
      <trkpt lat="43.55203" lon="6.47465">
        <ele>370</ele>
        <time>2026-03-11T15:35:00Z</time>
      </trkpt>
      <trkpt lat="43.55198" lon="6.47463">
        <ele>370</ele>
        <time>2026-03-11T15:35:04Z</time>
      </trkpt>
      <trkpt lat="43.55191" lon="6.47463">
        <ele>369</ele>
        <time>2026-03-11T15:35:10Z</time>
      </trkpt>
      <trkpt lat="43.55182" lon="6.47465">
        <ele>368</ele>
        <time>2026-03-11T15:35:20Z</time>
      </trkpt>
      <trkpt lat="43.55179" lon="6.47466">
        <ele>368</ele>
        <time>2026-03-11T15:35:22Z</time>
      </trkpt>
      <trkpt lat="43.55176" lon="6.47466">
        <ele>367</ele>
        <time>2026-03-11T15:35:24Z</time>
      </trkpt>
      <trkpt lat="43.55175" lon="6.47467">
        <ele>367</ele>
        <time>2026-03-11T15:35:26Z</time>
      </trkpt>
      <trkpt lat="43.55172" lon="6.47467">
        <ele>367</ele>
        <time>2026-03-11T15:35:28Z</time>
      </trkpt>
      <trkpt lat="43.5517" lon="6.47467">
        <ele>367</ele>
        <time>2026-03-11T15:35:30Z</time>
      </trkpt>
      <trkpt lat="43.55163" lon="6.4747">
        <ele>368</ele>
        <time>2026-03-11T15:35:34Z</time>
      </trkpt>
      <trkpt lat="43.5516" lon="6.4747">
        <ele>368</ele>
        <time>2026-03-11T15:35:36Z</time>
      </trkpt>
      <trkpt lat="43.55158" lon="6.4747">
        <ele>369</ele>
        <time>2026-03-11T15:35:38Z</time>
      </trkpt>
      <trkpt lat="43.55151" lon="6.47471">
        <ele>368</ele>
        <time>2026-03-11T15:35:46Z</time>
      </trkpt>
      <trkpt lat="43.55149" lon="6.47471">
        <ele>368</ele>
        <time>2026-03-11T15:35:48Z</time>
      </trkpt>
      <trkpt lat="43.55146" lon="6.47472">
        <ele>368</ele>
        <time>2026-03-11T15:35:50Z</time>
      </trkpt>
      <trkpt lat="43.55144" lon="6.47472">
        <ele>368</ele>
        <time>2026-03-11T15:35:52Z</time>
      </trkpt>
      <trkpt lat="43.55141" lon="6.47471">
        <ele>367</ele>
        <time>2026-03-11T15:35:54Z</time>
      </trkpt>
      <trkpt lat="43.55132" lon="6.47473">
        <ele>366</ele>
        <time>2026-03-11T15:36:00Z</time>
      </trkpt>
      <trkpt lat="43.5513" lon="6.47473">
        <ele>366</ele>
        <time>2026-03-11T15:36:02Z</time>
      </trkpt>
      <trkpt lat="43.55125" lon="6.47473">
        <ele>365</ele>
        <time>2026-03-11T15:36:06Z</time>
      </trkpt>
      <trkpt lat="43.55122" lon="6.47473">
        <ele>364</ele>
        <time>2026-03-11T15:36:08Z</time>
      </trkpt>
      <trkpt lat="43.55116" lon="6.47472">
        <ele>362</ele>
        <time>2026-03-11T15:36:14Z</time>
      </trkpt>
      <trkpt lat="43.55102" lon="6.47469">
        <ele>358</ele>
        <time>2026-03-11T15:36:24Z</time>
      </trkpt>
      <trkpt lat="43.55094" lon="6.4747">
        <ele>356</ele>
        <time>2026-03-11T15:36:30Z</time>
      </trkpt>
      <trkpt lat="43.5509" lon="6.47469">
        <ele>356</ele>
        <time>2026-03-11T15:36:34Z</time>
      </trkpt>
      <trkpt lat="43.55082" lon="6.47467">
        <ele>355</ele>
        <time>2026-03-11T15:36:40Z</time>
      </trkpt>
      <trkpt lat="43.5508" lon="6.47466">
        <ele>355</ele>
        <time>2026-03-11T15:36:42Z</time>
      </trkpt>
      <trkpt lat="43.55077" lon="6.47466">
        <ele>355</ele>
        <time>2026-03-11T15:36:44Z</time>
      </trkpt>
      <trkpt lat="43.55072" lon="6.47464">
        <ele>354</ele>
        <time>2026-03-11T15:36:48Z</time>
      </trkpt>
      <trkpt lat="43.55062" lon="6.47457">
        <ele>352</ele>
        <time>2026-03-11T15:36:56Z</time>
      </trkpt>
      <trkpt lat="43.55059" lon="6.47451">
        <ele>351</ele>
        <time>2026-03-11T15:37:00Z</time>
      </trkpt>
      <trkpt lat="43.55056" lon="6.47443">
        <ele>350</ele>
        <time>2026-03-11T15:37:04Z</time>
      </trkpt>
      <trkpt lat="43.55029" lon="6.47405">
        <ele>344</ele>
        <time>2026-03-11T15:37:34Z</time>
      </trkpt>
      <trkpt lat="43.55027" lon="6.47403">
        <ele>343</ele>
        <time>2026-03-11T15:37:36Z</time>
      </trkpt>
      <trkpt lat="43.55025" lon="6.474">
        <ele>343</ele>
        <time>2026-03-11T15:37:38Z</time>
      </trkpt>
      <trkpt lat="43.55023" lon="6.47398">
        <ele>342</ele>
        <time>2026-03-11T15:37:40Z</time>
      </trkpt>
      <trkpt lat="43.55013" lon="6.47392">
        <ele>341</ele>
        <time>2026-03-11T15:37:48Z</time>
      </trkpt>
      <trkpt lat="43.55011" lon="6.4739">
        <ele>341</ele>
        <time>2026-03-11T15:37:50Z</time>
      </trkpt>
      <trkpt lat="43.55" lon="6.47382">
        <ele>340</ele>
        <time>2026-03-11T15:38:00Z</time>
      </trkpt>
      <trkpt lat="43.54994" lon="6.47376">
        <ele>340</ele>
        <time>2026-03-11T15:38:06Z</time>
      </trkpt>
      <trkpt lat="43.5497" lon="6.47357">
        <ele>336</ele>
        <time>2026-03-11T15:38:30Z</time>
      </trkpt>
      <trkpt lat="43.54967" lon="6.47354">
        <ele>334</ele>
        <time>2026-03-11T15:38:34Z</time>
      </trkpt>
      <trkpt lat="43.54963" lon="6.47347">
        <ele>332</ele>
        <time>2026-03-11T15:38:40Z</time>
      </trkpt>
      <trkpt lat="43.54953" lon="6.47336">
        <ele>329</ele>
        <time>2026-03-11T15:38:50Z</time>
      </trkpt>
      <trkpt lat="43.54951" lon="6.47333">
        <ele>328</ele>
        <time>2026-03-11T15:38:52Z</time>
      </trkpt>
      <trkpt lat="43.54949" lon="6.4733">
        <ele>327</ele>
        <time>2026-03-11T15:38:54Z</time>
      </trkpt>
      <trkpt lat="43.54946" lon="6.47328">
        <ele>327</ele>
        <time>2026-03-11T15:38:56Z</time>
      </trkpt>
      <trkpt lat="43.54944" lon="6.47326">
        <ele>326</ele>
        <time>2026-03-11T15:38:58Z</time>
      </trkpt>
      <trkpt lat="43.54931" lon="6.47311">
        <ele>324</ele>
        <time>2026-03-11T15:39:10Z</time>
      </trkpt>
      <trkpt lat="43.54922" lon="6.47301">
        <ele>323</ele>
        <time>2026-03-11T15:39:18Z</time>
      </trkpt>
      <trkpt lat="43.54903" lon="6.47288">
        <ele>323</ele>
        <time>2026-03-11T15:39:34Z</time>
      </trkpt>
      <trkpt lat="43.54901" lon="6.47286">
        <ele>324</ele>
        <time>2026-03-11T15:39:36Z</time>
      </trkpt>
      <trkpt lat="43.54898" lon="6.47284">
        <ele>324</ele>
        <time>2026-03-11T15:39:38Z</time>
      </trkpt>
      <trkpt lat="43.54896" lon="6.47283">
        <ele>324</ele>
        <time>2026-03-11T15:39:40Z</time>
      </trkpt>
      <trkpt lat="43.54874" lon="6.47279">
        <ele>325</ele>
        <time>2026-03-11T15:39:58Z</time>
      </trkpt>
      <trkpt lat="43.5487" lon="6.47276">
        <ele>325</ele>
        <time>2026-03-11T15:40:02Z</time>
      </trkpt>
      <trkpt lat="43.54855" lon="6.47272">
        <ele>324</ele>
        <time>2026-03-11T15:40:14Z</time>
      </trkpt>
      <trkpt lat="43.54852" lon="6.4727">
        <ele>324</ele>
        <time>2026-03-11T15:40:16Z</time>
      </trkpt>
      <trkpt lat="43.54849" lon="6.47269">
        <ele>324</ele>
        <time>2026-03-11T15:40:18Z</time>
      </trkpt>
      <trkpt lat="43.54846" lon="6.47268">
        <ele>324</ele>
        <time>2026-03-11T15:40:20Z</time>
      </trkpt>
      <trkpt lat="43.54843" lon="6.47267">
        <ele>324</ele>
        <time>2026-03-11T15:40:22Z</time>
      </trkpt>
      <trkpt lat="43.54834" lon="6.47264">
        <ele>324</ele>
        <time>2026-03-11T15:40:30Z</time>
      </trkpt>
      <trkpt lat="43.54827" lon="6.4726">
        <ele>323</ele>
        <time>2026-03-11T15:40:36Z</time>
      </trkpt>
      <trkpt lat="43.54822" lon="6.47256">
        <ele>322</ele>
        <time>2026-03-11T15:40:40Z</time>
      </trkpt>
      <trkpt lat="43.5482" lon="6.47256">
        <ele>322</ele>
        <time>2026-03-11T15:40:42Z</time>
      </trkpt>
      <trkpt lat="43.54816" lon="6.47256">
        <ele>322</ele>
        <time>2026-03-11T15:40:44Z</time>
      </trkpt>
      <trkpt lat="43.54807" lon="6.47254">
        <ele>320</ele>
        <time>2026-03-11T15:40:50Z</time>
      </trkpt>
      <trkpt lat="43.54795" lon="6.47249">
        <ele>318</ele>
        <time>2026-03-11T15:41:00Z</time>
      </trkpt>
      <trkpt lat="43.54793" lon="6.47248">
        <ele>317</ele>
        <time>2026-03-11T15:41:02Z</time>
      </trkpt>
      <trkpt lat="43.54791" lon="6.47247">
        <ele>316</ele>
        <time>2026-03-11T15:41:04Z</time>
      </trkpt>
      <trkpt lat="43.54789" lon="6.47246">
        <ele>316</ele>
        <time>2026-03-11T15:41:06Z</time>
      </trkpt>
      <trkpt lat="43.54787" lon="6.47245">
        <ele>315</ele>
        <time>2026-03-11T15:41:08Z</time>
      </trkpt>
      <trkpt lat="43.54785" lon="6.47244">
        <ele>314</ele>
        <time>2026-03-11T15:41:10Z</time>
      </trkpt>
      <trkpt lat="43.5478" lon="6.47243">
        <ele>313</ele>
        <time>2026-03-11T15:41:14Z</time>
      </trkpt>
      <trkpt lat="43.54778" lon="6.47243">
        <ele>312</ele>
        <time>2026-03-11T15:41:16Z</time>
      </trkpt>
      <trkpt lat="43.54775" lon="6.47243">
        <ele>312</ele>
        <time>2026-03-11T15:41:18Z</time>
      </trkpt>
      <trkpt lat="43.54772" lon="6.47242">
        <ele>311</ele>
        <time>2026-03-11T15:41:20Z</time>
      </trkpt>
      <trkpt lat="43.5477" lon="6.47241">
        <ele>311</ele>
        <time>2026-03-11T15:41:22Z</time>
      </trkpt>
      <trkpt lat="43.54768" lon="6.4724">
        <ele>311</ele>
        <time>2026-03-11T15:41:24Z</time>
      </trkpt>
      <trkpt lat="43.54762" lon="6.47238">
        <ele>310</ele>
        <time>2026-03-11T15:41:28Z</time>
      </trkpt>
      <trkpt lat="43.5476" lon="6.47237">
        <ele>310</ele>
        <time>2026-03-11T15:41:30Z</time>
      </trkpt>
      <trkpt lat="43.54755" lon="6.47234">
        <ele>310</ele>
        <time>2026-03-11T15:41:34Z</time>
      </trkpt>
      <trkpt lat="43.54753" lon="6.47234">
        <ele>310</ele>
        <time>2026-03-11T15:41:36Z</time>
      </trkpt>
      <trkpt lat="43.54751" lon="6.47232">
        <ele>310</ele>
        <time>2026-03-11T15:41:38Z</time>
      </trkpt>
      <trkpt lat="43.54749" lon="6.47231">
        <ele>310</ele>
        <time>2026-03-11T15:41:40Z</time>
      </trkpt>
      <trkpt lat="43.54747" lon="6.4723">
        <ele>310</ele>
        <time>2026-03-11T15:41:42Z</time>
      </trkpt>
      <trkpt lat="43.5474" lon="6.4723">
        <ele>309</ele>
        <time>2026-03-11T15:41:48Z</time>
      </trkpt>
      <trkpt lat="43.54736" lon="6.47228">
        <ele>307</ele>
        <time>2026-03-11T15:41:52Z</time>
      </trkpt>
      <trkpt lat="43.54733" lon="6.47227">
        <ele>306</ele>
        <time>2026-03-11T15:41:54Z</time>
      </trkpt>
      <trkpt lat="43.54727" lon="6.47227">
        <ele>306</ele>
        <time>2026-03-11T15:41:58Z</time>
      </trkpt>
      <trkpt lat="43.54724" lon="6.47227">
        <ele>305</ele>
        <time>2026-03-11T15:42:00Z</time>
      </trkpt>
      <trkpt lat="43.54713" lon="6.47229">
        <ele>304</ele>
        <time>2026-03-11T15:42:08Z</time>
      </trkpt>
      <trkpt lat="43.5471" lon="6.47229">
        <ele>304</ele>
        <time>2026-03-11T15:42:10Z</time>
      </trkpt>
      <trkpt lat="43.54708" lon="6.47228">
        <ele>305</ele>
        <time>2026-03-11T15:42:12Z</time>
      </trkpt>
      <trkpt lat="43.54706" lon="6.47227">
        <ele>305</ele>
        <time>2026-03-11T15:42:14Z</time>
      </trkpt>
      <trkpt lat="43.54704" lon="6.47225">
        <ele>305</ele>
        <time>2026-03-11T15:42:16Z</time>
      </trkpt>
      <trkpt lat="43.54701" lon="6.47224">
        <ele>305</ele>
        <time>2026-03-11T15:42:18Z</time>
      </trkpt>
      <trkpt lat="43.54694" lon="6.47219">
        <ele>303</ele>
        <time>2026-03-11T15:42:24Z</time>
      </trkpt>
      <trkpt lat="43.54683" lon="6.47214">
        <ele>299</ele>
        <time>2026-03-11T15:42:34Z</time>
      </trkpt>
      <trkpt lat="43.5468" lon="6.47213">
        <ele>298</ele>
        <time>2026-03-11T15:42:36Z</time>
      </trkpt>
      <trkpt lat="43.54678" lon="6.47212">
        <ele>298</ele>
        <time>2026-03-11T15:42:38Z</time>
      </trkpt>
      <trkpt lat="43.54676" lon="6.4721">
        <ele>297</ele>
        <time>2026-03-11T15:42:40Z</time>
      </trkpt>
      <trkpt lat="43.54674" lon="6.47209">
        <ele>296</ele>
        <time>2026-03-11T15:42:42Z</time>
      </trkpt>
      <trkpt lat="43.54671" lon="6.47209">
        <ele>296</ele>
        <time>2026-03-11T15:42:44Z</time>
      </trkpt>
      <trkpt lat="43.54669" lon="6.47207">
        <ele>296</ele>
        <time>2026-03-11T15:42:46Z</time>
      </trkpt>
      <trkpt lat="43.54667" lon="6.47206">
        <ele>295</ele>
        <time>2026-03-11T15:42:48Z</time>
      </trkpt>
      <trkpt lat="43.54664" lon="6.47205">
        <ele>295</ele>
        <time>2026-03-11T15:42:50Z</time>
      </trkpt>
      <trkpt lat="43.54662" lon="6.47204">
        <ele>294</ele>
        <time>2026-03-11T15:42:52Z</time>
      </trkpt>
      <trkpt lat="43.54658" lon="6.47204">
        <ele>294</ele>
        <time>2026-03-11T15:42:56Z</time>
      </trkpt>
      <trkpt lat="43.54646" lon="6.47202">
        <ele>294</ele>
        <time>2026-03-11T15:43:04Z</time>
      </trkpt>
      <trkpt lat="43.54641" lon="6.47202">
        <ele>294</ele>
        <time>2026-03-11T15:43:08Z</time>
      </trkpt>
      <trkpt lat="43.54637" lon="6.472">
        <ele>294</ele>
        <time>2026-03-11T15:43:10Z</time>
      </trkpt>
      <trkpt lat="43.54635" lon="6.47199">
        <ele>294</ele>
        <time>2026-03-11T15:43:12Z</time>
      </trkpt>
      <trkpt lat="43.5463" lon="6.47197">
        <ele>294</ele>
        <time>2026-03-11T15:43:16Z</time>
      </trkpt>
      <trkpt lat="43.5461" lon="6.47188">
        <ele>293</ele>
        <time>2026-03-11T15:43:32Z</time>
      </trkpt>
      <trkpt lat="43.54607" lon="6.47186">
        <ele>293</ele>
        <time>2026-03-11T15:43:34Z</time>
      </trkpt>
      <trkpt lat="43.54604" lon="6.47184">
        <ele>293</ele>
        <time>2026-03-11T15:43:36Z</time>
      </trkpt>
      <trkpt lat="43.54602" lon="6.47183">
        <ele>293</ele>
        <time>2026-03-11T15:43:38Z</time>
      </trkpt>
      <trkpt lat="43.54599" lon="6.47182">
        <ele>293</ele>
        <time>2026-03-11T15:43:40Z</time>
      </trkpt>
      <trkpt lat="43.54594" lon="6.47181">
        <ele>293</ele>
        <time>2026-03-11T15:43:44Z</time>
      </trkpt>
      <trkpt lat="43.54591" lon="6.4718">
        <ele>293</ele>
        <time>2026-03-11T15:43:46Z</time>
      </trkpt>
      <trkpt lat="43.54585" lon="6.47179">
        <ele>293</ele>
        <time>2026-03-11T15:43:50Z</time>
      </trkpt>
      <trkpt lat="43.54583" lon="6.47177">
        <ele>293</ele>
        <time>2026-03-11T15:43:52Z</time>
      </trkpt>
      <trkpt lat="43.54581" lon="6.47175">
        <ele>293</ele>
        <time>2026-03-11T15:43:54Z</time>
      </trkpt>
      <trkpt lat="43.54578" lon="6.47174">
        <ele>293</ele>
        <time>2026-03-11T15:43:56Z</time>
      </trkpt>
      <trkpt lat="43.54571" lon="6.47171">
        <ele>293</ele>
        <time>2026-03-11T15:44:02Z</time>
      </trkpt>
      <trkpt lat="43.54561" lon="6.47165">
        <ele>293</ele>
        <time>2026-03-11T15:44:10Z</time>
      </trkpt>
      <trkpt lat="43.54559" lon="6.47164">
        <ele>293</ele>
        <time>2026-03-11T15:44:12Z</time>
      </trkpt>
      <trkpt lat="43.54557" lon="6.47163">
        <ele>293</ele>
        <time>2026-03-11T15:44:14Z</time>
      </trkpt>
      <trkpt lat="43.54544" lon="6.47156">
        <ele>293</ele>
        <time>2026-03-11T15:44:24Z</time>
      </trkpt>
      <trkpt lat="43.54524" lon="6.47137">
        <ele>294</ele>
        <time>2026-03-11T15:44:42Z</time>
      </trkpt>
      <trkpt lat="43.54522" lon="6.47135">
        <ele>294</ele>
        <time>2026-03-11T15:44:44Z</time>
      </trkpt>
      <trkpt lat="43.54521" lon="6.47133">
        <ele>294</ele>
        <time>2026-03-11T15:44:46Z</time>
      </trkpt>
      <trkpt lat="43.54519" lon="6.47131">
        <ele>294</ele>
        <time>2026-03-11T15:44:48Z</time>
      </trkpt>
      <trkpt lat="43.54507" lon="6.47122">
        <ele>293</ele>
        <time>2026-03-11T15:44:58Z</time>
      </trkpt>
      <trkpt lat="43.54505" lon="6.4712">
        <ele>292</ele>
        <time>2026-03-11T15:45:00Z</time>
      </trkpt>
      <trkpt lat="43.54504" lon="6.47117">
        <ele>292</ele>
        <time>2026-03-11T15:45:02Z</time>
      </trkpt>
      <trkpt lat="43.54499" lon="6.47113">
        <ele>291</ele>
        <time>2026-03-11T15:45:06Z</time>
      </trkpt>
      <trkpt lat="43.54493" lon="6.47107">
        <ele>290</ele>
        <time>2026-03-11T15:45:12Z</time>
      </trkpt>
      <trkpt lat="43.54489" lon="6.47102">
        <ele>290</ele>
        <time>2026-03-11T15:45:16Z</time>
      </trkpt>
      <trkpt lat="43.54487" lon="6.471">
        <ele>290</ele>
        <time>2026-03-11T15:45:18Z</time>
      </trkpt>
      <trkpt lat="43.54482" lon="6.47096">
        <ele>290</ele>
        <time>2026-03-11T15:45:22Z</time>
      </trkpt>
      <trkpt lat="43.54481" lon="6.47094">
        <ele>290</ele>
        <time>2026-03-11T15:45:24Z</time>
      </trkpt>
      <trkpt lat="43.54479" lon="6.47091">
        <ele>291</ele>
        <time>2026-03-11T15:45:26Z</time>
      </trkpt>
      <trkpt lat="43.54477" lon="6.47089">
        <ele>291</ele>
        <time>2026-03-11T15:45:28Z</time>
      </trkpt>
      <trkpt lat="43.54475" lon="6.47087">
        <ele>291</ele>
        <time>2026-03-11T15:45:30Z</time>
      </trkpt>
      <trkpt lat="43.54462" lon="6.47076">
        <ele>292</ele>
        <time>2026-03-11T15:45:40Z</time>
      </trkpt>
      <trkpt lat="43.5446" lon="6.47074">
        <ele>292</ele>
        <time>2026-03-11T15:45:42Z</time>
      </trkpt>
      <trkpt lat="43.54459" lon="6.47071">
        <ele>292</ele>
        <time>2026-03-11T15:45:44Z</time>
      </trkpt>
      <trkpt lat="43.54447" lon="6.4706">
        <ele>292</ele>
        <time>2026-03-11T15:45:56Z</time>
      </trkpt>
      <trkpt lat="43.54445" lon="6.47058">
        <ele>292</ele>
        <time>2026-03-11T15:45:58Z</time>
      </trkpt>
      <trkpt lat="43.54443" lon="6.47055">
        <ele>292</ele>
        <time>2026-03-11T15:46:00Z</time>
      </trkpt>
      <trkpt lat="43.54443" lon="6.47056">
        <ele>293</ele>
        <time>2026-03-11T15:46:26Z</time>
      </trkpt>
      <trkpt lat="43.54443" lon="6.47052">
        <ele>293</ele>
        <time>2026-03-11T15:46:34Z</time>
      </trkpt>
      <trkpt lat="43.5444" lon="6.47051">
        <ele>293</ele>
        <time>2026-03-11T15:46:46Z</time>
      </trkpt>
      <trkpt lat="43.54441" lon="6.47048">
        <ele>293</ele>
        <time>2026-03-11T15:46:50Z</time>
      </trkpt>
      <trkpt lat="43.54443" lon="6.47048">
        <ele>293</ele>
        <time>2026-03-11T15:46:54Z</time>
      </trkpt>
      <trkpt lat="43.54444" lon="6.47048">
        <ele>292</ele>
        <time>2026-03-11T15:47:08Z</time>
      </trkpt>
      <trkpt lat="43.54446" lon="6.47049">
        <ele>291</ele>
        <time>2026-03-11T15:47:16Z</time>
      </trkpt>
      <trkpt lat="43.54447" lon="6.4705">
        <ele>292</ele>
        <time>2026-03-11T15:47:28Z</time>
      </trkpt>
      <trkpt lat="43.54447" lon="6.47047">
        <ele>293</ele>
        <time>2026-03-11T15:48:04Z</time>
      </trkpt>
      <trkpt lat="43.54438" lon="6.4704">
        <ele>292</ele>
        <time>2026-03-11T15:48:10Z</time>
      </trkpt>
      <trkpt lat="43.54435" lon="6.47038">
        <ele>292</ele>
        <time>2026-03-11T15:48:12Z</time>
      </trkpt>
      <trkpt lat="43.54434" lon="6.47036">
        <ele>291</ele>
        <time>2026-03-11T15:48:14Z</time>
      </trkpt>
      <trkpt lat="43.54429" lon="6.47023">
        <ele>288</ele>
        <time>2026-03-11T15:48:22Z</time>
      </trkpt>
      <trkpt lat="43.54427" lon="6.47019">
        <ele>286</ele>
        <time>2026-03-11T15:48:26Z</time>
      </trkpt>
      <trkpt lat="43.54421" lon="6.47015">
        <ele>284</ele>
        <time>2026-03-11T15:48:32Z</time>
      </trkpt>
      <trkpt lat="43.54419" lon="6.47013">
        <ele>283</ele>
        <time>2026-03-11T15:48:34Z</time>
      </trkpt>
      <trkpt lat="43.54417" lon="6.47006">
        <ele>282</ele>
        <time>2026-03-11T15:48:40Z</time>
      </trkpt>
      <trkpt lat="43.54416" lon="6.47004">
        <ele>281</ele>
        <time>2026-03-11T15:48:42Z</time>
      </trkpt>
      <trkpt lat="43.54414" lon="6.46999">
        <ele>279</ele>
        <time>2026-03-11T15:48:46Z</time>
      </trkpt>
      <trkpt lat="43.54412" lon="6.4699">
        <ele>278</ele>
        <time>2026-03-11T15:48:52Z</time>
      </trkpt>
      <trkpt lat="43.54412" lon="6.46986">
        <ele>277</ele>
        <time>2026-03-11T15:48:54Z</time>
      </trkpt>
      <trkpt lat="43.54412" lon="6.46976">
        <ele>275</ele>
        <time>2026-03-11T15:49:00Z</time>
      </trkpt>
      <trkpt lat="43.54411" lon="6.46972">
        <ele>275</ele>
        <time>2026-03-11T15:49:02Z</time>
      </trkpt>
      <trkpt lat="43.5441" lon="6.46963">
        <ele>274</ele>
        <time>2026-03-11T15:49:08Z</time>
      </trkpt>
      <trkpt lat="43.54409" lon="6.4696">
        <ele>274</ele>
        <time>2026-03-11T15:49:10Z</time>
      </trkpt>
      <trkpt lat="43.54408" lon="6.46954">
        <ele>274</ele>
        <time>2026-03-11T15:49:14Z</time>
      </trkpt>
      <trkpt lat="43.54408" lon="6.46944">
        <ele>274</ele>
        <time>2026-03-11T15:49:20Z</time>
      </trkpt>
      <trkpt lat="43.54407" lon="6.46941">
        <ele>274</ele>
        <time>2026-03-11T15:49:22Z</time>
      </trkpt>
      <trkpt lat="43.54405" lon="6.46934">
        <ele>274</ele>
        <time>2026-03-11T15:49:26Z</time>
      </trkpt>
      <trkpt lat="43.54404" lon="6.46931">
        <ele>274</ele>
        <time>2026-03-11T15:49:28Z</time>
      </trkpt>
      <trkpt lat="43.54402" lon="6.46926">
        <ele>274</ele>
        <time>2026-03-11T15:49:32Z</time>
      </trkpt>
      <trkpt lat="43.544" lon="6.46923">
        <ele>273</ele>
        <time>2026-03-11T15:49:34Z</time>
      </trkpt>
      <trkpt lat="43.54388" lon="6.4691">
        <ele>271</ele>
        <time>2026-03-11T15:49:48Z</time>
      </trkpt>
      <trkpt lat="43.54375" lon="6.46897">
        <ele>269</ele>
        <time>2026-03-11T15:50:00Z</time>
      </trkpt>
      <trkpt lat="43.54366" lon="6.46885">
        <ele>267</ele>
        <time>2026-03-11T15:50:10Z</time>
      </trkpt>
      <trkpt lat="43.54364" lon="6.46883">
        <ele>266</ele>
        <time>2026-03-11T15:50:12Z</time>
      </trkpt>
      <trkpt lat="43.54355" lon="6.46871">
        <ele>264</ele>
        <time>2026-03-11T15:50:22Z</time>
      </trkpt>
      <trkpt lat="43.54354" lon="6.46868">
        <ele>264</ele>
        <time>2026-03-11T15:50:24Z</time>
      </trkpt>
      <trkpt lat="43.5435" lon="6.46865">
        <ele>263</ele>
        <time>2026-03-11T15:50:28Z</time>
      </trkpt>
      <trkpt lat="43.54348" lon="6.46864">
        <ele>263</ele>
        <time>2026-03-11T15:50:30Z</time>
      </trkpt>
      <trkpt lat="43.54338" lon="6.46853">
        <ele>261</ele>
        <time>2026-03-11T15:50:40Z</time>
      </trkpt>
      <trkpt lat="43.54335" lon="6.46847">
        <ele>261</ele>
        <time>2026-03-11T15:50:44Z</time>
      </trkpt>
      <trkpt lat="43.54333" lon="6.46845">
        <ele>260</ele>
        <time>2026-03-11T15:50:46Z</time>
      </trkpt>
      <trkpt lat="43.54303" lon="6.46824">
        <ele>250</ele>
        <time>2026-03-11T15:51:14Z</time>
      </trkpt>
      <trkpt lat="43.543" lon="6.46822">
        <ele>249</ele>
        <time>2026-03-11T15:51:18Z</time>
      </trkpt>
      <trkpt lat="43.54297" lon="6.46822">
        <ele>249</ele>
        <time>2026-03-11T15:51:20Z</time>
      </trkpt>
      <trkpt lat="43.54294" lon="6.46824">
        <ele>248</ele>
        <time>2026-03-11T15:51:22Z</time>
      </trkpt>
      <trkpt lat="43.54293" lon="6.46825">
        <ele>247</ele>
        <time>2026-03-11T15:51:24Z</time>
      </trkpt>
      <trkpt lat="43.54291" lon="6.46827">
        <ele>247</ele>
        <time>2026-03-11T15:51:26Z</time>
      </trkpt>
      <trkpt lat="43.54289" lon="6.46828">
        <ele>247</ele>
        <time>2026-03-11T15:51:28Z</time>
      </trkpt>
      <trkpt lat="43.54287" lon="6.46832">
        <ele>247</ele>
        <time>2026-03-11T15:51:32Z</time>
      </trkpt>
      <trkpt lat="43.54286" lon="6.46835">
        <ele>247</ele>
        <time>2026-03-11T15:51:34Z</time>
      </trkpt>
      <trkpt lat="43.54281" lon="6.46839">
        <ele>248</ele>
        <time>2026-03-11T15:51:38Z</time>
      </trkpt>
      <trkpt lat="43.5427" lon="6.4685">
        <ele>251</ele>
        <time>2026-03-11T15:51:50Z</time>
      </trkpt>
      <trkpt lat="43.54259" lon="6.46857">
        <ele>251</ele>
        <time>2026-03-11T15:52:00Z</time>
      </trkpt>
      <trkpt lat="43.54257" lon="6.46859">
        <ele>251</ele>
        <time>2026-03-11T15:52:02Z</time>
      </trkpt>
      <trkpt lat="43.54251" lon="6.46864">
        <ele>250</ele>
        <time>2026-03-11T15:52:08Z</time>
      </trkpt>
      <trkpt lat="43.54249" lon="6.46865">
        <ele>249</ele>
        <time>2026-03-11T15:52:10Z</time>
      </trkpt>
      <trkpt lat="43.54246" lon="6.46867">
        <ele>248</ele>
        <time>2026-03-11T15:52:12Z</time>
      </trkpt>
      <trkpt lat="43.54236" lon="6.46872">
        <ele>245</ele>
        <time>2026-03-11T15:52:22Z</time>
      </trkpt>
      <trkpt lat="43.54228" lon="6.46874">
        <ele>243</ele>
        <time>2026-03-11T15:52:28Z</time>
      </trkpt>
      <trkpt lat="43.54221" lon="6.46874">
        <ele>240</ele>
        <time>2026-03-11T15:52:32Z</time>
      </trkpt>
      <trkpt lat="43.54218" lon="6.46875">
        <ele>240</ele>
        <time>2026-03-11T15:52:34Z</time>
      </trkpt>
      <trkpt lat="43.54216" lon="6.46875">
        <ele>239</ele>
        <time>2026-03-11T15:52:36Z</time>
      </trkpt>
      <trkpt lat="43.54213" lon="6.46875">
        <ele>238</ele>
        <time>2026-03-11T15:52:38Z</time>
      </trkpt>
      <trkpt lat="43.54208" lon="6.46874">
        <ele>237</ele>
        <time>2026-03-11T15:52:42Z</time>
      </trkpt>
      <trkpt lat="43.54206" lon="6.46873">
        <ele>236</ele>
        <time>2026-03-11T15:52:44Z</time>
      </trkpt>
      <trkpt lat="43.54204" lon="6.46872">
        <ele>236</ele>
        <time>2026-03-11T15:52:46Z</time>
      </trkpt>
      <trkpt lat="43.54202" lon="6.4687">
        <ele>235</ele>
        <time>2026-03-11T15:52:48Z</time>
      </trkpt>
      <trkpt lat="43.54199" lon="6.46868">
        <ele>235</ele>
        <time>2026-03-11T15:52:50Z</time>
      </trkpt>
      <trkpt lat="43.54197" lon="6.46865">
        <ele>234</ele>
        <time>2026-03-11T15:52:52Z</time>
      </trkpt>
      <trkpt lat="43.54196" lon="6.46863">
        <ele>233</ele>
        <time>2026-03-11T15:52:54Z</time>
      </trkpt>
      <trkpt lat="43.54195" lon="6.4686">
        <ele>232</ele>
        <time>2026-03-11T15:52:56Z</time>
      </trkpt>
      <trkpt lat="43.54194" lon="6.46857">
        <ele>231</ele>
        <time>2026-03-11T15:52:58Z</time>
      </trkpt>
      <trkpt lat="43.54193" lon="6.46854">
        <ele>230</ele>
        <time>2026-03-11T15:53:00Z</time>
      </trkpt>
      <trkpt lat="43.54188" lon="6.46829">
        <ele>225</ele>
        <time>2026-03-11T15:53:16Z</time>
      </trkpt>
      <trkpt lat="43.54187" lon="6.46825">
        <ele>225</ele>
        <time>2026-03-11T15:53:18Z</time>
      </trkpt>
      <trkpt lat="43.54186" lon="6.46822">
        <ele>224</ele>
        <time>2026-03-11T15:53:20Z</time>
      </trkpt>
      <trkpt lat="43.54186" lon="6.4682">
        <ele>223</ele>
        <time>2026-03-11T15:53:24Z</time>
      </trkpt>
      <trkpt lat="43.54186" lon="6.46809">
        <ele>223</ele>
        <time>2026-03-11T15:53:42Z</time>
      </trkpt>
      <trkpt lat="43.54187" lon="6.46802">
        <ele>223</ele>
        <time>2026-03-11T15:53:46Z</time>
      </trkpt>
      <trkpt lat="43.54186" lon="6.468">
        <ele>223</ele>
        <time>2026-03-11T15:53:48Z</time>
      </trkpt>
      <trkpt lat="43.54186" lon="6.46793">
        <ele>222</ele>
        <time>2026-03-11T15:53:52Z</time>
      </trkpt>
      <trkpt lat="43.54188" lon="6.46785">
        <ele>220</ele>
        <time>2026-03-11T15:53:56Z</time>
      </trkpt>
      <trkpt lat="43.54188" lon="6.46781">
        <ele>220</ele>
        <time>2026-03-11T15:53:58Z</time>
      </trkpt>
      <trkpt lat="43.54189" lon="6.46777">
        <ele>219</ele>
        <time>2026-03-11T15:54:00Z</time>
      </trkpt>
      <trkpt lat="43.5419" lon="6.46774">
        <ele>219</ele>
        <time>2026-03-11T15:54:02Z</time>
      </trkpt>
      <trkpt lat="43.54191" lon="6.46771">
        <ele>218</ele>
        <time>2026-03-11T15:54:04Z</time>
      </trkpt>
      <trkpt lat="43.54195" lon="6.46765">
        <ele>217</ele>
        <time>2026-03-11T15:54:08Z</time>
      </trkpt>
      <trkpt lat="43.54196" lon="6.46762">
        <ele>217</ele>
        <time>2026-03-11T15:54:10Z</time>
      </trkpt>
      <trkpt lat="43.54197" lon="6.46758">
        <ele>216</ele>
        <time>2026-03-11T15:54:12Z</time>
      </trkpt>
      <trkpt lat="43.542" lon="6.46749">
        <ele>214</ele>
        <time>2026-03-11T15:54:18Z</time>
      </trkpt>
      <trkpt lat="43.54201" lon="6.46747">
        <ele>213</ele>
        <time>2026-03-11T15:54:20Z</time>
      </trkpt>
      <trkpt lat="43.54199" lon="6.46742">
        <ele>212</ele>
        <time>2026-03-11T15:54:24Z</time>
      </trkpt>
      <trkpt lat="43.54196" lon="6.46738">
        <ele>210</ele>
        <time>2026-03-11T15:54:28Z</time>
      </trkpt>
      <trkpt lat="43.54193" lon="6.46737">
        <ele>209</ele>
        <time>2026-03-11T15:54:32Z</time>
      </trkpt>
      <trkpt lat="43.54192" lon="6.46734">
        <ele>209</ele>
        <time>2026-03-11T15:54:40Z</time>
      </trkpt>
      <trkpt lat="43.54192" lon="6.46731">
        <ele>211</ele>
        <time>2026-03-11T15:54:50Z</time>
      </trkpt>
      <trkpt lat="43.54191" lon="6.4673">
        <ele>212</ele>
        <time>2026-03-11T15:54:52Z</time>
      </trkpt>
      <trkpt lat="43.54191" lon="6.46721">
        <ele>215</ele>
        <time>2026-03-11T15:55:02Z</time>
      </trkpt>
      <trkpt lat="43.54192" lon="6.46718">
        <ele>215</ele>
        <time>2026-03-11T15:55:04Z</time>
      </trkpt>
      <trkpt lat="43.54193" lon="6.46715">
        <ele>216</ele>
        <time>2026-03-11T15:55:06Z</time>
      </trkpt>
      <trkpt lat="43.54193" lon="6.46713">
        <ele>216</ele>
        <time>2026-03-11T15:55:08Z</time>
      </trkpt>
      <trkpt lat="43.54192" lon="6.46709">
        <ele>217</ele>
        <time>2026-03-11T15:55:12Z</time>
      </trkpt>
      <trkpt lat="43.54208" lon="6.467">
        <ele>222</ele>
        <time>2026-03-11T15:55:28Z</time>
      </trkpt>
      <trkpt lat="43.54221" lon="6.46698">
        <ele>224</ele>
        <time>2026-03-11T15:55:40Z</time>
      </trkpt>
      <trkpt lat="43.54224" lon="6.46695">
        <ele>225</ele>
        <time>2026-03-11T15:55:42Z</time>
      </trkpt>
      <trkpt lat="43.54231" lon="6.46683">
        <ele>226</ele>
        <time>2026-03-11T15:55:48Z</time>
      </trkpt>
      <trkpt lat="43.54233" lon="6.4668">
        <ele>226</ele>
        <time>2026-03-11T15:55:50Z</time>
      </trkpt>
      <trkpt lat="43.54237" lon="6.46676">
        <ele>226</ele>
        <time>2026-03-11T15:55:54Z</time>
      </trkpt>
      <trkpt lat="43.54238" lon="6.46674">
        <ele>226</ele>
        <time>2026-03-11T15:55:56Z</time>
      </trkpt>
      <trkpt lat="43.5424" lon="6.46671">
        <ele>227</ele>
        <time>2026-03-11T15:55:58Z</time>
      </trkpt>
      <trkpt lat="43.54243" lon="6.46668">
        <ele>227</ele>
        <time>2026-03-11T15:56:00Z</time>
      </trkpt>
      <trkpt lat="43.54245" lon="6.46665">
        <ele>227</ele>
        <time>2026-03-11T15:56:02Z</time>
      </trkpt>
      <trkpt lat="43.5425" lon="6.4666">
        <ele>228</ele>
        <time>2026-03-11T15:56:06Z</time>
      </trkpt>
      <trkpt lat="43.54255" lon="6.46652">
        <ele>228</ele>
        <time>2026-03-11T15:56:10Z</time>
      </trkpt>
      <trkpt lat="43.54257" lon="6.46649">
        <ele>228</ele>
        <time>2026-03-11T15:56:12Z</time>
      </trkpt>
      <trkpt lat="43.5426" lon="6.46646">
        <ele>228</ele>
        <time>2026-03-11T15:56:14Z</time>
      </trkpt>
      <trkpt lat="43.54261" lon="6.46643">
        <ele>228</ele>
        <time>2026-03-11T15:56:16Z</time>
      </trkpt>
      <trkpt lat="43.54267" lon="6.46633">
        <ele>230</ele>
        <time>2026-03-11T15:56:26Z</time>
      </trkpt>
      <trkpt lat="43.5427" lon="6.46629">
        <ele>230</ele>
        <time>2026-03-11T15:56:30Z</time>
      </trkpt>
      <trkpt lat="43.54274" lon="6.46626">
        <ele>231</ele>
        <time>2026-03-11T15:56:34Z</time>
      </trkpt>
      <trkpt lat="43.54284" lon="6.46607">
        <ele>231</ele>
        <time>2026-03-11T15:56:44Z</time>
      </trkpt>
      <trkpt lat="43.54285" lon="6.46604">
        <ele>231</ele>
        <time>2026-03-11T15:56:46Z</time>
      </trkpt>
      <trkpt lat="43.54287" lon="6.46601">
        <ele>230</ele>
        <time>2026-03-11T15:56:48Z</time>
      </trkpt>
      <trkpt lat="43.54288" lon="6.46598">
        <ele>229</ele>
        <time>2026-03-11T15:56:50Z</time>
      </trkpt>
      <trkpt lat="43.54288" lon="6.46593">
        <ele>227</ele>
        <time>2026-03-11T15:56:52Z</time>
      </trkpt>
      <trkpt lat="43.54285" lon="6.46585">
        <ele>224</ele>
        <time>2026-03-11T15:56:56Z</time>
      </trkpt>
      <trkpt lat="43.54285" lon="6.4658">
        <ele>222</ele>
        <time>2026-03-11T15:56:58Z</time>
      </trkpt>
      <trkpt lat="43.54284" lon="6.46575">
        <ele>219</ele>
        <time>2026-03-11T15:57:00Z</time>
      </trkpt>
      <trkpt lat="43.54281" lon="6.46575">
        <ele>217</ele>
        <time>2026-03-11T15:57:02Z</time>
      </trkpt>
      <trkpt lat="43.54278" lon="6.46573">
        <ele>215</ele>
        <time>2026-03-11T15:57:04Z</time>
      </trkpt>
      <trkpt lat="43.54276" lon="6.46571">
        <ele>214</ele>
        <time>2026-03-11T15:57:06Z</time>
      </trkpt>
      <trkpt lat="43.54273" lon="6.46569">
        <ele>212</ele>
        <time>2026-03-11T15:57:08Z</time>
      </trkpt>
      <trkpt lat="43.5427" lon="6.46569">
        <ele>210</ele>
        <time>2026-03-11T15:57:10Z</time>
      </trkpt>
      <trkpt lat="43.54267" lon="6.46568">
        <ele>209</ele>
        <time>2026-03-11T15:57:12Z</time>
      </trkpt>
      <trkpt lat="43.54264" lon="6.46564">
        <ele>207</ele>
        <time>2026-03-11T15:57:16Z</time>
      </trkpt>
      <trkpt lat="43.54261" lon="6.46557">
        <ele>206</ele>
        <time>2026-03-11T15:57:20Z</time>
      </trkpt>
      <trkpt lat="43.54259" lon="6.46554">
        <ele>205</ele>
        <time>2026-03-11T15:57:22Z</time>
      </trkpt>
      <trkpt lat="43.54257" lon="6.46553">
        <ele>205</ele>
        <time>2026-03-11T15:57:24Z</time>
      </trkpt>
      <trkpt lat="43.54251" lon="6.46552">
        <ele>203</ele>
        <time>2026-03-11T15:57:28Z</time>
      </trkpt>
    </trkseg>
  </trk>
</gpx>